[[{"header":{"parameterUnit":"m.s-1","parameterCategory":1,"la1":30.6,"la2":28.766,"lo1":-90.7593,"lo2":-88.6598,"dy":0.0162,"dx":0.0183,"nx":116,"ny":114,"refTime":"2023-10-13T12:00:00:Z","depth":0,"parameterNumber":2,"parameterNumberName":"U-component_of_WINDS"},"data":[0.0,0.0,0.0,0.0,0.0,0.0,0.0,0.0,0.0,0.0,0.0,0.0,0.0,0.0,0.0,0.0,0.0,0.0,0.0,0.0,0.0,0.0,0.0,0.0,0.0,0.0,0.0,0.0,0.0,0.0,0.0,0.0,0.0,0.0,0.0,0.0,0.0,0.0,0.0,0.0,0.0,0.0,0.0,0.0,0.0,0.0,0.0,0.0,0.0,0.0,0.0,0.0,0.0,0.0,0.0,0.0,0.0,0.0,0.0,0.0,0.0,0.0,0.0,0.0,0.0,0.0,0.0,0.0,0.0,0.0,0.0,0.0,0.0,0.0,0.0,0.0,0.0,0.0,0.0,0.0,0.0,0.0,0.0,0.0,0.0,0.0,0.0,0.0,0.0,0.0,0.0,0.0,0.0,0.0,0.0,0.0,0.0,0.0,0.0,0.0,0.0,0.0,0.0,0.0,0.0,0.0,0.0,0.0,0.0,0.0,0.0,0.0,0.0,0.0,0.0,0.0,0.0,0.0,0.0,0.0,0.0,0.0,0.0,0.0,0.0,0.0,0.0,0.0,0.0,0.0,0.0,0.0,0.0,0.0,0.0,0.0,0.0,0.0,0.0,0.0,0.0,0.0,0.0,0.0,0.0,0.0,0.0,0.0,0.0,0.0,0.0,0.0,0.0,0.0,0.0,0.0,0.0,0.0,0.0,0.0,0.0,0.0,0.0,0.0,0.0,0.0,0.0,0.0,0.0,0.0,0.0,0.0,0.0,0.0,0.0,0.0,0.0,0.0,0.0,0.0,0.0,0.0,0.0,0.0,0.0,0.0,0.0,0.0,0.0,0.0,0.0,0.0,0.0,0.0,0.0,0.0,0.0,0.0,0.0,0.0,0.0,0.0,0.0,0.0,0.0,0.0,0.0,0.0,0.0,0.0,0.0,0.0,0.0,0.0,0.0,0.0,0.0,0.0,0.0,0.0,0.0,0.0,0.0,0.0,0.0,0.0,0.0,0.0,0.0,0.0,0.0,0.0,0.0,0.0,0.0,0.0,0.0,0.0,0.0,0.0,0.0,0.0,0.0,0.0,0.0,0.0,0.0,0.0,0.0,0.0,0.0,0.0,0.0,0.0,0.0,0.0,0.0,0.0,0.0,0.0,0.0,0.0,0.0,0.0,0.0,0.0,0.0,0.0,0.0,0.0,0.0,0.0,0.0,0.0,0.0,0.0,0.0,0.0,0.0,0.0,0.0,0.0,0.0,0.0,0.0,0.0,0.0,0.0,0.0,0.0,0.0,0.0,0.0,0.0,0.0,0.0,0.0,0.0,0.0,0.0,0.0,0.0,0.0,0.0,0.0,0.0,0.0,0.0,0.0,0.0,0.0,0.0,0.0,0.0,0.0,0.0,0.0,0.0,0.0,0.0,0.0,0.0,0.0,0.0,0.0,0.0,0.0,0.0,0.0,0.0,0.0,0.0,0.0,0.0,0.0,0.0,0.0,0.0,0.0,0.0,0.0,0.0,0.0,0.0,0.0,0.0,0.0,0.0,0.0,0.0,0.0,0.0,0.0,0.0,0.0,0.0,0.0,0.0,0.0,0.0,0.0,0.0,0.0,0.0,0.0,0.0,0.0,0.0,0.0,0.0,0.0,0.0,0.0,0.0,0.0,0.0,0.0,0.0,0.0,0.0,0.0,0.0,0.0,0.0,0.0,0.0,0.0,0.0,0.0,0.0,0.0,0.0,0.0,0.0,0.0,0.0,0.0,0.0,0.0,0.0,0.0,0.0,0.0,0.0,0.0,0.0,0.0,0.0,0.0,0.0,0.0,0.0,0.0,0.0,0.0,0.0,0.0,0.0,0.0,0.0,0.0,0.0,0.0,0.0,0.0,0.0,0.0,0.0,0.0,0.0,0.0,0.0,0.0,0.0,0.0,0.0,0.0,0.0,0.0,0.0,0.0,0.0,0.0,0.0,0.0,0.0,0.0,0.0,0.0,0.0,0.0,0.0,0.0,0.0,0.0,0.0,0.0,0.0,0.0,0.0,0.0,0.0,0.0,0.0,0.0,0.0,0.0,0.0,0.0,0.0,0.0,0.0,0.0,0.0,0.0,0.0,0.0,0.0,0.0,0.0,0.0,0.0,0.0,0.0,0.0,0.0,0.0,0.0,0.0,0.0,0.0,0.0,0.0,0.0,0.0,0.0,0.0,0.0,0.0,0.0,0.0,0.0,0.0,0.0,0.0,0.0,0.0,0.0,0.0,0.0,0.0,0.0,0.0,0.0,0.0,0.0,0.0,0.0,0.0,0.0,0.0,0.0,0.0,0.0,0.0,0.0,0.0,0.0,0.0,0.0,0.0,0.0,0.0,0.0,0.0,0.0,0.0,0.0,0.0,0.0,0.0,0.0,0.0,0.0,0.0,0.0,0.0,0.0,0.0,0.0,0.0,0.0,0.0,0.0,0.0,0.0,0.0,0.0,0.0,0.0,0.0,0.0,0.0,0.0,0.0,0.0,0.0,0.0,0.0,0.0,0.0,0.0,0.0,0.0,0.0,0.0,0.0,0.0,0.0,0.0,0.0,0.0,0.0,0.0,0.0,0.0,0.0,0.0,0.0,0.0,0.0,0.0,0.0,0.0,0.0,0.0,0.0,0.0,0.0,0.0,0.0,0.0,0.0,0.0,0.0,0.0,0.0,0.0,0.0,0.0,0.0,0.0,0.0,0.0,0.0,0.0,0.0,0.0,0.0,0.0,0.0,0.0,0.0,0.0,0.0,0.0,0.0,0.0,0.0,0.0,0.0,0.0,0.0,0.0,0.0,0.0,0.0,0.0,0.0,0.0,0.0,0.0,0.0,0.0,0.0,0.0,0.0,0.0,0.0,0.0,0.0,0.0,0.0,0.0,0.0,0.0,0.0,0.0,0.0,0.0,0.0,0.0,0.0,0.0,0.0,0.0,0.0,0.0,0.0,0.0,0.0,0.0,0.0,0.0,0.0,0.0,0.0,0.0,0.0,0.0,0.0,0.0,0.0,0.0,0.0,0.0,0.0,0.0,0.0,0.0,0.0,0.0,0.0,0.0,0.0,0.0,0.0,0.0,0.0,0.0,0.0,0.0,0.0,0.0,0.0,0.0,0.0,0.0,0.0,0.0,0.0,0.0,0.0,0.0,0.0,0.0,0.0,0.0,0.0,0.0,0.0,0.0,0.0,0.0,0.0,0.0,0.0,0.0,0.0,0.0,0.0,0.0,0.0,0.0,0.0,0.0,0.0,0.0,0.0,0.0,0.0,0.0,0.0,0.0,0.0,0.0,0.0,0.0,0.0,0.0,0.0,0.0,0.0,0.0,0.0,0.0,0.0,0.0,0.0,0.0,0.0,0.0,0.0,0.0,0.0,0.0,0.0,0.0,0.0,0.0,0.0,0.0,0.0,0.0,0.0,0.0,0.0,0.0,0.0,0.0,0.0,0.0,0.0,0.0,0.0,0.0,0.0,0.0,0.0,0.0,0.0,0.0,0.0,0.0,0.0,0.0,0.0,0.0,0.0,0.0,0.0,0.0,0.0,0.0,0.0,0.0,0.0,0.0,0.0,0.0,0.0,0.0,0.0,0.0,0.0,0.0,0.0,0.0,0.0,0.0,0.0,0.0,0.0,0.0,0.0,0.0,0.0,0.0,0.0,0.0,0.0,0.0,0.0,0.0,0.0,0.0,0.0,0.0,0.0,0.0,0.0,0.0,0.0,0.0,0.0,0.0,0.0,0.0,0.0,0.0,0.0,0.0,0.0,0.0,0.0,0.0,0.0,0.0,0.0,0.0,0.0,0.0,0.0,0.0,0.0,0.0,0.0,0.0,0.0,0.0,0.0,0.0,0.0,0.0,0.0,0.0,0.0,0.0,0.0,0.0,0.0,0.0,0.0,0.0,0.0,0.0,0.0,0.0,0.0,0.0,0.0,0.0,0.0,0.0,0.0,0.0,0.0,0.0,0.0,0.0,0.0,0.0,0.0,0.0,0.0,0.0,0.0,0.0,0.0,0.0,0.0,0.0,0.0,0.0,0.0,0.0,0.0,0.0,0.0,0.0,0.0,0.0,0.0,0.0,0.0,0.0,0.0,0.0,0.0,0.0,0.0,0.0,0.0,0.0,0.0,0.0,0.0,0.0,0.0,0.0,0.0,0.0,0.0,0.0,0.0,0.0,0.0,0.0,0.0,0.0,0.0,0.0,0.0,0.0,0.0,0.0,0.0,0.0,0.0,0.0,0.0,0.0,0.0,0.0,0.0,0.0,0.0,0.0,0.0,0.0,0.0,0.0,0.0,0.0,0.0,0.0,0.0,0.0,0.0,0.0,0.0,0.0,0.0,0.0,0.0,0.0,0.0,0.0,0.0,0.0,0.0,0.0,0.0,0.0,0.0,0.0,0.0,0.0,0.0,0.0,0.0,0.0,0.0,0.0,0.0,0.0,0.0,0.0,0.0,0.0,0.0,0.0,0.0,0.0,0.0,0.0,0.0,0.0,0.0,0.0,0.0,0.0,0.0,0.0,0.0,0.0,0.0,0.0,0.0,0.0,0.0,0.0,0.0,0.0,0.0,0.0,0.0,0.0,0.0,0.0,0.0,0.0,0.0,0.0,0.0,0.0,0.0,0.0,0.0,0.0,0.0,0.0,0.0,0.0,0.0,0.0,0.0,0.0,0.0,0.0,0.0,0.0,0.0,0.0,0.0,0.0,0.0,0.0,0.0,0.0,0.0,0.0,0.0,0.0,0.0,0.0,0.0,0.0,0.0,0.0,0.0,0.0,0.0,0.0,0.0,0.0,0.0,0.0,0.0,0.0,0.0,0.0,0.0,0.0,0.0,0.0,0.0,0.0,0.0,0.0,0.0,0.0,0.0,0.0,0.0,0.0,0.0,0.0,0.0,0.0,0.0,0.0,0.0,0.0,0.0,0.0,0.0,0.0,0.0,0.0,0.0,0.0,0.0,0.0,0.0,0.0,0.0,0.0,0.0,0.0,0.0,0.0,0.0,0.0,0.0,0.0,0.0,0.0,0.0,0.0,0.0,0.0,0.0,0.0,0.0,0.0,0.0,0.0,0.0,0.0,0.0,0.0,0.0,0.0,0.0,0.0,0.0,0.0,0.0,0.0,0.0,0.0,0.0,0.0,0.0,0.0,0.0,0.0,0.0,0.0,0.0,0.0,0.0,0.0,0.0,0.0,0.0,0.0,0.0,0.0,0.0,0.0,0.0,0.0,0.0,0.0,0.0,0.0,0.0,0.0,0.0,0.0,0.0,0.0,0.0,0.0,0.0,0.0,0.0,0.0,0.0,0.0,0.0,0.0,0.0,0.0,0.0,0.0,0.0,0.0,0.0,0.0,0.0,0.0,0.0,0.0,0.0,0.0,0.0,0.0,0.0,0.0,0.0,0.0,0.0,0.0,0.0,0.0,0.0,0.0,0.0,0.0,0.0,0.0,0.0,0.0,0.0,0.0,0.0,0.0,0.0,0.0,0.0,0.0,0.0,0.0,0.0,0.0,0.0,0.0,0.0,0.0,0.0,0.0,0.0,0.0,0.0,0.0,0.0,0.0,0.0,0.0,0.0,0.0,0.0,0.0,0.0,0.0,0.0,0.0,0.0,0.0,0.0,0.0,0.0,0.0,0.0,0.0,0.0,0.0,0.0,0.0,0.0,0.0,0.0,0.0,0.0,0.0,0.0,0.0,0.0,0.0,0.0,0.0,0.0,0.0,0.0,0.0,0.0,0.0,0.0,0.0,0.0,0.0,0.0,0.0,0.0,0.0,0.0,0.0,0.0,0.0,0.0,0.0,0.0,0.0,0.0,0.0,0.0,0.0,0.0,0.0,0.0,0.0,0.0,0.0,0.0,0.0,0.0,0.0,0.0,0.0,0.0,0.0,0.0,0.0,0.0,0.0,0.0,0.0,0.0,0.0,0.0,0.0,0.0,0.0,0.0,0.0,0.0,0.0,0.0,0.0,0.0,0.0,0.0,0.0,0.0,0.0,0.0,0.0,0.0,0.0,0.0,0.0,0.0,0.0,0.0,0.0,0.0,0.0,0.0,0.0,0.0,0.0,0.0,0.0,0.0,0.0,0.0,0.0,4.782,0.0,0.0,0.0,0.0,0.0,0.0,0.0,0.0,0.0,0.0,0.0,0.0,0.0,0.0,0.0,0.0,0.0,0.0,0.0,0.0,0.0,0.0,0.0,0.0,0.0,0.0,0.0,0.0,0.0,0.0,0.0,0.0,0.0,0.0,0.0,0.0,0.0,0.0,0.0,0.0,0.0,0.0,0.0,0.0,0.0,0.0,0.0,0.0,0.0,0.0,0.0,0.0,0.0,0.0,0.0,0.0,0.0,0.0,0.0,0.0,0.0,0.0,0.0,0.0,0.0,0.0,0.0,0.0,0.0,0.0,0.0,0.0,0.0,0.0,0.0,0.0,0.0,0.0,0.0,0.0,0.0,0.0,0.0,0.0,0.0,0.0,0.0,0.0,0.0,0.0,0.0,0.0,0.0,0.0,0.0,0.0,0.0,0.0,0.0,0.0,0.0,0.0,0.0,0.0,0.0,0.0,0.0,0.0,0.0,0.0,0.0,0.0,0.0,0.0,0.0,0.0,5.0209,0.0,0.0,0.0,0.0,0.0,0.0,0.0,0.0,0.0,0.0,0.0,0.0,0.0,0.0,0.0,0.0,0.0,0.0,0.0,0.0,0.0,0.0,0.0,0.0,0.0,0.0,0.0,0.0,0.0,0.0,0.0,0.0,0.0,0.0,0.0,0.0,0.0,0.0,0.0,0.0,0.0,0.0,0.0,0.0,0.0,0.0,0.0,0.0,0.0,0.0,0.0,0.0,0.0,0.0,0.0,0.0,0.0,0.0,0.0,0.0,0.0,0.0,0.0,0.0,0.0,0.0,0.0,0.0,0.0,0.0,0.0,0.0,0.0,0.0,0.0,0.0,0.0,0.0,0.0,0.0,0.0,0.0,0.0,0.0,0.0,0.0,0.0,0.0,0.0,0.0,0.0,0.0,0.0,0.0,0.0,0.0,0.0,0.0,0.0,0.0,0.0,0.0,0.0,0.0,0.0,0.0,0.0,0.0,0.0,0.0,6.273,6.2078,6.2476,6.3523,5.9164,5.5692,5.3098,0.0,0.0,0.0,0.0,0.0,0.0,0.0,0.0,0.0,0.0,0.0,0.0,0.0,0.0,0.0,0.0,0.0,0.0,0.0,0.0,0.0,0.0,0.0,0.0,0.0,0.0,0.0,0.0,0.0,0.0,0.0,0.0,0.0,0.0,0.0,0.0,0.0,0.0,0.0,5.8718,5.953,6.0637,6.1717,5.6768,0.0,0.0,0.0,0.0,0.0,0.0,0.0,0.0,0.0,0.0,0.0,0.0,0.0,0.0,0.0,0.0,0.0,0.0,0.0,0.0,0.0,0.0,0.0,0.0,0.0,0.0,0.0,0.0,0.0,0.0,0.0,0.0,0.0,0.0,0.0,0.0,0.0,0.0,0.0,0.0,0.0,0.0,0.0,4.3266,4.3276,0.0,0.0,0.0,0.0,0.0,0.0,0.0,0.0,0.0,0.0,0.0,0.0,0.0,0.0,5.9889,6.1969,6.3548,6.4567,6.5733,6.6516,6.6919,6.6809,6.7579,6.91,6.9814,0.0,5.7619,5.5981,0.0,0.0,0.0,0.0,0.0,0.0,0.0,0.0,0.0,0.0,0.0,0.0,0.0,0.0,0.0,0.0,0.0,0.0,0.0,0.0,0.0,0.0,0.0,0.0,0.0,0.0,0.0,0.0,0.0,0.0,0.0,0.0,0.0,0.0,0.0,0.0,5.6515,5.9605,6.2806,6.4057,6.5529,6.6964,6.402,6.1677,5.978,5.6842,0.0,0.0,0.0,0.0,0.0,0.0,0.0,0.0,0.0,0.0,0.0,0.0,0.0,0.0,0.0,0.0,0.0,0.0,0.0,0.0,0.0,0.0,0.0,0.0,0.0,0.0,0.0,0.0,0.0,0.0,0.0,0.0,0.0,0.0,0.0,0.0,0.0,0.0,0.0,4.4488,4.568,4.4307,4.6082,4.6708,0.0,0.0,0.0,0.0,0.0,0.0,0.0,0.0,0.0,5.7995,5.9944,6.1932,6.4056,6.65,6.8348,6.9628,7.1081,7.2239,7.312,7.312,7.3744,7.4918,7.5616,7.3098,6.8092,6.409,6.0126,5.6438,0.0,0.0,0.0,0.0,0.0,5.5324,0.0,0.0,0.0,0.0,0.0,0.0,0.0,0.0,0.0,0.0,0.0,0.0,0.0,0.0,0.0,4.8742,0.0,0.0,0.0,0.0,0.0,0.0,0.0,0.0,0.0,0.0,0.0,0.0,6.0819,6.4104,6.7504,6.9082,7.0587,7.1908,7.1101,6.7794,6.2609,5.9595,5.7913,0.0,0.0,0.0,0.0,0.0,0.0,0.0,0.0,0.0,0.0,0.0,0.0,0.0,0.0,0.0,0.0,0.0,0.0,0.0,0.0,0.0,0.0,0.0,0.0,0.0,0.0,0.0,0.0,0.0,0.0,0.0,0.0,0.0,0.0,0.0,0.0,0.0,0.0,4.669,4.8255,4.5544,4.9069,5.0424,0.0,0.0,0.0,0.0,0.0,0.0,5.6779,5.978,6.251,6.4782,6.6931,6.8648,7.0062,7.2343,7.4221,7.5616,7.6607,7.7818,7.9176,7.9176,7.9543,8.0131,8.0131,7.9323,7.7488,7.1431,6.6381,6.2242,6.0672,5.9355,5.8615,6.0341,6.0933,6.1115,0.0,0.0,0.0,0.0,0.0,0.0,0.0,0.0,0.0,0.0,0.0,0.0,0.0,0.0,4.8813,5.2251,5.1788,5.1972,0.0,0.0,0.0,0.0,0.0,0.0,0.0,0.0,0.0,6.2622,6.5794,6.9376,7.3303,7.4918,7.613,7.6937,7.6093,7.4294,7.1358,6.4485,6.2413,6.3113,0.0,0.0,0.0,0.0,0.0,0.0,0.0,0.0,0.0,0.0,0.0,0.0,0.0,0.0,0.0,0.0,0.0,0.0,0.0,0.0,0.0,0.0,0.0,0.0,0.0,0.0,0.0,0.0,0.0,0.0,0.0,0.0,0.0,0.0,0.0,0.0,0.0,0.0,0.0,4.7141,5.182,0.0,0.0,0.0,0.0,5.4559,5.8752,6.1534,6.2,6.5222,6.8947,7.2988,7.5671,7.8442,8.1379,8.2296,8.3177,8.3985,8.3324,8.3434,8.4242,8.4242,8.4278,8.4315,8.4315,8.3838,8.248,7.5249,7.033,6.7173,6.5558,6.4457,6.3833,6.4742,6.5022,6.5029,0.0,0.0,0.0,0.0,0.0,0.0,0.0,0.0,0.0,0.0,0.0,0.0,0.0,5.1352,5.4526,5.6933,5.8709,5.927,5.8234,0.0,0.0,0.0,0.0,0.0,0.0,0.0,6.1235,6.6853,7.1047,7.4918,7.8442,8.0057,8.1232,8.2003,8.1709,8.0534,7.8185,6.9908,6.5515,6.3775,5.8637,5.5849,0.0,0.0,0.0,0.0,0.0,0.0,0.0,0.0,0.0,0.0,0.0,0.0,0.0,0.0,0.0,0.0,0.0,0.0,0.0,0.0,0.0,0.0,0.0,0.0,0.0,0.0,0.0,0.0,0.0,0.0,0.0,0.0,0.0,0.0,0.0,0.0,0.0,5.5744,6.0971,0.0,0.0,6.0129,6.1652,6.2928,6.7034,7.0077,7.1369,7.4978,7.8089,8.0645,8.2099,8.3673,8.527,8.5563,8.56,8.538,8.5086,8.4829,8.4609,8.5123,8.5086,8.4646,8.5159,8.4903,8.3985,8.1379,7.7745,7.367,7.1541,7.022,6.9522,6.9871,7.0312,7.0697,0.0,0.0,0.0,0.0,0.0,0.0,0.0,0.0,0.0,0.0,0.0,4.7578,4.982,5.4571,5.8694,6.14,6.3055,6.3382,6.2045,0.0,0.0,0.0,0.0,0.0,0.0,6.1724,6.6081,7.1397,7.5676,7.914,8.1856,8.3177,8.4242,8.5013,8.5013,8.4389,8.2994,7.6533,7.101,6.6213,6.1923,5.9669,5.8326,0.0,0.0,0.0,0.0,0.0,0.0,0.0,0.0,0.0,0.0,0.0,0.0,0.0,0.0,0.0,0.0,0.0,0.0,0.0,0.0,0.0,0.0,0.0,0.0,0.0,0.0,0.0,0.0,0.0,0.0,0.0,0.0,0.0,0.0,0.0,6.2845,6.2333,6.8246,7.0729,6.6597,6.8183,6.9985,7.1195,7.5077,7.806,7.9566,8.2538,8.4829,8.6187,8.6995,8.7692,8.8206,8.8206,8.7949,8.7435,8.7142,8.6738,8.6261,8.6775,8.6885,8.6628,8.6591,8.6444,8.6151,8.5343,8.3104,7.9947,7.7524,7.6093,7.5322,7.5065,7.5139,7.5249,0.0,0.0,0.0,0.0,0.0,0.0,0.0,0.0,0.0,0.0,4.4913,4.9313,5.2216,5.6556,6.1085,6.5618,6.435,6.3669,6.4585,5.9218,0.0,0.0,0.0,0.0,6.0856,6.6338,7.147,7.624,7.9507,8.1929,8.3508,8.4315,8.5123,8.5857,8.5894,8.5894,8.582,8.4205,7.8956,7.1284,6.636,6.4401,6.3702,0.0,0.0,0.0,0.0,0.0,0.0,0.0,0.0,0.0,0.0,0.0,0.0,0.0,0.0,0.0,0.0,0.0,0.0,0.0,0.0,0.0,0.0,0.0,0.0,0.0,0.0,0.0,0.0,0.0,0.0,0.0,0.0,0.0,5.6528,6.2892,6.7253,6.6664,7.3256,7.612,7.1717,7.6049,7.9126,7.9194,8.2659,8.5196,8.5967,8.7545,8.8793,8.9601,9.0372,9.0776,9.0776,9.0739,9.0702,9.0665,8.9858,8.9491,8.9454,8.9454,8.9858,9.0482,8.894,8.872,8.9234,8.6848,8.5857,8.5637,8.3177,8.1746,8.0975,8.0131,7.9323,7.8405,0.0,0.0,0.0,0.0,0.0,0.0,0.0,0.0,0.0,0.0,4.6707,5.1709,5.4765,6.0867,6.5911,6.8884,6.7511,6.6373,6.6056,0.0,0.0,0.0,0.0,0.0,6.8362,7.1066,7.4831,7.9653,8.2296,8.4132,8.5159,8.6554,8.7325,8.7582,8.8169,8.8426,8.8316,8.6701,8.4058,8.0277,7.2459,6.7978,6.5469,0.0,0.0,0.0,0.0,0.0,0.0,0.0,0.0,0.0,0.0,0.0,0.0,0.0,0.0,0.0,0.0,0.0,0.0,0.0,0.0,0.0,0.0,0.0,0.0,0.0,0.0,0.0,0.0,0.0,0.0,0.0,0.0,6.3867,6.351,6.9194,7.4545,7.7524,8.2213,8.5015,8.4259,8.558,8.6756,8.7301,8.9493,9.0849,9.1069,9.2611,9.3602,9.3822,9.4042,9.4153,9.4153,9.3565,9.2978,9.2391,9.1546,9.0849,9.0298,9.0298,9.0078,8.9748,8.9895,8.9748,8.9307,8.8059,8.7545,8.7252,8.4242,8.2957,8.259,8.1195,8.0167,7.9396,0.0,0.0,0.0,0.0,0.0,0.0,0.0,0.0,0.0,0.0,4.7805,5.3237,5.6576,6.3189,6.8069,6.9693,6.7921,6.6152,6.4733,0.0,0.0,0.0,0.0,6.7163,7.2316,7.5271,7.8332,8.1489,8.3911,8.5527,8.6334,8.7949,8.9087,8.9784,9.0592,9.0959,9.0886,8.9968,8.8426,8.6077,7.9874,7.5271,7.1544,6.6154,6.3923,6.3198,5.9973,5.894,5.8718,5.5849,0.0,0.0,0.0,0.0,0.0,0.0,0.0,0.0,0.0,0.0,0.0,0.0,0.0,0.0,0.0,0.0,0.0,0.0,0.0,0.0,0.0,0.0,0.0,0.0,6.7504,7.2509,7.4623,7.7555,8.1,8.5212,8.8338,9.0335,9.0806,9.1193,9.1796,9.2611,9.3565,9.4116,9.4116,9.5327,9.5878,9.5511,9.5511,9.5511,9.5511,9.4703,9.4079,9.3602,9.3088,9.2611,9.2134,9.2134,9.2097,0.0,9.1363,9.0849,9.0298,8.8793,8.7986,0.0,0.0,0.0,0.0,0.0,8.0718,8.0241,0.0,0.0,0.0,0.0,0.0,0.0,0.0,0.0,0.0,0.0,0.0,5.3836,5.7452,6.3694,6.8046,6.9055,6.6787,6.4385,0.0,0.0,0.0,6.2622,6.8031,7.2059,7.4478,7.9029,8.1856,8.2737,8.5049,8.6628,8.7435,8.9087,9.0629,9.206,9.2868,9.3235,9.3235,9.3125,9.1877,8.9748,8.7325,8.3875,7.9433,7.2463,7.1121,7.2262,6.6957,6.4242,6.2767,6.0268,0.0,0.0,0.0,0.0,0.0,0.0,0.0,0.0,0.0,0.0,0.0,0.0,0.0,0.0,0.0,0.0,0.0,0.0,0.0,0.0,0.0,0.0,0.0,0.0,7.5394,8.0948,8.6825,8.6597,8.7106,9.0538,9.2363,9.3389,9.3534,9.4358,9.5144,9.5841,9.5914,9.5914,9.5914,0.0,0.0,0.0,0.0,9.5951,9.6061,9.5144,9.4703,9.4703,9.4593,9.452,9.441,9.4263,9.4556,9.5107,9.2794,9.173,9.1473,8.9271,8.7802,8.6921,8.6004,8.5159,8.4205,8.2076,8.1232,0.0,0.0,0.0,0.0,0.0,0.0,0.0,0.0,0.0,0.0,4.3034,4.8274,5.2924,5.5992,6.16,6.6245,6.9041,6.6271,6.4044,0.0,0.0,6.4302,6.8489,7.2814,7.6544,7.9507,8.2406,8.4609,8.6077,8.7839,8.9124,8.9931,9.162,9.2574,9.2905,9.3712,9.4079,9.4042,9.3382,9.3198,9.3125,9.0665,8.6885,8.2113,7.6754,7.4588,7.3964,7.0312,6.9614,6.9982,6.7053,6.6132,6.5469,6.1087,0.0,0.0,0.0,0.0,0.0,0.0,0.0,0.0,0.0,0.0,0.0,0.0,0.0,0.0,0.0,0.0,0.0,0.0,0.0,0.0,7.4572,8.0905,8.6829,9.1188,9.2774,9.37,9.439,9.5387,9.6453,9.7771,9.8075,9.8227,9.8411,9.8411,9.8411,9.8411,9.9181,0.0,9.9365,9.8741,9.8741,9.9365,9.7933,9.7199,9.7199,0.0,0.0,9.5217,9.3932,9.3418,9.3492,9.2317,9.1436,9.0739,8.9638,8.8316,8.6885,8.5416,8.4352,8.3581,8.3141,8.2517,8.1929,0.0,0.0,0.0,0.0,0.0,0.0,0.0,0.0,0.0,0.0,4.7096,5.0764,5.3672,5.8801,6.1897,6.1699,6.0668,0.0,0.0,6.4205,6.8062,7.3603,7.7255,8.0561,8.3324,8.5783,8.7399,8.8206,8.9821,9.1033,9.1877,9.3125,9.3932,9.4336,9.5144,9.5951,9.6649,9.5841,9.5951,9.6539,9.4483,9.2207,8.9454,8.3728,8.1048,7.9984,7.7157,7.5616,7.4551,7.2186,7.0588,6.8934,6.5294,6.2549,5.9983,0.0,0.0,0.0,0.0,0.0,0.0,0.0,0.0,0.0,0.0,0.0,0.0,0.0,0.0,6.1696,0.0,0.0,7.6838,8.1817,8.7559,9.2354,9.5084,9.6526,9.7163,9.6722,9.7052,9.775,9.8998,9.9475,9.9695,9.9695,10.0099,10.0099,9.9732,10.0503,10.0686,10.0283,9.9916,9.9879,10.0283,9.9108,9.83,9.7897,9.7493,9.6869,9.6061,9.529,9.4703,9.4263,9.3418,9.2134,9.0482,8.8867,8.7729,8.6848,8.5233,8.4352,8.3948,8.3581,8.2884,8.2186,0.0,0.0,0.0,0.0,0.0,0.0,0.0,0.0,0.0,0.0,4.5655,4.8572,5.1193,5.579,5.7492,0.0,0.0,0.0,0.0,6.6449,7.1985,7.8222,8.1636,8.4425,8.6664,8.8793,8.9968,9.0152,9.1583,9.2794,9.3822,9.4777,9.5658,9.6465,9.7273,9.8264,9.9292,9.8631,9.8741,9.9218,9.7933,9.7493,9.7016,9.1473,8.8353,8.6628,8.4058,8.0828,7.7635,7.6497,7.3854,7.0734,6.9119,6.7063,6.4545,6.0766,5.9771,0.0,0.0,0.0,0.0,0.0,0.0,0.0,0.0,0.0,5.8854,6.3546,6.6141,6.9056,7.4283,7.9318,8.4227,8.9165,9.3491,9.6803,9.8337,9.9035,9.9218,9.8851,9.8668,9.8924,9.9732,10.0393,10.0796,10.0796,10.12,10.12,10.0576,10.109,10.12,10.0576,10.0393,10.0393,10.0503,9.9732,9.8998,9.8337,9.819,9.7713,9.6906,9.6612,9.6098,9.5437,9.4299,9.2574,9.0445,8.8169,8.7142,8.6885,8.5563,8.4866,8.4499,8.3544,8.2774,8.2186,0.0,0.0,0.0,0.0,0.0,0.0,0.0,0.0,0.0,0.0,0.0,0.0,0.0,0.0,0.0,0.0,0.0,0.0,6.5975,7.125,7.6801,8.248,8.582,8.8316,9.0041,9.1033,9.1913,9.2684,9.3565,9.4813,9.6318,9.786,9.8998,9.9805,10.0576,10.0686,10.0209,10.0099,10.0099,10.0209,9.9952,10.0283,10.0686,9.8557,9.4997,9.0702,8.7582,8.3471,7.958,8.0131,7.7671,7.4588,7.5763,7.3046,6.8806,6.5566,0.0,5.7155,5.6002,5.6607,5.7983,5.9664,6.0084,6.1982,0.0,0.0,6.9577,7.3802,7.7047,7.9526,8.0992,8.5752,9.0665,9.4151,9.6392,9.8447,10.0796,10.0576,10.0686,10.2008,10.1494,10.1384,10.2191,10.2412,10.2412,10.2412,10.1898,10.1494,10.1384,10.1494,10.1494,10.1384,10.0686,10.0613,10.1384,10.0576,10.0099,9.9989,9.9328,9.8557,9.7713,9.6282,9.5584,9.5364,9.3088,9.151,9.0482,8.8757,8.7655,8.6995,8.6811,8.5857,8.4425,8.2884,8.226,8.2186,0.0,0.0,0.0,0.0,0.0,0.0,0.0,0.0,0.0,0.0,0.0,0.0,0.0,0.0,0.0,0.0,0.0,0.0,6.6579,7.3791,8.0404,8.5967,8.8867,9.0886,9.2024,9.3749,9.4813,9.5217,9.6465,9.7456,9.8117,9.8814,9.9292,9.9622,9.9952,10.0393,10.098,10.098,10.131,10.1714,10.1714,10.1604,10.1274,9.9695,9.6098,9.1363,8.7725,8.3309,0.0,0.0,7.6838,7.5161,7.624,7.4316,7.0772,6.6633,6.3444,0.0,5.9878,5.9435,0.0,0.0,6.493,6.8178,7.2961,7.4904,7.7011,8.159,8.508,8.7839,8.9601,9.3088,9.6286,0.0,9.9701,10.1213,10.2081,10.1898,10.142,10.0723,10.109,10.1971,10.3293,10.3403,10.3219,10.2705,10.2412,10.2008,10.1494,10.1494,10.1494,10.1494,10.12,10.12,10.1494,10.12,10.0503,9.9622,9.9255,9.8447,9.7163,9.6502,9.5694,9.4703,9.2684,9.1069,8.9821,8.8683,8.7729,8.6958,8.6481,8.5894,8.5159,8.4022,8.2994,8.2186,0.0,0.0,0.0,0.0,0.0,0.0,0.0,0.0,0.0,0.0,0.0,0.0,0.0,0.0,0.0,0.0,0.0,0.0,0.0,7.438,8.1948,8.7949,9.0996,9.3125,9.441,9.6355,9.7346,9.7346,9.8521,9.9328,9.9769,9.9989,10.0319,10.0796,10.12,10.2008,10.2889,10.3072,10.3293,10.3403,10.3403,10.2595,10.1274,9.8961,9.4703,8.9525,8.6139,8.1424,0.0,0.0,7.3145,7.2299,7.3435,7.248,7.0184,6.6228,6.3984,6.253,6.1606,0.0,0.0,6.6427,7.0992,7.5382,7.7965,8.1269,8.4903,8.8867,9.1877,9.4373,9.6171,9.8272,9.9926,10.076,10.2132,10.2978,10.3293,10.2595,10.131,9.9328,9.9548,10.0466,10.2081,10.2999,10.3293,10.2705,10.2705,10.2301,10.1494,10.1494,10.1494,10.1494,10.1494,10.1494,10.1494,10.1494,10.0907,9.9769,9.9328,9.8484,9.7346,9.6906,9.5951,9.4556,9.3125,9.1583,9.0005,8.894,8.8059,8.7252,8.6444,8.5857,8.538,8.4792,8.3728,8.248,0.0,0.0,0.0,0.0,0.0,0.0,0.0,0.0,0.0,0.0,0.0,0.0,0.0,0.0,0.0,0.0,0.0,0.0,0.0,7.265,8.0735,8.7876,9.206,9.5327,9.7676,9.8594,9.9035,9.9035,9.9071,9.9916,10.1384,10.2191,10.3403,10.5018,10.6596,10.689,10.6302,10.7073,10.6486,10.5018,10.5018,10.3586,10.109,9.7126,9.1215,8.4809,8.3043,0.0,0.0,0.0,6.6588,6.4903,6.7295,6.7426,0.0,6.4719,6.1597,5.882,0.0,0.0,6.8084,7.3423,7.9032,8.4007,8.7068,9.0922,9.4336,9.6061,9.7713,9.8924,9.8998,9.9695,10.0796,10.2412,10.2705,10.3293,10.4798,10.2301,10.0099,9.9218,9.7089,9.6282,0.0,10.0907,10.2705,10.2705,10.2705,10.2301,10.1494,10.1494,10.1494,10.1494,10.1494,10.1494,10.1494,10.1494,10.1494,10.1384,9.9842,9.9071,9.8961,9.7419,9.6245,9.5437,9.4593,9.3272,9.1583,9.0041,8.8904,8.8096,8.7288,8.6004,8.4646,8.4609,8.4095,8.3251,0.0,0.0,0.0,0.0,0.0,0.0,0.0,0.0,0.0,0.0,0.0,0.0,0.0,0.0,0.0,0.0,0.0,0.0,0.0,7.0807,7.8246,8.3272,9.0443,9.4666,9.5474,9.8374,9.9916,9.9916,10.0393,10.12,10.2301,10.2595,10.2999,10.3623,10.5201,10.5495,10.4798,10.5605,10.5605,10.4908,10.2228,10.0613,9.9218,9.3015,8.6182,7.9326,0.0,0.0,0.0,0.0,0.0,0.0,6.4168,6.3788,6.2361,6.033,6.0626,6.217,6.4609,0.0,7.5322,8.0908,8.5331,8.9268,9.2978,9.5731,9.764,9.819,9.7937,9.7463,9.6795,9.6982,9.761,9.8557,10.0503,10.2301,10.3403,10.2595,10.0613,9.7126,9.6465,0.0,0.0,0.0,0.0,10.1714,10.1898,10.2008,10.2301,10.2301,10.2301,10.2301,10.1788,10.1494,10.1494,10.1494,10.098,9.9879,9.83,9.753,9.7493,9.6942,9.5988,9.4703,9.441,9.3051,9.0922,8.9858,8.894,8.8133,8.7325,8.6664,8.6077,8.5013,8.4425,8.4022,0.0,0.0,0.0,0.0,0.0,0.0,0.0,0.0,0.0,0.0,0.0,0.0,0.0,0.0,0.0,0.0,0.0,0.0,0.0,0.0,7.2687,7.751,8.3676,8.761,8.8787,9.1252,9.3162,9.4301,9.5327,9.7052,9.9292,9.9879,10.0613,10.1494,10.3403,10.399,10.3513,10.3696,10.2999,10.131,9.7019,9.3896,9.1141,8.4742,7.7965,0.0,6.6307,0.0,0.0,0.0,0.0,5.8393,5.9382,5.9649,5.9442,5.8782,6.1439,6.5632,7.0618,7.5948,8.1571,8.75,9.1325,9.441,9.7309,9.8998,9.9622,9.8484,9.6799,9.511,9.3565,9.25,9.2463,9.4593,9.6505,9.8562,10.109,10.0209,9.8227,9.5401,9.4483,9.3382,0.0,0.0,0.0,10.0393,10.1384,10.2008,10.2301,10.2815,10.2889,10.2301,10.1788,10.1494,10.1494,10.1494,10.0686,9.9108,9.8043,9.7273,9.6685,9.6392,9.5731,9.4703,9.4116,9.2978,9.14,9.0298,8.9528,8.894,8.7876,8.7252,8.6848,8.5527,8.4866,8.4389,0.0,0.0,0.0,0.0,0.0,0.0,0.0,0.0,0.0,0.0,0.0,0.0,0.0,0.0,0.0,0.0,0.0,0.0,0.0,0.0,0.0,7.0696,7.2835,7.5343,7.8477,7.8651,8.0209,8.33,8.4749,8.7876,9.2501,9.4079,9.6061,9.8337,10.0796,10.1788,10.1714,10.087,9.8337,9.4521,8.9632,8.4036,7.8002,7.3185,6.7377,6.1523,5.9161,0.0,0.0,0.0,0.0,0.0,5.3813,5.5595,5.8116,6.0397,6.4217,6.9377,7.7068,8.2233,8.6875,9.2978,9.6869,9.9365,10.0099,10.0686,10.0283,9.7016,9.4226,9.162,0.0,0.0,8.6096,9.0665,9.1323,9.3088,9.8557,9.6061,9.3896,0.0,0.0,0.0,0.0,0.0,0.0,9.8814,0.0,10.2301,10.1677,10.2999,10.3182,10.1677,10.1494,10.1494,10.1494,10.1384,10.0613,9.9108,9.9035,9.819,9.6685,9.5878,9.5474,9.5364,9.3786,9.3088,9.2905,9.1289,9.0592,9.0372,8.8793,8.7729,8.6921,8.604,8.527,8.4389,0.0,0.0,0.0,0.0,0.0,0.0,0.0,0.0,0.0,0.0,0.0,0.0,0.0,0.0,0.0,0.0,0.0,0.0,0.0,0.0,0.0,0.0,0.0,0.0,0.0,0.0,0.0,8.0076,8.0982,8.2417,8.4322,8.5324,8.6066,8.6764,8.9121,8.9856,8.9301,8.8492,8.7605,8.6237,8.0849,7.7607,7.5506,7.0106,6.514,6.0876,0.0,0.0,0.0,0.0,0.0,0.0,0.0,6.0038,6.3305,6.6861,7.2042,7.7841,8.3521,8.9301,9.4374,9.7163,9.8924,9.9879,9.9512,9.819,9.5951,9.2206,8.6752,8.1844,0.0,0.0,0.0,8.5992,9.1913,0.0,10.2081,10.1788,0.0,0.0,0.0,9.6245,9.5254,9.4813,0.0,0.0,9.9989,10.1017,10.3182,10.3109,10.3109,10.3293,10.2081,10.1494,10.1494,10.0283,9.9512,9.9108,9.7897,9.7089,9.6685,9.5878,9.518,9.4556,9.3529,9.2721,9.206,9.1033,9.0262,8.9638,8.861,8.7729,8.6848,8.5416,8.4792,8.4389,0.0,0.0,0.0,0.0,0.0,0.0,0.0,0.0,0.0,0.0,0.0,0.0,0.0,0.0,0.0,0.0,0.0,0.0,0.0,0.0,0.0,0.0,0.0,0.0,0.0,0.0,0.0,0.0,0.0,0.0,7.4974,7.5727,7.6479,7.7215,7.9216,7.9878,7.9462,7.8283,7.7238,0.0,0.0,6.8107,6.6445,6.2946,5.9775,0.0,0.0,0.0,0.0,0.0,0.0,6.1542,6.3124,6.5962,6.9663,7.4638,0.0,8.4228,8.9415,9.4264,9.8043,9.9328,9.9695,9.9108,9.6578,9.4117,9.0698,8.458,7.9325,0.0,0.0,0.0,0.0,0.0,0.0,0.0,10.1494,10.2008,10.1898,0.0,10.0907,0.0,9.7419,9.7456,9.8374,0.0,10.0503,10.1604,10.3806,10.421,10.399,10.3403,10.2485,10.1898,10.1494,10.0613,9.9805,9.9108,9.819,9.7383,9.6685,9.5878,9.5254,9.4777,0.0,9.2831,9.2317,9.1473,9.0849,9.0335,8.9197,8.8463,8.7876,8.6261,8.5637,8.5416,0.0,0.0,0.0,0.0,0.0,0.0,0.0,0.0,0.0,0.0,0.0,0.0,0.0,0.0,0.0,0.0,0.0,0.0,0.0,0.0,0.0,0.0,0.0,0.0,0.0,0.0,0.0,0.0,0.0,0.0,0.0,6.5952,6.7045,6.8557,6.9958,7.0585,7.0475,6.8963,6.7045,6.4734,6.1217,5.8116,5.5566,0.0,0.0,0.0,0.0,0.0,0.0,0.0,6.4893,6.5754,6.9539,7.3239,7.7326,8.339,8.688,8.9963,9.518,9.8227,9.9989,10.0393,9.9695,9.7603,9.25,8.9117,8.4661,7.6117,0.0,6.9273,6.5509,6.8388,7.2982,7.8039,0.0,9.1728,9.9916,10.0393,10.0796,10.3219,10.2705,10.1274,9.9071,10.0099,10.0907,10.0907,10.2191,10.3293,10.399,10.5311,10.5018,10.2815,10.2595,10.2191,10.1494,10.1384,10.0613,9.9255,9.9035,9.8227,9.6832,9.5914,9.5437,9.5254,0.0,0.0,9.2868,9.2097,9.173,9.1473,9.0005,8.9344,8.905,8.7435,8.6848,8.6628,0.0,0.0,0.0,0.0,0.0,0.0,0.0,0.0,0.0,0.0,3.8164,3.7532,0.0,0.0,0.0,0.0,0.0,0.0,0.0,0.0,0.0,0.0,0.0,0.0,0.0,0.0,0.0,0.0,0.0,0.0,0.0,5.7159,5.7666,5.8591,5.8762,5.8873,5.8924,5.7962,5.701,5.5943,5.461,5.3719,5.3125,0.0,0.0,0.0,0.0,0.0,0.0,0.0,7.0789,7.5785,7.8934,8.3096,8.7798,9.2868,9.5658,9.7823,10.1494,10.3219,10.3623,10.1788,9.9695,9.6282,8.9417,8.4007,0.0,0.0,6.6347,6.3141,6.1189,6.5632,7.1876,7.8591,0.0,0.0,0.0,0.0,10.5018,0.0,0.0,0.0,0.0,0.0,0.0,0.0,0.0,0.0,10.4908,10.4504,10.3806,10.2705,10.2081,10.1604,10.1494,10.0796,10.0393,10.0099,9.8741,9.797,9.764,9.6171,9.5144,9.4446,0.0,0.0,9.2024,9.184,9.14,9.0702,8.9784,8.9014,8.8206,8.6591,8.6004,8.5857,0.0,0.0,0.0,0.0,0.0,0.0,0.0,3.6841,3.8023,4.2306,4.1885,4.0867,4.0024,3.9182,0.0,0.0,0.0,0.0,0.0,0.0,0.0,0.0,0.0,0.0,0.0,0.0,0.0,0.0,0.0,0.0,0.0,0.0,0.0,0.0,0.0,0.0,5.2345,5.1937,5.1862,0.0,0.0,0.0,0.0,0.0,0.0,0.0,0.0,0.0,0.0,0.0,7.2208,8.145,8.5374,8.9638,9.4006,9.8007,9.9732,10.098,10.3806,10.4798,10.4614,10.2595,9.9035,9.386,8.5331,0.0,0.0,0.0,6.1604,5.9356,5.8206,6.3187,0.0,0.0,0.0,0.0,0.0,0.0,0.0,0.0,0.0,0.0,0.0,0.0,0.0,0.0,0.0,0.0,10.5789,10.4614,10.3696,10.3293,10.2081,10.1494,10.1494,10.109,10.0686,10.0283,9.9108,9.83,9.786,9.6685,9.5474,9.4263,9.3896,0.0,9.2427,9.1987,9.184,9.1767,9.0519,8.9528,8.8683,8.7472,8.6775,8.6297,0.0,0.0,0.0,0.0,0.0,0.0,0.0,3.8883,4.0235,4.5396,4.5642,4.4343,4.1745,4.0059,3.9498,0.0,0.0,0.0,0.0,0.0,0.0,0.0,0.0,0.0,0.0,0.0,0.0,0.0,0.0,0.0,0.0,0.0,0.0,0.0,0.0,0.0,0.0,0.0,4.9299,0.0,0.0,0.0,0.0,0.0,0.0,0.0,0.0,0.0,0.0,0.0,7.0845,8.1129,8.6402,9.2354,9.7897,10.0099,10.1788,10.3403,10.5201,10.6009,10.5825,10.3293,9.8337,9.1509,8.1745,7.4273,0.0,6.0766,5.8062,5.684,5.6317,6.0752,6.5496,0.0,7.4785,0.0,0.0,0.0,0.0,0.0,0.0,0.0,0.0,0.0,0.0,0.0,0.0,0.0,10.6413,10.4798,10.388,10.388,10.2301,10.1494,10.1494,10.1494,10.12,10.0503,9.9585,9.8778,9.8117,9.7163,9.5804,9.4299,9.4299,0.0,0.0,9.217,9.2317,9.2941,9.1253,9.0115,8.9344,8.8683,8.7839,8.6921,0.0,0.0,0.0,0.0,0.0,0.0,0.0,3.9376,4.1639,4.838,4.7432,4.5747,4.4764,4.3289,4.185,0.0,0.0,0.0,0.0,0.0,0.0,0.0,0.0,0.0,0.0,0.0,0.0,0.0,0.0,0.0,0.0,0.0,0.0,0.0,0.0,0.0,0.0,0.0,0.0,0.0,0.0,0.0,0.0,0.0,0.0,0.0,0.0,0.0,0.0,0.0,0.0,7.0422,7.7537,8.9047,9.9732,9.8557,0.0,0.0,10.7477,10.8982,10.9386,10.4027,9.7933,9.0445,8.0099,0.0,6.445,5.8708,5.6314,5.5389,5.6014,5.8418,6.217,0.0,7.3292,8.0809,0.0,0.0,0.0,0.0,0.0,0.0,0.0,0.0,0.0,0.0,0.0,0.0,0.0,10.4798,10.388,10.388,10.2301,10.1494,10.1494,10.1494,10.1494,10.1384,9.9842,9.9071,9.8961,9.7419,9.5804,9.4299,0.0,0.0,0.0,9.217,9.2317,9.2941,9.1253,9.0115,8.9417,8.9344,8.8316,8.7105,0.0,0.0,0.0,0.0,0.0,0.0,4.0052,4.0778,4.3184,5.0171,5.0276,4.9434,4.8661,4.6765,4.3992,0.0,0.0,0.0,0.0,0.0,0.0,0.0,0.0,0.0,0.0,0.0,0.0,0.0,0.0,0.0,0.0,0.0,0.0,0.0,0.0,0.0,0.0,0.0,0.0,0.0,0.0,0.0,0.0,0.0,0.0,0.0,0.0,0.0,0.0,0.0,0.0,0.0,6.7768,7.7156,0.0,0.0,9.8447,10.2999,10.6596,10.8688,10.8725,10.4504,9.7089,8.857,7.9646,0.0,6.2862,5.8349,5.6132,5.5241,5.6095,5.7019,5.9276,6.4081,6.6555,7.147,8.1948,8.5441,9.0076,0.0,0.0,0.0,0.0,0.0,0.0,0.0,0.0,0.0,0.0,10.3806,10.3182,10.3182,10.2081,10.1494,10.1494,10.1494,10.1274,10.0796,9.9659,9.8851,9.83,9.6722,9.5364,9.4263,0.0,0.0,0.0,9.2354,9.2611,9.3639,9.1987,9.0849,9.0115,9.0115,8.9124,8.7766,0.0,0.0,0.0,0.0,0.0,3.5074,4.0856,4.1613,4.4027,5.0803,5.147,5.1049,5.0311,4.8135,4.508,4.1007,0.0,0.0,0.0,0.0,0.0,0.0,0.0,0.0,0.0,0.0,0.0,0.0,0.0,0.0,0.0,0.0,0.0,0.0,0.0,0.0,0.0,0.0,0.0,0.0,0.0,0.0,0.0,0.0,0.0,0.0,0.0,0.0,0.0,0.0,0.0,0.0,0.0,0.0,0.0,0.0,9.2941,9.8924,10.377,10.7073,10.8211,10.4173,9.6428,8.7684,0.0,7.0196,6.2549,5.8656,5.6543,5.5577,5.6209,5.6506,5.7617,6.0604,6.2077,6.6014,7.5043,7.8333,8.3382,0.0,0.0,0.0,0.0,0.0,0.0,0.0,0.0,0.0,0.0,10.2889,10.2485,10.2705,10.1898,10.1494,10.1494,10.1494,10.12,10.0613,9.9622,9.8814,9.819,9.6355,9.507,9.4263,0.0,0.0,0.0,9.2391,9.2648,9.3786,9.2354,9.1326,9.0592,9.0592,8.9601,8.8206,0.0,0.0,0.0,0.0,0.0,0.0,4.075,4.1613,4.3851,5.0066,5.0206,4.9434,4.8696,4.652,4.4764,4.3921,0.0,0.0,0.0,0.0,0.0,0.0,0.0,0.0,0.0,0.0,0.0,4.7701,0.0,0.0,0.0,0.0,0.0,0.0,0.0,0.0,0.0,0.0,0.0,0.0,0.0,0.0,5.0376,0.0,0.0,0.0,0.0,0.0,0.0,0.0,0.0,0.0,0.0,6.0174,6.4205,0.0,8.7316,9.808,9.8961,10.4504,10.8578,10.2889,9.6213,8.8341,7.8735,7.0338,6.3456,5.951,5.7398,5.6283,5.632,5.6952,5.7728,5.8418,6.18,6.7156,7.5169,7.968,0.0,0.0,0.0,0.0,0.0,0.0,0.0,0.0,0.0,0.0,0.0,10.2375,10.1898,10.2705,10.1898,10.1494,10.1494,10.1494,10.1494,10.1494,9.9879,9.9108,9.9035,9.6612,9.507,0.0,0.0,0.0,0.0,9.217,9.2317,9.3015,9.2134,9.1326,9.0592,9.0592,8.9601,8.8206,0.0,0.0,0.0,0.0,0.0,0.0,0.0,3.8515,4.0691,4.4834,4.5572,4.6063,4.6871,4.5361,4.4167,4.3921,0.0,0.0,0.0,0.0,0.0,0.0,0.0,0.0,0.0,0.0,0.0,4.9336,4.9076,4.9968,0.0,0.0,0.0,0.0,0.0,0.0,0.0,0.0,0.0,0.0,0.0,5.1231,5.1119,0.0,0.0,0.0,0.0,0.0,0.0,0.0,0.0,0.0,0.0,0.0,0.0,6.6421,7.628,8.6397,9.0,9.386,9.5919,9.2018,8.6421,8.0161,7.3942,6.7936,6.2549,5.8693,5.7472,5.6952,5.6395,5.6506,5.7802,6.1308,6.2928,6.5484,7.0661,0.0,0.0,0.0,0.0,0.0,0.0,0.0,0.0,0.0,0.0,0.0,0.0,0.0,10.1604,10.1898,10.1604,10.1494,10.1494,10.1494,10.0907,9.9842,9.9365,9.8521,9.7419,9.5547,0.0,0.0,0.0,0.0,0.0,9.217,9.2317,9.3015,9.2134,9.1657,9.1363,9.0812,8.9931,8.894,0.0,0.0,0.0,0.0,0.0,0.0,0.0,3.6865,3.869,4.1569,4.2306,4.343,4.5572,4.3886,4.3184,4.4659,0.0,0.0,0.0,0.0,0.0,0.0,0.0,0.0,0.0,4.6757,4.8196,5.038,5.0676,5.201,5.424,5.3348,5.2382,0.0,0.0,0.0,0.0,0.0,0.0,0.0,5.0562,5.0896,5.1008,0.0,0.0,0.0,0.0,0.0,0.0,0.0,0.0,0.0,0.0,0.0,0.0,0.0,6.6851,7.4253,8.1166,8.5698,8.7757,8.5013,8.0481,7.5527,7.0835,6.5952,6.1485,5.8174,5.7208,5.6837,5.6395,5.6243,5.739,6.0974,6.1781,6.3638,6.8415,0.0,0.0,0.0,0.0,0.0,0.0,0.0,0.0,0.0,0.0,0.0,0.0,0.0,10.1494,10.1494,10.1494,10.1494,10.1494,10.1494,10.0796,9.9548,9.9255,9.8411,9.7089,9.518,0.0,0.0,0.0,0.0,0.0,9.2024,9.2134,9.2574,9.2024,9.162,9.1253,9.0445,8.9638,8.883,0.0,0.0,0.0,0.0,0.0,0.0,0.0,0.0,3.7532,3.9779,4.013,4.1253,4.4202,4.2061,4.185,4.5431,0.0,0.0,0.0,0.0,0.0,0.0,0.0,0.0,0.0,4.5631,4.7183,5.0956,5.1805,5.3256,5.5391,5.684,5.5391,5.1565,5.1454,0.0,0.0,0.0,0.0,0.0,4.9819,5.0153,0.0,0.0,0.0,0.0,0.0,0.0,0.0,0.0,0.0,0.0,0.0,0.0,0.0,0.0,0.0,0.0,0.0,7.897,8.2655,8.0467,7.7186,7.3241,6.8652,6.4244,0.0,5.7918,5.6722,5.6162,5.6317,5.624,5.6677,5.8523,5.9398,6.2029,6.8378,7.5014,0.0,0.0,0.0,0.0,0.0,0.0,0.0,0.0,0.0,0.0,0.0,0.0,10.1494,10.1494,10.1494,10.1494,10.1494,10.1384,10.109,10.0393,9.9438,9.8668,9.7897,9.5437,0.0,0.0,0.0,0.0,0.0,9.1803,9.1803,9.1803,9.173,9.1253,9.0519,8.9638,8.8867,8.8096,0.0,0.0,0.0,0.0,0.0,0.0,0.0,0.0,0.0,0.0,3.6549,3.7426,3.876,3.9322,3.9954,0.0,0.0,0.0,0.0,0.0,0.0,0.0,0.0,0.0,0.0,4.5753,4.8605,5.2532,5.3539,5.5628,5.8735,5.7881,5.5986,5.32,5.1936,0.0,0.0,0.0,0.0,0.0,5.0042,5.0488,0.0,0.0,0.0,0.0,5.1602,5.2085,0.0,0.0,0.0,0.0,0.0,0.0,0.0,0.0,5.746,5.8671,6.1143,0.0,6.9045,6.8012,6.6963,6.5445,0.0,6.0907,0.0,0.0,0.0,0.0,0.0,5.6367,5.7248,6.1292,6.2187,6.4353,6.9982,0.0,0.0,0.0,0.0,0.0,0.0,0.0,0.0,0.0,0.0,0.0,0.0,0.0,10.1494,10.1494,10.1494,10.1494,10.1494,10.0907,10.0796,10.12,9.9145,9.8411,9.8741,9.5658,0.0,0.0,0.0,0.0,9.1803,9.1803,9.1803,9.173,9.1106,9.0776,9.0445,8.9014,8.8353,8.8096,0.0,0.0,0.0,0.0,0.0,0.0,0.0,0.0,0.0,0.0,0.0,0.0,0.0,0.0,0.0,0.0,0.0,0.0,0.0,0.0,0.0,0.0,0.0,0.0,4.4182,4.5704,4.829,5.1928,5.3653,5.6233,5.9546,5.9276,5.7617,5.4834,5.2085,0.0,0.0,0.0,0.0,4.9559,4.9559,0.0,0.0,0.0,0.0,0.0,5.0711,5.1379,0.0,5.2494,5.3683,5.4871,0.0,0.0,0.0,0.0,5.5387,5.5751,5.6121,5.9405,6.2687,6.2373,6.2003,6.1328,6.0092,0.0,0.0,0.0,0.0,0.0,0.0,0.0,0.0,6.1366,6.2999,6.692,0.0,0.0,0.0,0.0,0.0,0.0,0.0,0.0,0.0,0.0,0.0,0.0,0.0,0.0,10.1494,10.1494,10.109,10.109,10.1494,10.0686,10.0319,10.0393,9.8337,9.7383,9.7383,9.4887,0.0,0.0,0.0,0.0,9.1803,9.2565,9.2199,9.1253,9.1179,9.0482,8.9454,8.894,8.828,8.7582,0.0,0.0,0.0,0.0,0.0,0.0,0.0,0.0,0.0,0.0,0.0,0.0,0.0,0.0,0.0,0.0,0.0,0.0,0.0,0.0,0.0,0.0,0.0,4.5115,4.5115,4.5513,4.74,5.088,5.3263,5.6161,5.9504,6.0876,5.9647,5.6095,5.2271,4.9968,0.0,0.0,0.0,4.889,4.889,0.0,0.0,0.0,0.0,0.0,0.0,0.0,0.0,5.1974,5.3311,5.4463,5.3534,0.0,0.0,0.0,0.0,0.0,5.4973,5.7987,6.0692,6.0157,5.976,5.9316,5.9042,0.0,0.0,0.0,0.0,0.0,0.0,0.0,0.0,0.0,0.0,0.0,0.0,0.0,0.0,0.0,0.0,0.0,0.0,0.0,0.0,0.0,0.0,0.0,0.0,0.0,0.0,10.1494,10.0686,10.0613,10.1274,10.0393,9.9769,9.9438,9.7456,9.6282,9.5804,9.3969,9.3088,0.0,0.0,0.0,9.1913,9.3139,9.2479,9.0665,9.1216,9.0115,8.828,8.883,8.8169,8.6995,0.0,0.0,0.0,0.0,0.0,0.0,0.0,0.0,0.0,0.0,0.0,0.0,0.0,0.0,0.0,0.0,0.0,0.0,0.0,0.0,0.0,0.0,4.5431,4.5115,4.5115,4.527,4.7582,5.204,5.3961,5.6914,6.0781,6.2909,6.1098,5.601,5.3422,5.1008,4.889,0.0,0.0,4.889,4.889,0.0,0.0,0.0,0.0,0.0,0.0,0.0,0.0,5.045,5.1602,5.2717,5.1156,0.0,0.0,0.0,0.0,0.0,5.6158,5.9324,6.0969,5.7507,5.7617,5.8104,0.0,0.0,0.0,0.0,0.0,0.0,0.0,0.0,0.0,0.0,0.0,0.0,0.0,0.0,0.0,0.0,0.0,0.0,0.0,0.0,0.0,0.0,0.0,0.0,0.0,0.0,0.0,10.1494,10.0686,10.0393,10.0503,9.8998,9.9218,10.109,9.7419,9.6318,9.7419,9.4446,9.3088,0.0,0.0,9.2022,9.1803,9.2059,9.1544,9.0555,9.0005,8.9124,8.8133,8.7582,8.7215,8.6995,0.0,0.0,0.0,0.0,0.0,0.0,0.0,0.0,0.0,0.0,0.0,0.0,0.0,0.0,0.0,0.0,0.0,0.0,0.0,0.0,0.0,4.6189,4.6309,4.6344,4.6344,4.7497,4.9933,5.3799,5.684,5.9943,6.3088,6.2704,6.0004,5.5424,5.3013,5.0822,4.889,4.889,4.889,4.889,0.0,0.0,0.0,0.0,0.0,0.0,0.0,0.0,0.0,0.0,5.1194,5.2457,5.1603,0.0,0.0,0.0,0.0,0.0,5.4158,5.6626,5.8349,5.6866,5.9087,6.0794,0.0,0.0,0.0,0.0,0.0,0.0,0.0,0.0,0.0,0.0,0.0,0.0,0.0,0.0,0.0,0.0,0.0,0.0,0.0,0.0,0.0,0.0,0.0,0.0,0.0,0.0,0.0,0.0,10.0283,9.9879,10.0283,9.8264,9.8007,9.9512,9.6355,9.5254,9.5878,9.3492,9.2391,9.2391,0.0,9.2159,9.1839,9.1749,9.1016,8.9931,8.9564,8.8647,8.7509,8.7142,8.6995,8.6995,0.0,0.0,0.0,0.0,0.0,0.0,0.0,0.0,0.0,0.0,0.0,0.0,0.0,0.0,0.0,0.0,0.0,0.0,0.0,0.0,4.6028,4.6154,4.7151,4.7854,4.8205,4.9741,5.2355,5.6063,5.969,6.3,6.584,6.2889,5.9387,5.5426,5.3051,5.0822,4.889,4.889,4.889,4.889,0.0,0.0,0.0,0.0,0.0,0.0,0.0,0.0,0.0,0.0,0.0,0.0,0.0,0.0,0.0,5.2011,5.1602,5.1564,5.3302,5.5217,5.6983,5.7847,0.0,0.0,0.0,0.0,0.0,0.0,0.0,0.0,0.0,0.0,0.0,0.0,0.0,0.0,0.0,0.0,0.0,0.0,0.0,0.0,0.0,0.0,0.0,0.0,0.0,0.0,0.0,0.0,0.0,0.0,9.9842,9.9328,9.9732,9.7713,9.7089,9.786,9.5437,9.4299,9.4226,9.2574,9.1693,9.151,9.2072,9.1892,9.1252,9.1111,9.0304,8.9124,8.9124,8.828,8.6995,8.6995,8.6995,8.6995,0.0,0.0,0.0,0.0,0.0,0.0,0.0,0.0,0.0,0.0,0.0,0.0,0.0,0.0,0.0,0.0,0.0,0.0,0.0,0.0,4.5501,4.6204,4.7713,4.9188,5.0592,5.0786,5.3477,5.8898,6.1476,6.4766,6.8693,6.5075,6.1137,5.7047,5.4645,5.1862,4.889,4.889,4.889,4.889,4.889,0.0,0.0,0.0,0.0,0.0,0.0,0.0,0.0,0.0,0.0,0.0,0.0,0.0,5.0194,5.0194,5.0676,5.2155,5.6565,5.8481,5.9595,6.0908,0.0,0.0,0.0,0.0,0.0,0.0,0.0,0.0,0.0,0.0,0.0,0.0,0.0,0.0,0.0,0.0,0.0,0.0,0.0,0.0,0.0,0.0,0.0,0.0,0.0,0.0,0.0,0.0,0.0,0.0,0.0,9.8778,9.808,9.7163,9.7089,9.786,9.5437,9.4299,9.4226,9.2574,9.14,9.0702,9.0774,9.0333,8.9564,8.9598,8.9084,8.828,8.828,8.7766,8.6995,8.6995,8.6995,8.6995,0.0,0.0,0.0,0.0,0.0,0.0,0.0,0.0,0.0,0.0,0.0,0.0,0.0,0.0,0.0,0.0,0.0,0.0,0.0,0.0,4.5115,4.6871,4.7994,4.9082,5.0101,5.3471,5.7729,6.2933,6.6515,6.8275,6.8268,6.3955,5.9974,5.6455,5.3607,5.1639,5.0376,4.9336,4.9187,4.9596,4.9113,4.889,0.0,0.0,0.0,0.0,0.0,0.0,0.0,0.0,4.8892,4.9041,4.9972,5.0121,5.0195,5.1156,5.1266,5.1636,5.3961,5.6657,0.0,0.0,0.0,0.0,0.0,0.0,0.0,0.0,0.0,0.0,0.0,0.0,0.0,0.0,0.0,0.0,0.0,0.0,0.0,0.0,0.0,0.0,0.0,0.0,0.0,0.0,0.0,0.0,0.0,0.0,0.0,0.0,0.0,9.819,9.7897,9.6612,9.6098,9.6392,9.496,9.3749,9.2721,9.1583,9.0629,8.9858,8.9344,8.9234,8.9344,8.8353,8.8023,8.8133,8.7655,8.7288,8.6995,8.6995,8.6995,8.6995,0.0,0.0,0.0,0.0,0.0,0.0,0.0,0.0,0.0,0.0,0.0,0.0,0.0,0.0,0.0,0.0,0.0,0.0,0.0,4.3009,4.4483,4.659,4.7889,4.9047,5.003,5.5156,5.9962,6.4469,6.8933,6.9777,6.7053,6.2613,5.9085,5.6344,5.3199,5.1936,5.2048,5.0116,4.9596,5.0042,4.9224,4.8892,0.0,0.0,0.0,0.0,0.0,0.0,0.0,0.0,4.9043,4.9377,5.0158,5.0527,5.0823,5.1671,5.1708,5.1708,5.2782,5.4925,5.7063,0.0,0.0,0.0,0.0,0.0,0.0,0.0,0.0,0.0,0.0,0.0,0.0,0.0,0.0,0.0,0.0,0.0,0.0,0.0,0.0,0.0,0.0,0.0,0.0,0.0,0.0,0.0,0.0,0.0,0.0,0.0,0.0,0.0,9.7163,9.6061,9.5254,9.474,9.4189,9.3161,9.1767,9.0959,9.0041,8.9014,8.8426,8.839,8.8573,8.7472,8.7325,8.7766,8.7215,8.6995,8.6995,8.6995,8.6995,8.6995,0.0,0.0,0.0,0.0,0.0,0.0,0.0,0.0,0.0,0.0,0.0,0.0,0.0,0.0,0.0,0.0,0.0,0.0,0.0,4.192,4.3465,4.501,4.7257,4.9223,5.0803,5.5367,5.9455,6.2903,6.7854,6.8599,6.5322,6.1468,5.8826,5.7163,5.4016,5.3051,5.3645,5.1156,5.0116,5.0042,4.9224,4.8857,4.8787,0.0,0.0,0.0,0.0,0.0,0.0,0.0,4.9414,4.9861,4.9152,5.0417,5.1992,5.1337,5.1708,5.2629,5.4096,5.4072,0.0,0.0,0.0,0.0,0.0,0.0,0.0,0.0,0.0,0.0,0.0,0.0,0.0,0.0,0.0,0.0,0.0,0.0,0.0,0.0,0.0,0.0,0.0,0.0,0.0,0.0,0.0,0.0,0.0,0.0,0.0,0.0,0.0,0.0,9.5511,9.5474,9.4703,9.3088,9.3088,9.2611,9.173,9.0959,8.9711,8.8206,8.8206,8.7729,8.6995,8.6995,8.6995,8.6995,8.6995,8.6995,8.6995,8.6995,8.6995,8.6995,0.0,0.0,0.0,0.0,0.0,0.0,0.0,0.0,0.0,0.0,0.0,0.0,0.0,0.0,0.0,0.0,0.0,0.0,0.0,4.0411,4.1499,4.4132,4.5466,4.6344,4.68,5.1087,5.6684,6.3559,6.5221,6.402,6.0173,5.8732,5.6784,5.4593,5.3944,5.3404,5.2791,5.0448,4.9713,5.0079,4.9856,4.9711,4.9639,0.0,0.0,0.0,0.0,0.0,0.0,0.0,0.0,0.0,5.0895,5.2364,5.3718,5.3456,5.3566,5.3792,5.3686,5.5159,0.0,0.0,0.0,0.0,0.0,0.0,0.0,0.0,0.0,0.0,0.0,0.0,0.0,0.0,0.0,0.0,0.0,0.0,0.0,0.0,0.0,0.0,0.0,0.0,0.0,0.0,0.0,0.0,0.0,0.0,0.0,0.0,0.0,0.0,9.4666,9.4079,9.3565,9.3088,9.1913,9.0922,9.0115,8.9858,8.8904,8.7362,8.7362,8.7215,8.6995,8.6995,8.6995,8.6995,8.6995,8.6995,8.6995,8.6995,8.6995,8.6995,0.0,0.0,0.0,0.0,0.0,0.0,0.0,0.0,0.0,0.0,0.0,0.0,0.0,0.0,0.0,0.0,0.0,0.0,0.0,0.0,4.0551,4.3325,4.4202,4.5326,4.6856,5.0449,5.4421,5.8723,6.0392,5.9638,5.6729,5.7491,5.6846,5.5184,5.6662,5.6282,5.4387,5.237,5.1339,5.1045,5.0376,5.0267,5.0417,0.0,0.0,0.0,0.0,0.0,0.0,0.0,0.0,0.0,5.0929,5.225,5.364,5.4307,5.4228,5.4081,5.4686,0.0,0.0,0.0,0.0,0.0,0.0,0.0,0.0,0.0,0.0,0.0,0.0,0.0,0.0,0.0,0.0,0.0,0.0,0.0,0.0,0.0,0.0,0.0,0.0,0.0,0.0,0.0,0.0,0.0,0.0,0.0,0.0,0.0,0.0,0.0,9.3822,9.3015,9.2427,9.2097,9.0776,8.9711,8.894,8.894,8.8243,8.6995,8.6995,8.6995,8.6995,8.6995,8.6995,8.6995,8.6995,8.6995,8.6995,8.6995,8.6995,8.6995,0.0,0.0,0.0,0.0,0.0,0.0,0.0,0.0,0.0,0.0,0.0,0.0,0.0,0.0,0.0,0.0,0.0,0.0,0.0,0.0,4.0305,4.2587,4.3676,4.5839,4.9345,5.1741,5.2219,5.0682,5.4277,5.5461,5.4363,5.7037,5.7947,5.7543,6.0434,6.0085,5.7175,5.5238,5.3644,5.2159,5.0785,5.0527,5.0933,5.0268,0.0,0.0,0.0,0.0,0.0,0.0,0.0,0.0,5.0082,5.1146,5.2642,5.4211,5.4137,5.4018,5.6319,0.0,0.0,0.0,0.0,0.0,0.0,0.0,0.0,0.0,0.0,0.0,0.0,0.0,0.0,0.0,0.0,0.0,0.0,0.0,0.0,0.0,0.0,0.0,0.0,0.0,0.0,0.0,0.0,0.0,0.0,0.0,0.0,0.0,0.0,0.0,9.2868,9.2097,9.1289,0.0,8.9711,8.8904,8.8206,8.8206,8.7766,8.6995,8.6995,8.6995,8.6995,8.6995,8.6995,8.6995,8.6995,8.6995,8.6995,8.6995,8.6995,8.6995,0.0,0.0,0.0,0.0,0.0,0.0,0.0,0.0,0.0,0.0,0.0,0.0,0.0,0.0,0.0,0.0,0.0,0.0,0.0,0.0,4.0095,4.178,4.494,4.7277,4.8522,4.7962,4.7869,4.8267,5.0695,5.137,5.0474,5.4168,5.5796,5.5816,5.7606,5.7353,5.5315,5.1765,5.0078,4.9782,5.0602,5.0676,5.0306,5.0712,5.0379,0.0,0.0,0.0,0.0,0.0,0.0,0.0,5.218,5.3608,5.481,5.4607,5.4822,5.511,0.0,0.0,0.0,0.0,0.0,0.0,0.0,0.0,0.0,0.0,0.0,0.0,0.0,0.0,0.0,0.0,0.0,0.0,0.0,0.0,0.0,0.0,0.0,0.0,0.0,0.0,0.0,0.0,0.0,0.0,0.0,0.0,0.0,0.0,0.0,9.2648,9.1143,9.0959,9.0445,0.0,8.883,8.839,8.8206,8.8206,8.7766,8.6995,8.6995,8.6995,8.6995,8.6995,8.6995,8.6995,8.6995,8.6995,8.6995,8.6995,8.6995,8.6995,0.0,0.0,0.0,0.0,0.0,0.0,0.0,0.0,0.0,0.0,0.0,0.0,0.0,0.0,0.0,0.0,0.0,0.0,0.0,0.0,0.0,4.2587,4.5712,4.7296,4.7125,4.6758,4.6549,4.6498,4.7674,0.0,0.0,0.0,5.5799,5.6019,5.8446,5.7847,5.4869,5.2736,5.1374,5.0711,5.112,5.1232,5.112,5.0675,5.0009,4.9233,4.8753,0.0,0.0,0.0,0.0,0.0,0.0,0.0,5.4038,5.4859,5.5073,5.5471,0.0,0.0,0.0,0.0,0.0,0.0,0.0,0.0,0.0,0.0,0.0,0.0,0.0,0.0,0.0,0.0,0.0,0.0,0.0,0.0,0.0,0.0,0.0,0.0,0.0,0.0,0.0,0.0,0.0,0.0,0.0,0.0,0.0,0.0,9.2464,9.1877,9.0629,9.0225,8.9638,8.883,8.8023,8.7619,8.7619,8.7619,8.7399,8.6995,8.6995,8.6995,8.6995,8.6995,8.6995,8.6995,8.6995,8.6995,8.6995,8.6995,8.6995,8.6995,0.0,0.0,0.0,0.0,0.0,0.0,0.0,0.0,0.0,0.0,0.0,0.0,0.0,0.0,0.0,0.0,0.0,0.0,0.0,0.0,0.0,0.0,4.6133,4.686,4.6221,4.6723,4.6534,4.563,0.0,0.0,0.0,0.0,0.0,5.6644,5.9115,5.8349,5.5129,5.4197,5.3159,5.2122,5.1417,5.1491,5.1862,5.0417,4.9307,4.8569,4.8569,4.8605,4.879,4.9676,0.0,0.0,0.0,0.0,5.2642,5.4754,5.489,5.5324,0.0,0.0,0.0,0.0,0.0,0.0,0.0,0.0,0.0,0.0,0.0,0.0,0.0,0.0,0.0,0.0,0.0,0.0,0.0,0.0,0.0,0.0,0.0,0.0,0.0,0.0,0.0,0.0,0.0,0.0,0.0,0.0,9.1803,9.1803,9.1657,9.1216,9.0408,8.9601,8.8793,8.7986,8.7325,8.6995,8.6995,8.6995,8.6995,8.6995,8.6995,8.6995,8.6995,8.6995,8.6995,8.6995,8.6995,8.6995,8.6995,8.6995,8.6995,8.6995,0.0,0.0,0.0,0.0,0.0,0.0,0.0,0.0,0.0,0.0,0.0,0.0,0.0,0.0,0.0,0.0,0.0,0.0,0.0,0.0,0.0,4.5747,4.6055,4.6688,4.7752,4.6707,4.6256,4.6458,0.0,0.0,0.0,0.0,0.0,5.5794,0.0,0.0,5.5677,5.1304,4.9861,5.045,5.0231,5.0268,5.0377,4.9973,4.9381,4.8822,4.8606,4.8642,4.8973,5.0302,5.0818,0.0,0.0,0.0,5.3166,5.3539,5.4007,5.4589,0.0,0.0,0.0,0.0,0.0,0.0,0.0,0.0,0.0,0.0,0.0,0.0,0.0,0.0,0.0,0.0,0.0,0.0,0.0,0.0,0.0,0.0,0.0,0.0,0.0,0.0,0.0,0.0,0.0,0.0,0.0,9.1803,9.1803,9.1803,9.1106,9.0372,8.9601,8.8757,8.7949,8.7178,8.7068,8.6995,8.6995,8.6995,8.6995,8.6995,8.6995,8.6995,8.6995,8.6995,8.6995,8.6995,8.6995,8.6995,8.6995,8.6995,8.6995,8.6995,0.0,0.0,0.0,0.0,0.0,0.0,0.0,0.0,0.0,0.0,0.0,0.0,0.0,0.0,0.0,0.0,0.0,0.0,0.0,0.0,0.0,4.5466,4.546,4.58,4.6813,4.6202,4.5701,0.0,0.0,0.0,0.0,4.9641,5.2945,0.0,0.0,0.0,0.0,5.1698,5.0376,5.138,5.1454,5.1491,5.138,5.0343,4.975,4.9415,4.879,4.8605,4.8937,5.0488,5.1042,5.1376,5.2924,0.0,0.0,0.0,0.0,0.0,0.0,0.0,0.0,0.0,0.0,0.0,0.0,0.0,0.0,0.0,0.0,0.0,0.0,0.0,0.0,0.0,0.0,0.0,0.0,0.0,0.0,0.0,0.0,0.0,0.0,0.0,0.0,0.0,0.0,0.0,9.1803,9.1803,9.1583,9.1143,9.0776,9.0005,8.8757,8.839,8.7802,8.6995,8.6995,8.6995,8.6995,8.6995,8.6995,8.6995,8.6995,8.6995,8.6995,8.6995,8.6995,8.6995,8.6995,8.6995,8.6995,8.6995,8.6995,8.6995,0.0,0.0,0.0,0.0,0.0,0.0,0.0,0.0,0.0,0.0,0.0,0.0,0.0,0.0,0.0,0.0,0.0,0.0,0.0,0.0,0.0,4.4694,4.483,4.5222,4.5803,4.5787,0.0,0.0,0.0,0.0,4.7684,4.9373,5.3258,0.0,5.3914,0.0,0.0,0.0,0.0,5.2264,5.1896,5.2084,5.2345,5.0861,5.0121,4.9861,4.9159,0.0,0.0,0.0,0.0,0.0,0.0,0.0,0.0,0.0,0.0,0.0,0.0,0.0,0.0,0.0,0.0,0.0,0.0,0.0,0.0,0.0,0.0,0.0,0.0,0.0,0.0,0.0,0.0,0.0,0.0,0.0,0.0,0.0,0.0,0.0,0.0,0.0,0.0,0.0,0.0,0.0,9.151,9.151,9.1143,9.0335,9.0115,8.9417,8.8206,8.7986,8.7582,8.6995,8.6995,8.6995,8.6995,8.6995,8.6995,8.6995,8.6995,8.6995,8.6995,8.6995,8.6995,8.6995,8.6995,8.6995,8.6995,8.6995,8.6995,8.6995,0.0,0.0,0.0,0.0,0.0,0.0,0.0,0.0,0.0,0.0,0.0,0.0,0.0,0.0,0.0,4.0453,0.0,0.0,0.0,0.0,0.0,4.3886,4.455,0.0,4.5803,4.5787,0.0,0.0,0.0,0.0,5.3122,5.0589,5.3667,6.1315,5.6413,5.3135,5.1375,0.0,0.0,0.0,0.0,5.0628,5.2305,5.1377,0.0,0.0,0.0,0.0,0.0,0.0,0.0,0.0,0.0,0.0,0.0,0.0,0.0,0.0,0.0,0.0,0.0,0.0,0.0,0.0,0.0,0.0,0.0,0.0,0.0,0.0,0.0,0.0,0.0,0.0,0.0,0.0,0.0,0.0,0.0,0.0,0.0,0.0,0.0,0.0,0.0,0.0,0.0,9.1473,9.0702,9.0665,9.0298,8.9491,8.872,8.828,8.8206,8.7435,8.7031,8.6995,8.6995,8.6995,8.6995,8.6995,8.6995,8.6995,8.6995,8.6995,8.6995,8.6995,8.6995,8.6995,8.6995,8.6995,8.6995,8.6995,8.6995,8.6995,0.0,0.0,0.0,0.0,0.0,0.0,0.0,0.0,0.0,0.0,0.0,0.0,0.0,4.2879,4.2316,4.1288,4.0937,0.0,0.0,0.0,0.0,4.371,4.4321,4.5022,4.5752,0.0,0.0,0.0,0.0,4.7891,4.8917,5.2021,5.4985,5.7495,5.2747,5.2036,5.4168,5.1066,0.0,0.0,0.0,0.0,0.0,0.0,0.0,0.0,0.0,0.0,0.0,0.0,0.0,0.0,0.0,0.0,0.0,0.0,0.0,0.0,0.0,0.0,0.0,0.0,0.0,0.0,0.0,0.0,0.0,0.0,0.0,0.0,0.0,0.0,0.0,0.0,0.0,0.0,0.0,0.0,0.0,0.0,0.0,0.0,0.0,0.0,0.0,0.0,0.0,0.0,9.0629,9.0463,8.9867,8.8647,8.8353,8.7949,8.7435,8.7142,8.6995,8.6995,8.6995,8.6995,8.6995,8.6995,8.6995,8.6995,8.6995,8.6995,8.6995,8.6995,8.6995,8.6995,8.6995,8.6995,8.6995,8.6995,8.6995,8.6995,0.0,0.0,0.0,0.0,0.0,0.0,0.0,0.0,0.0,0.0,0.0,0.0,0.0,0.0,4.3734,4.2437,4.2286,4.224,4.2195,4.2882,4.3498,4.3986,4.4605,4.5164,4.5701,0.0,0.0,0.0,0.0,0.0,0.0,5.1883,5.4528,5.632,5.1515,5.1794,0.0,0.0,0.0,5.2704,0.0,0.0,5.2385,0.0,0.0,0.0,0.0,0.0,0.0,0.0,0.0,0.0,0.0,0.0,0.0,0.0,0.0,0.0,0.0,0.0,0.0,0.0,0.0,0.0,0.0,0.0,0.0,0.0,0.0,0.0,0.0,0.0,0.0,0.0,0.0,0.0,0.0,0.0,0.0,0.0,0.0,0.0,0.0,0.0,0.0,0.0,0.0,0.0,9.0225,8.983,8.9018,8.7839,8.7802,8.7545,8.7031,8.6995,8.6995,8.6995,8.6995,8.6995,8.6995,8.6995,8.6995,8.6995,8.6995,8.6995,8.6995,8.6995,8.6995,8.6995,8.6995,8.6995,8.6995,8.6995,8.6995,8.6995,0.0,0.0,0.0,0.0,0.0,0.0,0.0,0.0,0.0,0.0,0.0,0.0,0.0,0.0,0.0,4.3803,4.3589,4.3589,4.3663,4.4321,4.4689,4.4689,0.0,0.0,0.0,0.0,0.0,0.0,0.0,0.0,0.0,0.0,5.2344,5.8346,5.3279,5.2579,5.5098,0.0,5.3182,5.1884,0.0,5.1746,5.2781,0.0,0.0,0.0,5.2215,5.29,0.0,0.0,0.0,0.0,0.0,0.0,0.0,0.0,0.0,0.0,0.0,0.0,0.0,0.0,0.0,0.0,0.0,0.0,0.0,0.0,0.0,0.0,0.0,0.0,0.0,0.0,0.0,0.0,0.0,0.0,0.0,0.0,0.0,0.0,0.0,0.0,0.0,0.0,0.0,9.0188,8.9417,8.861,8.7802,8.7031,8.6995,8.6995,8.6995,8.6995,8.6995,8.6995,8.6995,8.6995,8.6995,8.6995,8.6995,8.6995,8.6995,8.6995,8.6995,8.6995,8.6995,8.6995,8.6995,8.6995,8.6995,8.6995,8.6995,8.6995,0.0,0.0,0.0,0.0,0.0,0.0,0.0,0.0,0.0,0.0,0.0,0.0,0.0,0.0,4.4669,4.446,4.4376,4.384,4.268,4.3811,4.4331,4.3791,4.4888,4.5805,0.0,0.0,0.0,0.0,0.0,0.0,0.0,0.0,0.0,0.0,5.5145,5.4907,5.6472,5.235,0.0,0.0,5.1802,5.2918,0.0,0.0,0.0,0.0,0.0,5.4775,0.0,0.0,5.3377,5.4293,0.0,0.0,0.0,0.0,0.0,0.0,5.3013,0.0,0.0,0.0,0.0,0.0,6.7649,6.8394,0.0,0.0,0.0,0.0,0.0,0.0,0.0,0.0,0.0,0.0,0.0,0.0,0.0,0.0,0.0,0.0,0.0,0.0,0.0,0.0,8.9609,8.9233,8.8536,8.7766,8.7252,8.7031,8.6995,8.6995,8.6995,8.6995,8.6995,8.6995,8.6995,8.6995,8.6995,8.6995,8.6995,8.6995,8.6995,8.6995,8.6995,8.6995,8.6995,8.6995,8.6995,8.6995,8.6995,8.6995,8.6995,8.6995,0.0,0.0,0.0,0.0,0.0,0.0,4.5676,0.0,0.0,0.0,0.0,0.0,0.0,0.0,0.0,4.5631,4.5511,4.4939,4.3727,4.4438,4.4664,4.4215,4.5338,4.6148,4.6704,0.0,0.0,0.0,0.0,0.0,0.0,0.0,0.0,0.0,0.0,0.0,0.0,0.0,0.0,0.0,5.251,0.0,0.0,5.4265,5.5279,0.0,0.0,0.0,5.7291,5.5385,5.5285,0.0,0.0,0.0,0.0,0.0,0.0,0.0,0.0,0.0,0.0,0.0,0.0,0.0,6.3751,6.5308,6.7426,0.0,0.0,0.0,0.0,0.0,0.0,0.0,0.0,0.0,0.0,0.0,0.0,0.0,0.0,0.0,0.0,0.0,0.0,8.8904,8.8803,8.8398,8.7729,8.7252,8.6995,8.6995,8.6995,8.6995,8.6995,8.6995,8.6995,8.6995,8.6995,8.6995,8.6995,8.6995,8.6995,8.6995,8.6995,8.6995,8.6995,8.6995,8.6995,8.6995,8.6995,8.6995,8.6995,8.6995,8.6995,8.6995,0.0,0.0,0.0,4.7819,4.7435,4.6945,4.6373,0.0,0.0,0.0,0.0,0.0,0.0,0.0,0.0,0.0,4.6965,4.6462,4.5719,4.5598,4.5511,4.5338,4.622,4.665,4.6596,4.7424,0.0,0.0,0.0,0.0,0.0,0.0,0.0,0.0,0.0,0.0,0.0,0.0,0.0,5.2197,5.3171,5.3603,0.0,0.0,5.5728,0.0,5.5425,5.6061,5.7788,5.7579,5.779,0.0,0.0,0.0,0.0,0.0,5.6043,0.0,0.0,0.0,0.0,0.0,0.0,0.0,6.3149,6.5014,6.6507,0.0,0.0,0.0,0.0,0.0,0.0,0.0,0.0,0.0,0.0,0.0,0.0,0.0,0.0,0.0,0.0,8.7655,8.8059,8.8059,8.8059,8.7766,8.7031,8.6995,8.6995,8.6995,8.6995,8.6995,8.6995,8.6995,8.6995,8.6995,8.6995,8.6995,8.6995,8.6995,8.6995,8.6995,8.6995,8.6995,8.6995,8.6995,8.6995,8.6995,8.6995,8.6995,8.6995,8.6995,8.6995,8.6995,4.8306,0.0,4.8373,4.9069,4.8774,4.88,4.9965,0.0,0.0,0.0,0.0,0.0,0.0,0.0,0.0,0.0,4.8785,4.749,4.6175,4.6411,4.6141,4.511,4.644,4.7004,4.6596,4.7907,4.8058,0.0,0.0,0.0,0.0,0.0,0.0,0.0,0.0,0.0,0.0,0.0,0.0,5.3572,5.3339,0.0,5.8119,5.59,5.7189,5.9937,5.8015,5.8553,6.0186,0.0,5.9502,5.9469,0.0,0.0,0.0,0.0,0.0,0.0,0.0,0.0,0.0,0.0,0.0,0.0,5.7584,5.8396,6.0322,0.0,0.0,0.0,0.0,0.0,0.0,0.0,0.0,0.0,0.0,0.0,0.0,0.0,0.0,0.0,0.0,8.7142,8.7252,8.7252,8.7252,8.7178,8.7031,8.6995,8.6995,8.6995,8.6995,8.6995,8.6995,8.6995,8.6995,8.6995,8.6995,8.6995,8.6995,8.6995,8.6995,8.6995,8.6995,8.6995,8.6995,8.6995,8.6995,8.6995,8.6995,8.6995,8.6995,8.6995,8.6995,8.6995,4.8306,0.0,0.0,4.9444,4.9395,4.9742,5.1347,5.0909,0.0,0.0,0.0,0.0,0.0,0.0,0.0,0.0,0.0,0.0,0.0,0.0,4.7048,4.5953,4.705,4.7717,4.7889,4.8609,4.894,4.8856,0.0,0.0,0.0,0.0,0.0,0.0,0.0,0.0,0.0,0.0,5.2914,5.3417,5.3845,0.0,5.8681,5.7011,5.7927,5.9979,5.897,5.9547,6.1062,6.242,6.2162,0.0,0.0,6.1031,5.9716,0.0,5.7678,5.6995,0.0,0.0,0.0,5.683,0.0,0.0,0.0,5.7554,5.9296,6.2401,0.0,0.0,0.0,0.0,0.0,0.0,0.0,0.0,0.0,0.0,0.0,0.0,0.0,0.0,0.0,8.6995,8.6995,8.6995,8.6995,8.6995,8.6995,8.6995,8.6995,8.6995,8.6995,8.6995,8.6995,8.6995,8.6995,8.6995,8.6995,8.6995,8.6995,8.6995,8.6995,8.6995,8.6995,8.6995,8.6995,8.6995,8.6995,8.6995,8.6995,8.6995,8.6995,8.6995,8.6995,8.6995,4.8306,0.0,0.0,4.9446,4.974,5.0401,5.1977,5.2087,0.0,0.0,0.0,0.0,0.0,0.0,0.0,0.0,0.0,0.0,0.0,0.0,0.0,4.7491,4.8386,4.8912,4.8996,4.9412,4.9781,5.0068,0.0,0.0,0.0,0.0,0.0,0.0,0.0,0.0,0.0,0.0,0.0,5.3818,0.0,5.6205,5.7621,5.762,5.8231,5.9114,5.9403,6.0232,6.1697,6.4494,0.0,6.3364,6.515,6.4339,0.0,0.0,0.0,0.0,0.0,0.0,0.0,0.0,0.0,5.7271,0.0,0.0,0.0,6.1365,0.0,0.0,0.0,0.0,0.0,0.0,0.0,0.0,0.0,0.0,0.0,0.0,0.0,0.0,0.0,8.6207,8.6549,8.6958,8.6995,8.6995,8.6995,8.6995,8.6995,8.6995,8.6995,8.6995,8.6995,8.6995,8.6995,8.6995,8.6995,8.6995,8.6995,8.6995,8.6995,8.6995,8.6995,8.6995,8.6995,8.6995,8.6995,8.6995,8.6995,8.6995,8.6995,8.6995,8.6995,8.6995,4.8382,4.8458,0.0,0.0,5.0262,5.1332,5.2821,5.2454,0.0,0.0,0.0,0.0,0.0,0.0,0.0,0.0,0.0,0.0,5.5921,0.0,0.0,4.9611,5.1085,5.0757,4.8293,5.0245,5.0546,4.8952,4.9712,0.0,0.0,0.0,0.0,0.0,5.3188,0.0,0.0,0.0,5.5231,0.0,5.6998,5.6631,0.0,5.7406,5.8035,5.8694,6.0105,6.1589,6.3057,0.0,6.4746,6.5422,0.0,6.5778,0.0,0.0,0.0,0.0,0.0,0.0,0.0,0.0,6.1605,0.0,0.0,0.0,5.8755,5.614,0.0,0.0,0.0,0.0,0.0,0.0,0.0,0.0,0.0,0.0,0.0,0.0,0.0,0.0,0.0,0.0,8.5106,8.6848,8.6995,8.6995,8.6995,8.6995,8.6995,8.6995,8.6995,8.6995,8.6995,8.6995,8.6995,8.6995,8.6995,8.6995,8.6995,8.6995,8.6995,8.6995,8.6995,8.6995,8.6995,8.6995,8.6995,8.6995,8.6995,8.6995,8.6995,8.6995,8.6995,8.6995,4.8678,4.8975,0.0,0.0,5.1035,5.1948,5.3041,5.4913,0.0,0.0,0.0,0.0,0.0,0.0,0.0,0.0,0.0,0.0,0.0,0.0,0.0,0.0,0.0,0.0,5.041,5.0875,5.1173,5.1317,5.1207,5.17,0.0,0.0,0.0,0.0,5.3004,0.0,5.3047,0.0,0.0,0.0,0.0,0.0,0.0,5.9042,6.0106,6.1516,6.3748,6.4385,6.464,0.0,6.8108,0.0,0.0,0.0,0.0,0.0,0.0,0.0,0.0,0.0,0.0,0.0,0.0,0.0,0.0,0.0,5.6862,0.0,0.0,0.0,0.0,0.0,0.0,0.0,0.0,0.0,0.0,0.0,0.0,0.0,0.0,0.0,0.0,0.0,0.0,0.0,0.0,8.3861,8.3851,8.5845,8.6995,8.6995,8.6995,8.6995,8.6995,8.6995,8.6995,8.6995,8.6995,8.6995,8.6995,8.6995,8.6995,8.6995,8.6995,8.6995,8.6995,8.6995,8.6995,8.6995,8.6995,8.6995,8.6995,8.6995,8.6995,8.6995,4.966,0.0,0.0,0.0,0.0,5.2294,5.3419,5.5919,0.0,0.0,0.0,0.0,6.2842,6.3051,0.0,0.0,0.0,6.1014,0.0,0.0,5.4216,0.0,0.0,0.0,0.0,0.0,5.194,5.2858,5.227,5.2417,0.0,0.0,0.0,0.0,0.0,5.4019,5.4407,0.0,0.0,5.8178,6.0368,6.124,6.122,6.1208,6.2221,6.3856,6.5823,6.5934,6.5842,7.0212,6.9888,0.0,7.0914,0.0,0.0,0.0,0.0,0.0,6.7458,0.0,0.0,0.0,0.0,0.0,0.0,0.0,0.0,0.0,0.0,0.0,0.0,0.0,0.0,0.0,0.0,0.0,0.0,0.0,0.0,0.0,0.0,0.0,0.0,0.0,0.0,7.9891,8.0733,8.1266,8.157,8.5022,8.6995,8.6995,8.6995,8.6995,8.6995,8.6995,8.6995,8.6995,8.6995,8.6995,8.6995,8.6995,8.6995,8.6995,8.6995,8.6995,8.6995,8.6995,8.6995,8.6995,8.6995,8.6995,8.6995,8.6995,8.6995,8.6995,5.1635,5.038,0.0,0.0,0.0,0.0,0.0,0.0,0.0,0.0,0.0,0.0,0.0,0.0,0.0,0.0,0.0,6.5829,6.633,0.0,5.6455,0.0,0.0,0.0,0.0,0.0,0.0,5.205,5.2013,0.0,0.0,0.0,0.0,0.0,0.0,5.6337,5.77,5.8361,5.9925,6.2003,6.1987,6.2875,6.4199,0.0,6.3821,6.4548,6.462,0.0,0.0,6.7694,6.8399,0.0,0.0,0.0,0.0,0.0,0.0,0.0,0.0,0.0,0.0,6.6953,0.0,0.0,0.0,0.0,6.0791,0.0,0.0,0.0,0.0,0.0,0.0,0.0,0.0,0.0,0.0,0.0,0.0,0.0,0.0,0.0,0.0,0.0,0.0,7.6223,7.8701,8.0614,8.1427,8.4993,8.6995,8.6995,8.6995,8.6995,8.6995,8.6995,8.6995,8.6995,8.6995,8.6995,8.6995,8.6995,8.6995,8.6995,8.6995,8.6995,8.6995,8.6995,8.6995,8.6995,8.6995,8.6995,8.6995,8.6995,8.6995,8.6995,0.0,0.0,0.0,0.0,0.0,0.0,0.0,5.6657,0.0,0.0,0.0,0.0,0.0,0.0,7.6659,0.0,0.0,7.254,7.0035,6.5426,0.0,0.0,0.0,5.6822,0.0,0.0,0.0,0.0,0.0,0.0,0.0,0.0,0.0,0.0,0.0,5.5346,0.0,0.0,0.0,0.0,0.0,6.6271,6.747,0.0,0.0,6.5551,6.5551,6.6592,0.0,7.011,7.0565,7.0881,7.3461,7.3162,7.215,7.3912,7.3795,0.0,0.0,0.0,7.4974,7.3582,0.0,0.0,0.0,0.0,0.0,0.0,0.0,0.0,0.0,0.0,0.0,5.5894,5.5616,0.0,0.0,0.0,0.0,0.0,0.0,0.0,0.0,0.0,0.0,7.0586,7.1107,7.2134,0.0,8.0073,8.3345,8.3345,8.5735,8.6995,8.6995,8.6995,8.6995,8.6995,8.6995,8.6995,8.6995,8.6995,8.6995,8.6995,8.6995,8.6995,8.6995,8.6995,8.6995,8.6995,8.6995,8.6995,8.6995,8.6995,8.6995,8.6995,5.2326,0.0,0.0,0.0,0.0,0.0,0.0,0.0,0.0,0.0,7.1606,0.0,8.139,0.0,8.2867,0.0,8.2116,7.875,7.2429,7.075,0.0,6.3934,6.2413,0.0,0.0,0.0,0.0,0.0,0.0,5.4283,0.0,0.0,0.0,0.0,0.0,0.0,5.6429,0.0,6.0049,0.0,0.0,6.8182,0.0,0.0,6.6692,6.6846,0.0,6.7945,6.9577,7.1263,7.1765,7.2112,7.433,7.4035,7.324,7.4831,7.4531,7.4014,7.5367,7.6162,0.0,7.6116,7.3369,0.0,7.0165,0.0,0.0,0.0,0.0,0.0,0.0,0.0,0.0,5.6974,5.5678,5.4427,0.0,5.257,0.0,0.0,0.0,0.0,0.0,0.0,6.3086,6.4219,6.5494,6.7105,0.0,0.0,8.1168,8.1464,8.5066,8.6995,8.6995,8.6995,8.6995,8.6995,8.6995,8.6995,8.6995,8.6995,8.6995,8.6995,8.6995,8.6995,8.6995,8.6995,8.6995,8.6995,8.6995,8.6995,8.6995,8.6995,8.6995,8.6995,0.0,0.0,0.0,0.0,5.5132,0.0,0.0,0.0,6.7244,0.0,7.4236,7.9611,8.5113,8.666,8.7861,8.9155,8.8741,0.0,7.4386,7.6773,0.0,0.0,6.6963,6.737,6.4709,0.0,0.0,0.0,0.0,0.0,0.0,0.0,0.0,0.0,5.5684,0.0,5.806,6.1076,6.2907,6.4074,6.7113,6.8704,6.9346,7.0266,0.0,6.8487,6.845,6.9189,7.0293,7.1101,7.1908,7.2716,7.356,7.4331,7.5139,7.5983,7.6203,7.6387,7.7231,7.8038,7.7928,7.4808,0.0,0.0,0.0,0.0,7.4113,0.0,0.0,0.0,0.0,0.0,0.0,5.8424,5.6171,5.4048,0.0,0.0,0.0,0.0,0.0,0.0,0.0,6.2372,6.2749,5.7655,6.2033,6.5486,0.0,0.0,8.0267,8.1501,8.4911,8.6843,8.6995,8.6921,8.6921,8.6995,8.6995,8.6995,8.6995,8.6995,8.6995,8.6995,8.6995,8.6995,8.6995,8.6995,8.6995,8.6995,8.6995,8.6995,8.6995,8.6995,8.6995,8.6995,5.4975,5.5948,5.6515,0.0,5.5436,5.5544,0.0,0.0,0.0,0.0,8.0971,8.6645,9.2412,9.3128,9.3099,9.2914,9.1641,0.0,0.0,0.0,0.0,7.6011,7.3276,7.1152,6.9757,6.6367,0.0,6.1638,0.0,0.0,5.6227,0.0,0.0,0.0,0.0,0.0,5.6319,5.9967,6.3274,6.6385,6.9705,7.0374,0.0,0.0,7.0956,7.0091,6.9508,7.001,7.1138,7.1945,7.2716,7.3634,7.5028,7.5616,7.6093,7.7524,7.7965,7.8112,7.8919,7.9323,7.9433,7.9176,7.7275,7.5328,0.0,0.0,0.0,0.0,0.0,0.0,0.0,0.0,0.0,0.0,5.8212,5.4238,0.0,0.0,0.0,5.4503,0.0,0.0,5.5943,5.691,5.6992,5.564,5.7402,0.0,0.0,0.0,0.0,8.219,8.2408,8.3892,8.6958,8.6082,8.6082,8.6995,8.6995,8.6995,8.6995,8.6995,8.6995,8.6995,8.6995,8.6995,8.6995,8.6995,8.6995,8.6995,8.6995,8.6995,8.6995,8.6995,8.6995,8.6995,5.4862,0.0,0.0,5.9027,0.0,0.0,6.2575,0.0,0.0,7.731,8.3372,0.0,9.2513,9.5061,9.5997,9.4808,9.4272,0.0,0.0,0.0,0.0,8.0067,7.8368,7.6533,7.4366,7.0766,0.0,6.5167,0.0,0.0,5.7485,5.4606,0.0,0.0,0.0,5.575,0.0,6.0478,6.4239,6.7629,6.9914,0.0,0.0,7.1332,7.1672,7.1258,7.088,7.1479,7.2422,7.2863,7.378,7.4918,7.5799,7.6607,7.7378,7.8332,7.8846,7.9213,7.9653,8.0057,8.0424,8.0901,7.9632,7.8565,7.9412,7.9431,7.8887,0.0,0.0,0.0,0.0,0.0,0.0,0.0,0.0,0.0,0.0,0.0,0.0,0.0,5.7073,0.0,5.4663,5.5034,5.4996,5.3897,5.5981,0.0,0.0,0.0,0.0,7.7771,8.1752,8.4174,8.4865,8.4953,8.5386,8.6229,8.6229,8.6501,8.6995,8.6995,8.6995,8.6995,8.6995,8.6995,8.6995,8.6995,8.6995,8.6995,8.6995,8.6995,8.6995,8.6995,8.6995,8.6995,0.0,0.0,0.0,0.0,0.0,0.0,0.0,6.9729,0.0,7.8518,0.0,8.9014,9.0302,9.4883,9.7297,9.5916,0.0,9.3797,8.6029,8.9943,8.8884,8.065,8.2458,8.1991,7.8396,7.5144,0.0,0.0,0.0,6.0162,5.8896,5.5001,0.0,0.0,0.0,0.0,0.0,6.1792,6.5274,6.8114,6.9031,6.983,7.0506,7.1466,7.1915,7.2048,7.235,7.3003,7.3707,7.3817,7.4845,7.613,7.624,7.7341,7.8626,7.8736,7.9323,7.9984,8.0094,8.0608,8.1195,8.1305,8.1856,8.2553,8.3398,8.3581,8.3765,8.4462,8.4682,8.4007,0.0,0.0,0.0,0.0,0.0,0.0,0.0,0.0,0.0,0.0,0.0,0.0,0.0,5.5223,5.5034,0.0,0.0,0.0,0.0,0.0,0.0,7.2612,8.1345,0.0,8.2501,0.0,8.4823,8.5445,8.5323,8.5807,8.6995,8.6995,8.6995,8.6995,8.6995,8.6995,8.6995,8.6995,8.6995,8.6995,8.6995,8.6995,8.6995,8.6995,8.6995,8.6995,0.0,0.0,0.0,0.0,0.0,7.0768,7.483,7.8369,8.1694,8.5105,9.1668,0.0,9.6497,9.7329,9.7849,9.7614,9.7197,0.0,0.0,0.0,0.0,8.5743,8.5298,8.3901,8.1089,7.7162,7.4386,0.0,6.5345,6.1055,5.9883,5.5339,5.3225,5.3261,0.0,0.0,6.0587,6.2583,0.0,6.8255,6.9054,6.989,7.0617,7.0726,7.132,7.2121,7.2971,7.3479,7.378,7.4478,7.5322,7.624,7.69,7.7781,7.8736,7.9396,8.0167,8.0938,8.1599,8.1893,8.215,8.281,8.3104,8.3398,8.4205,8.4389,8.4425,8.4572,8.5123,8.5416,8.4896,0.0,0.0,0.0,0.0,0.0,0.0,0.0,0.0,0.0,0.0,0.0,0.0,0.0,0.0,0.0,0.0,0.0,0.0,0.0,0.0,0.0,7.7442,0.0,0.0,0.0,8.4643,8.6691,8.5687,8.5807,8.6995,8.6995,8.6995,8.6995,8.6995,8.6995,8.6995,8.6995,8.6995,8.6995,8.6995,8.6995,8.6995,8.6995,8.6995,8.6995,0.0,0.0,0.0,0.0,0.0,0.0,0.0,8.5767,0.0,8.7129,9.0005,9.2533,9.3416,9.6176,9.7775,9.736,9.7055,9.5939,9.3826,9.296,9.1062,8.7601,8.6264,0.0,8.2348,7.8424,7.5717,7.439,6.6072,6.1544,6.0638,5.5595,5.3146,5.3213,0.0,5.8611,0.0,0.0,0.0,6.845,6.8677,6.955,7.0701,7.0701,7.1331,7.2313,7.3237,7.3905,7.4441,7.5249,7.6056,7.6864,7.7708,7.8552,7.936,8.0167,8.0975,8.1709,8.2076,8.2186,8.237,8.3214,8.3398,8.3728,8.4939,8.5233,8.5343,8.5747,8.6151,8.5704,8.3429,7.8988,0.0,0.0,0.0,0.0,0.0,0.0,0.0,0.0,0.0,0.0,0.0,0.0,0.0,0.0,0.0,0.0,0.0,0.0,0.0,0.0,0.0,0.0,0.0,0.0,0.0,8.6074,8.5456,8.5807,8.6995,8.6995,8.6995,8.6995,8.6995,8.6995,8.6995,8.6995,8.6995,8.6995,8.6995,8.6995,8.6995,8.6995,8.6995,8.6995,0.0,6.7648,0.0,0.0,7.7536,0.0,0.0,9.0563,9.2876,8.9124,8.8938,8.9644,9.0982,9.518,9.7557,9.6666,9.6727,9.5797,9.3397,9.2598,9.1099,8.8455,8.6747,8.5014,8.3261,7.952,7.6866,0.0,6.7553,6.2977,6.1492,5.674,5.4516,0.0,0.0,0.0,0.0,0.0,6.7359,6.884,6.8611,6.9427,7.0821,7.088,7.156,7.2665,7.3612,7.4478,7.5285,7.6093,7.69,7.7708,7.8369,7.925,8.0167,8.0828,8.1562,8.2186,8.2186,8.2333,8.2663,8.3471,8.3801,8.4278,8.571,8.604,8.6224,8.6885,8.6995,8.5956,8.2474,8.0369,0.0,0.0,0.0,0.0,0.0,0.0,0.0,0.0,0.0,0.0,0.0,0.0,0.0,0.0,0.0,0.0,0.0,0.0,0.0,0.0,0.0,7.9925,8.14,0.0,8.4637,0.0,8.5297,8.5807,8.6995,8.6995,8.6995,8.6995,8.6995,8.6995,8.6995,8.6995,8.6995,8.6995,8.6995,8.6995,8.6995,8.6995,8.6995,8.6995,0.0,0.0,0.0,0.0,0.0,0.0,0.0,9.0499,9.4288,9.4548,9.5923,9.6926,9.7074,9.7557,9.7557,9.6666,9.6591,9.5886,9.4214,9.3322,9.1762,8.931,8.7564,8.5929,8.4332,8.0988,7.8443,0.0,0.0,6.684,6.2855,6.0231,5.8984,0.0,0.0,0.0,0.0,6.6276,6.7671,6.9738,6.9566,7.0018,7.0821,7.0997,7.2043,7.3507,7.4455,7.5322,7.613,7.6937,7.7781,7.8479,7.8552,7.9653,8.0901,8.0975,8.1562,8.2186,8.2186,8.2737,8.3508,8.4278,8.5049,8.582,8.6701,8.6885,8.6921,8.6995,8.6995,8.6885,8.6476,8.295,7.8623,0.0,0.0,0.0,0.0,0.0,0.0,0.0,0.0,0.0,0.0,5.9804,0.0,0.0,0.0,0.0,0.0,0.0,0.0,7.2402,0.0,7.5282,7.8698,8.1214,8.3938,8.6807,8.5724,8.5807,8.6995,8.6995,8.6995,8.6995,8.6995,8.6995,8.6995,8.6995,8.6995,8.6995,8.6995,8.6995,8.6995,8.6995,8.6995,8.6995,0.0,0.0,0.0,0.0,0.0,0.0,0.0,9.3136,9.5217,9.5997,9.6703,9.7483,9.8523,9.8189,9.7743,9.7409,9.6889,9.6108,9.4994,9.3211,9.1539,9.009,8.7935,8.6264,8.5149,8.24,8.0114,0.0,0.0,0.0,6.4586,6.1291,0.0,0.0,0.0,6.5977,6.6925,6.8351,6.9721,7.0938,7.0714,7.1113,7.1882,7.2336,7.2981,7.3832,7.5175,7.5836,7.624,7.7047,7.7892,7.8662,7.9176,8.0094,8.1085,8.1562,8.1929,8.2296,8.281,8.3177,8.3728,8.5013,8.5563,8.6004,8.6811,8.6995,8.6995,8.6995,8.6995,8.6995,8.6995,8.5551,8.295,0.0,0.0,0.0,0.0,0.0,0.0,0.0,0.0,0.0,0.0,0.0,6.1431,0.0,0.0,0.0,0.0,0.0,0.0,7.3041,0.0,7.8553,8.3508,8.3409,8.4558,8.6995,8.6538,8.6538,8.6995,8.6995,8.6995,8.6995,8.6995,8.6995,8.6995,8.6995,8.6995,8.6995,8.6995,8.6995,8.6995,8.6995,8.6995,8.6995,7.8895,0.0,8.1302,0.0,8.7608,8.8764,9.4383,9.5409,9.6125,9.7852,9.7428,9.7478,9.8598,9.8226,9.778,9.7557,9.674,9.5923,9.5105,9.2951,9.1353,9.0536,8.8381,0.0,8.5632,8.3477,8.1487,7.9702,7.3543,0.0,0.0,0.0,0.0,0.0,6.8284,6.9359,6.9642,7.1124,7.2183,7.2852,7.2576,7.2773,7.3361,7.3736,7.4102,7.4551,7.5689,7.624,7.6607,7.7414,7.8259,7.9029,7.9617,8.0498,8.1452,8.2039,8.2186,8.237,8.3177,8.3581,8.4095,8.5453,8.5967,8.6297,8.6885,8.6995,8.6995,8.6995,8.6995,8.6995,8.6995,8.6995,8.5735,8.1772,0.0,0.0,0.0,0.0,0.0,0.0,7.6452,7.442,7.8977,7.0358,0.0,0.0,0.0,0.0,0.0,0.0,0.0,0.0,0.0,0.0,0.0,8.3695,8.4643,8.6995,8.6995,8.6995,8.6995,8.6995,8.6995,8.6995,8.6995,8.6995,8.6995,8.6995,8.6995,8.6995,8.6995,8.6995,8.6995,8.6995,8.6995,8.6995,8.2556,8.3527,8.532,9.1148,9.2119,9.3387,9.717,9.6656,9.7242,10.1007,9.9488,9.8023,9.7892,9.7892,9.7557,9.6703,9.5886,9.5068,9.4251,9.2653,9.1353,0.0,0.0,8.7304,8.5632,8.3997,8.2363,8.0691,0.0,0.0,7.305,0.0,7.1932,7.2146,7.3781,7.4933,7.5639,7.4735,7.4828,7.5514,7.5232,7.5153,7.5153,7.4978,7.5395,7.6056,7.6093,7.6607,7.7451,7.8295,7.9103,7.9764,7.98,8.0901,8.2186,8.2186,8.2186,8.237,8.3177,8.3985,8.4792,8.56,8.6407,8.6995,8.6995,8.6995,8.6995,8.6995,8.6995,8.6995,8.6995,8.6995,8.5551,8.0997,0.0,0.0,0.0,0.0,0.0,0.0,7.179,6.9776,7.435,0.0,0.0,0.0,0.0,0.0,0.0,0.0,0.0,7.1343,7.0564,0.0,7.7281,8.0562,8.3803,8.6995,8.6995,8.6995,8.6995,8.6995,8.6995,8.6995,8.6995,8.6995,8.6995,8.6995,8.6995,8.6995,8.6995,8.6995,8.6995,8.6995,8.6995,8.6995,8.8759,8.7802,8.7792,9.2634,9.2773,9.3002,9.5357,9.5345,9.5918,9.8241,9.7862,9.7367,9.7204,9.7626,9.7557,0.0,9.6696,9.6116,0.0,9.3028,9.1783,9.0536,8.9257,8.8072,8.6986,8.5901,8.4553,8.296,0.0,0.0,0.0,7.4019,7.48,7.6344,7.6307,7.6419,7.6604,7.5733,7.5456,7.5606,7.5495,7.5383,7.54,7.5779,7.6089,7.6383,7.6814,7.7084,7.7451,7.8295,7.914,7.9874,8.0461,8.1342,8.2186,8.2186,8.259,8.3214,8.4022,8.4792,8.56,8.6407,8.6811,8.6995,8.6995,8.6995,8.6995,8.6995,8.6995,8.6995,8.6995,8.6995,8.5698,8.1735,8.3871,0.0,0.0,0.0,0.0,0.0,7.5766,7.3899,0.0,7.4034,0.0,0.0,0.0,0.0,0.0,0.0,0.0,0.0,7.9335,0.0,8.3861,8.3547,8.4606,8.6995,8.6995,8.6995,8.6995,8.6995,8.6995,8.6995,8.6995,8.6995,8.6995,8.6995,8.6995,8.6995,8.6995,8.6995,8.6995,8.6995,8.6995,8.6995,8.949,8.8549,8.841,9.2411,9.2501,9.2773,9.5202,9.5194,9.5545,9.7304,9.708,9.6676,9.6546,9.6832,0.0,9.6183,9.6211,9.5678,9.4251,9.2965,9.1721,9.0536,8.9234,8.8014,8.6855,0.0,0.0,8.373,8.0562,7.8312,7.701,7.701,7.7774,7.9168,7.8685,7.8276,7.7942,7.7422,7.6958,7.6644,7.6495,7.6439,7.64,7.6802,7.687,7.6921,7.7279,7.7586,7.7928,7.8772,7.958,8.0388,8.1195,8.1782,8.226,8.2553,8.303,8.3654,8.4756,8.5416,8.5967,8.6811,8.6995,8.6995,8.6995,8.6995,8.6995,8.6995,8.6995,8.6995,8.6995,8.6995,8.6255,8.3945,8.5882,8.7321,8.6156,0.0,0.0,0.0,0.0,0.0,0.0,7.8237,0.0,0.0,0.0,0.0,0.0,0.0,0.0,7.8442,8.1281,0.0,8.539,8.4727,8.5328,8.6995,8.6995,8.6995,8.6995,8.6995,8.6995,8.6995,8.6995,8.6995,8.6995,8.6995,8.6995,8.6995,8.6995,8.6995,8.6995,8.6995,8.6995,8.6995,8.6508,8.6793,0.0,0.0,9.1602,0.0,9.6268,9.5818,9.5853,9.7856,9.6944,9.6044,9.5817,9.5726,9.5529,9.5254,0.0,0.0,0.0,9.257,9.1306,9.0462,8.8927,8.7328,8.5767,8.4875,8.4057,8.318,8.2437,8.1657,8.0877,8.0877,8.0877,8.0877,8.0802,8.0357,7.9651,7.9614,7.9131,7.8462,7.8182,7.8088,7.8088,7.7879,7.7762,7.762,7.7657,7.8051,7.8736,7.958,8.0388,8.1158,8.1929,8.2223,8.2443,8.3177,8.3471,8.3838,8.538,8.582,8.604,8.6811,8.6995,8.6995,8.6995,8.6995,8.6995,8.6995,8.6995,8.6995,8.6995,8.6995,8.6995,8.6995,8.7105,8.7545,8.8683,0.0,0.0,0.0,0.0,0.0,0.0,8.1723,8.1699,0.0,0.0,0.0,0.0,0.0,7.0471,7.658,7.8255,8.0357,8.2942,8.4558,8.5918,8.6995,8.6995,8.6995,8.6995,8.6995,8.6995,8.6995,8.6995,8.6995,8.6995,8.6995,8.6995,8.6995,8.6995,8.6995,8.6995,8.6995,8.6995,8.6995,0.0,0.0,8.8613,9.2269,9.2072,9.2015,9.352,9.4007,9.4683,9.5815,9.5503,9.5146,9.4958,9.483,9.4412,9.3619,9.4297,9.4124,9.2422,9.1745,9.0872,8.9607,8.8383,8.753,8.7118,8.5749,8.4442,8.318,8.2994,8.2809,8.2586,8.2586,8.2586,8.2586,8.1954,8.1583,8.136,8.0691,8.032,8.0059,7.9371,7.9112,7.9074,7.8237,7.7957,7.7974,7.8344,7.8651,7.8958,8.0304,8.0828,8.1158,8.1929,8.2627,8.3177,8.3361,8.3838,8.4535,8.5527,8.6261,8.6775,8.6958,8.6995,8.6995,8.6995,8.6995,8.6995,8.6995,8.6995,8.6995,8.6995,8.6995,8.6995,8.6995,8.8059,8.7541,8.3825,8.2043,0.0,0.0,7.7774,7.9083,8.0392,8.424,8.4911,0.0,0.0,0.0,0.0,7.8792,7.9993,8.4248,8.4764,8.5316,8.5956,8.636,8.6764,8.6995,8.6995,8.6995,8.6995,8.6995,8.6995,8.6995,8.6995,8.6995,8.6995,8.6995,8.6995,8.6995,8.6995,8.6995,8.6995,8.6995,8.6995,8.6995,9.0726,8.9333,8.8634,9.1391,9.1677,9.177,9.2596,9.3422,9.4136,9.4586,9.4505,9.4285,9.4136,9.3972,9.363,9.3025,9.3275,9.2965,9.1762,9.0913,9.0055,8.931,8.8003,8.7059,8.6685,8.5489,8.4273,8.318,8.318,8.318,8.318,8.318,8.318,8.318,8.2734,8.2326,8.1954,8.1471,8.1063,8.0654,8.0208,8.0059,7.9985,7.9426,7.9183,7.92,7.9349,7.9633,8.0051,8.0745,8.1232,8.1636,8.2039,8.2737,8.3471,8.3838,8.4535,8.5306,8.6114,8.6664,8.6995,8.6995,8.6995,8.6995,8.6995,8.6995,8.6995,8.6995,8.6995,8.6995,8.6995,8.6995,8.7142,8.7509,8.6213,8.4461,8.2289,7.9253,0.0,7.7719,7.892,8.0604,8.3097,8.5956,8.6439,8.3512,0.0,0.0,8.3318,8.288,8.3999,8.6921,8.6995,8.6995,8.6995,8.6995,8.7031,8.7169,8.7169,8.7132,8.7268,8.7268,8.7268,8.7268,8.7268,8.7268,8.7268,8.7268,8.7268,8.7268,8.7268,8.7268,8.7268,8.7268,8.7268,8.7268,8.7856,8.8012,8.8428,8.978,9.0719,9.1582,9.2409,9.3235,9.3835,9.3948,9.377,9.3587,9.3501,9.3275,9.3082,9.2988,9.2208,9.165,9.1539,9.0127,8.9236,8.9124,8.7527,8.6301,8.5595,8.4666,8.3886,8.318,8.318,8.318,8.318,8.318,8.318,8.318,8.318,8.2809,8.2177,8.2177,8.1731,8.1063,8.0951,8.0877,8.0877,8.0728,8.0634,8.0496,8.0429,8.0727,8.1229,8.1186,8.1636,8.2223,8.2333,8.292,8.3765,8.4535,8.5343,8.6114,8.6811,8.6995,8.6995,8.6995,8.6995,8.6995,8.6995,8.6995,8.6995,8.6995,8.6995,8.6995,8.6995,8.6995,8.7031,8.7174,8.3355,8.0651,8.1414,0.0,7.551,8.0577,8.0604,8.2029,8.6554,8.6995,8.6995,8.6995,8.5382,8.5189,0.0,8.541,8.5226,8.6958,8.6995,8.6995,8.6995,8.7064,8.7132,8.7335,8.7335,8.7402,8.7497,8.7497,8.7497,8.7497,8.7497,8.7497,8.7497,8.7497,8.7497,8.7497,8.7497,8.7497,8.7497,8.7497,8.7497,8.7497,8.7969,8.8463,8.8879,8.9142,8.9855,9.0681,9.1545,9.2371,9.3101,9.3695,9.3625,9.3501,9.3275,9.3119,9.3054,9.2988,9.2208,9.1428,9.0722,8.983,8.9013,8.8307,8.6672,8.5743,8.5595,8.4146,8.3329,8.318,8.318,8.318,8.318,8.318,8.318,8.318,8.318,8.3106,8.2994,8.2994,8.292,8.2734,8.2066,8.1806,8.1694,8.0988,8.0691,8.0745,8.1155,8.1403,8.1501,8.1912,8.2113,8.2333,8.2994,8.3765,8.4572,8.538,8.6187,8.6848,8.6995,8.6995,8.6995,8.6995,8.6995,8.6995,8.6995,8.6995,8.6995,8.6995,8.6995,8.6995,8.6995,8.6995,8.6066,8.3039,8.1772,7.9993,7.6436,0.0,8.0082,8.0355,8.3586,8.6109,8.6921,8.6995,8.6995,8.6995,8.6733,8.666,8.6995,8.6696,8.6696,8.6995,8.6995,8.7064,8.7237,8.7402,8.7431,8.7497,8.7497,8.7497,8.7497,8.7497,8.7497,8.7497,8.7497,8.7497,8.7497,8.7497,8.7497,8.7497,8.7497,8.7497,8.7497,8.7497,8.7497,8.7497,8.8753,8.8893,8.8992,8.8992,8.9667,9.0494,9.1357,9.2125,9.2833,9.3597,9.3464,9.3275,9.3211,9.3119,9.2988,9.2988,9.2208,9.1353,9.0536,8.9756,8.8938,8.8121,8.7341,8.6524,8.5632,8.4443,8.3626,8.318,8.318,8.318,8.318,8.318,8.318,8.318,8.318,8.318,8.318,8.318,8.318,8.3143,8.2771,8.2623,8.2586,8.2177,8.2028,8.2044,8.2116,8.2142,8.2154,8.2206,8.248,8.292,8.3287,8.4242,8.5306,8.5673,8.6371,8.6995,8.6995,8.6995,8.6995,8.6995,8.6995,8.6995,8.6995,8.6995,8.6995,8.6995,8.6995,8.6995,8.6995,8.6995,8.6586,8.5353,8.267,0.0,0.0,7.9734,8.0651,8.0281,8.422,8.6995,8.6995,8.6995,8.6995,8.6995,8.6995,8.6995,8.6995,8.7064,8.7169,8.7169,8.7169,8.72,8.7402,8.7497,8.7563,8.7665,8.7665,8.773,8.7794,8.7794,8.7794,8.7794,8.7794,8.7794,8.7794,8.7794,8.7794,8.7794,8.7794,8.7794,8.7794,8.7794,8.7794,8.7794,8.9423,8.9211,8.8992,8.8992,8.9517,9.0231,9.1,9.1746,9.2473,9.3213,9.3226,9.3211,9.3146,9.2868,9.2691,9.2691,9.191,9.1056,9.034,8.9708,8.9001,8.8121,8.7898,8.7118,8.5632,8.4815,8.4109,8.3477,8.3292,8.318,8.318,8.318,8.318,8.318,8.318,8.318,8.318,8.318,8.318,8.318,8.318,8.318,8.318,8.318,8.318,8.3121,8.2819,8.2843,8.2929,8.261,8.303,8.3728,8.3911,8.4792,8.582,8.6004,8.6518,8.6995,8.6995,8.6995,8.6995,8.6995,8.6995,8.6995,8.6995,8.6995,8.6995,8.6995,8.6995,8.6995,8.6995,8.6995,8.6885,8.6691,0.0,0.0,0.0,8.0725,8.059,8.1674,8.4853,8.6995,8.6995,8.6995,8.6995,8.71,8.7064,8.7064,8.7132,8.7268,8.7335,8.7402,8.7439,8.7468,8.7563,8.7628,8.773,8.7895,8.7895,8.7958,8.8084,8.8084,8.8084,8.8084,8.8084,8.8084,8.8084,8.8084,8.8084,8.8084,8.8084,8.8084,8.8084,8.8084,8.8084,8.8084,8.9423,8.9211,8.8992,8.8992,8.9029,8.9311,9.0022,9.0788,9.1493,9.2044,9.2726,9.3146,9.3054,9.2282,9.1799,9.1799,9.1056,9.0302,8.9634,8.9523,8.9088,8.8121,8.7341,8.6486,8.5632,8.4815,8.4369,8.4295,8.3552,8.318,8.318,8.318,8.318,8.318,8.318,8.318,8.318,8.318,8.318,8.318,8.318,8.318,8.318,8.318,8.318,8.3121,8.2819,8.3176,8.3741,8.3456,8.3875,8.4646,8.538,8.571,8.593,8.6701,8.6958,8.6995,8.6995,8.6995,8.6995,8.6995,8.6995,8.6995,8.6995,8.6995,8.6995,8.6995,8.6995,8.6995,8.6995,8.6995,8.5919,8.2585,0.0,0.0,8.1353,8.0762,8.1759,8.5998,8.6775,8.6995,8.6995,8.6995,8.71,8.7305,8.7305,8.7335,8.7431,8.7497,8.7563,8.773,8.773,8.773,8.7794,8.7958,8.8084,8.8084,8.8084,8.8084,8.8084,8.8084,8.8084,8.8084,8.8084,8.8084,8.8084,8.8084,8.8084,8.8084,8.8084,8.8084,8.8084,8.8084,8.8084,8.8084,8.928,8.9571,8.9592,8.9104,8.9349,8.9872,9.0638,9.0834,9.1174,9.1907,9.2178,9.205,9.1502,9.113,9.1232,9.1817,9.1073,9.0603,9.0428,8.9943,8.9309,8.8391,8.7934,8.7153,8.5812,8.5841,8.5149,8.3663,8.3849,8.3663,8.318,8.318,8.318,8.318,8.318,8.318,8.318,8.318,8.318,8.318,8.318,8.318,8.318,8.318,8.3514,8.3863,8.3559,8.3952,8.4589,8.4264,8.4682,8.538,8.571,8.6151,8.6591,8.6921,8.6995,8.6995,8.6995,8.6995,8.6995,8.6995,8.6995,8.6995,8.6995,8.6995,8.6995,8.6995,8.6995,8.6995,8.6995,8.6995,8.6549,8.514,0.0,8.4514,8.4845,8.4625,8.5037,8.6775,8.6995,8.71,8.7169,8.7169,8.7268,8.7402,8.7431,8.7431,8.7497,8.7628,8.7794,8.7958,8.8021,8.8021,8.8021,8.8084,8.8084,8.8084,8.8084,8.8084,8.8084,8.8084,8.8084,8.8084,8.8084,8.8084,8.8084,8.8084,8.8084,8.8084,8.8084,8.8084,8.8084,8.8084,8.8084,8.8084,8.9604,8.9929,9.0118,8.9818,9.0117,9.0488,9.0729,9.0788,9.0901,9.1136,9.1232,9.113,9.0637,9.034,9.0477,9.1261,9.0516,9.0055,9.0274,8.9847,8.9248,8.8533,8.8354,8.7772,8.6654,8.6534,8.5743,8.4332,8.4109,8.3849,8.3552,8.3329,8.318,8.318,8.318,8.318,8.318,8.318,8.318,8.318,8.318,8.3329,8.3589,8.3589,8.4072,8.4717,8.441,8.4801,8.5401,8.511,8.5527,8.6187,8.6187,8.6554,8.6995,8.6995,8.6995,8.6995,8.6995,8.6995,8.6995,8.6995,8.6995,8.6995,8.6995,8.6995,8.6995,8.6995,8.6995,8.6995,8.6995,8.6995,8.6995,8.6995,8.6995,8.6995,8.6995,8.6995,8.6995,8.6995,8.6995,8.71,8.7305,8.7305,8.7402,8.7563,8.7563,8.7628,8.773,8.7794,8.7958,8.8084,8.8084,8.8084,8.8084,8.8084,8.8084,8.8084,8.8084,8.8084,8.8084,8.8084,8.8084,8.8084,8.8084,8.8084,8.8084,8.8084,8.8084,8.8084,8.8084,8.8084,8.8084,8.8084,8.8084,8.8084,9.0303,9.0343,9.0494,9.132,9.1355,9.0879,8.9975,9.0391,9.0429,8.9384,8.9979,9.0563,9.0752,9.0007,8.9584,8.9803,8.9018,8.8592,8.8803,8.8936,8.8879,8.8495,8.8414,8.8293,8.8293,8.6571,8.6004,8.6784,8.4406,8.3626,8.4369,8.3589,8.3217,8.318,8.318,8.318,8.318,8.318,8.318,8.318,8.318,8.3663,8.4406,8.4406,8.4889,8.5534,8.5224,8.5614,8.625,8.5919,8.6334,8.6995,8.6995,8.6995,8.6995,8.6995,8.6995,8.6995,8.6995,8.6995,8.6995,8.6995,8.6995,8.6995,8.6995,8.6995,8.6995,8.6995,8.6995,8.6995,8.6995,8.6995,8.6995,8.6995,8.6995,8.6995,8.6995,8.6995,8.6995,8.6995,8.6995,8.7064,8.7305,8.7305,8.7402,8.7794,8.7794,8.7895,8.8084,8.8084,8.8084,8.8084,8.8084,8.8084,8.8084,8.8084,8.8084,8.8084,8.8084,8.8084,8.8084,8.8084,8.8084,8.8084,8.8084,8.8084,8.8084,8.8084,8.8084,8.8084,8.8084,8.8084,8.8084,8.8084,8.8084,8.8084,8.944,9.0362,9.0925,9.0509,9.0804,9.0923,9.0577,9.0056,8.9696,8.9498,8.9647,8.9634,8.9197,8.8959,8.913,8.9847,8.9195,8.8766,8.8936,8.8992,8.8936,8.8879,8.8708,8.833,8.7615,8.7511,8.698,8.5966,8.5781,8.5261,8.4369,8.4146,8.3737,8.318,8.318,8.318,8.318,8.318,8.318,8.318,8.318,8.3663,8.4406,8.4406,8.52,8.6301,8.601,8.6398,8.6966,8.6696,8.6811,8.6995,8.6995,8.6995,8.6995,8.6995,8.6995,8.6995,8.6995,8.6995,8.6995,8.6995,8.6995,8.6995,8.6995,8.6995,8.6995,8.6995,8.6995,8.6995,8.6995,8.6995,8.6995,8.6995,8.6995,8.6995,8.6995,8.6995,8.6995,8.6995,8.7132,8.7268,8.7468,8.76,8.7767,8.8021,8.8021,8.8021,8.8084,8.8084,8.8084,8.8084,8.8084,8.8084,8.8084,8.8084,8.8084,8.8084,8.8084,8.8084,8.8084,8.8084,8.8084,8.8084,8.8084,8.8084,8.8084,8.8084,8.8084,8.8084,8.8084,8.8084,8.8084,8.8084,8.8084,8.8084,8.9911,9.0737,9.1317,9.1013,9.1208,9.1137,9.0379,8.9796,8.9287,8.9075,8.9062,8.8996,8.8629,8.8592,8.8895,8.9535,8.9179,8.8879,8.8992,8.8992,8.8992,8.8992,8.8936,8.8541,8.7939,8.7854,8.7413,8.6683,8.6139,8.5521,8.4852,8.422,8.3663,8.318,8.318,8.318,8.318,8.318,8.318,8.318,8.318,8.3849,8.4852,8.4852,8.577,8.709,8.686,8.6959,8.7305,8.71,8.6995,8.6995,8.6995,8.6995,8.6995,8.6995,8.6995,8.6995,8.6995,8.6995,8.6995,8.6995,8.6995,8.6995,8.6995,8.6995,8.6995,8.6995,8.6995,8.6995,8.6995,8.6995,8.6995,8.6995,8.6995,8.6995,8.6995,8.6995,8.6995,8.6995,8.7169,8.7335,8.7497,8.7665,8.7895,8.8084,8.8084,8.8084,8.8084,8.8084,8.8084,8.8084,8.8084,8.8084,8.8084,8.8084,8.8084,8.8084,8.8084,8.8084,8.8084,8.8084,8.8084,8.8084,8.8084,8.8084,8.8084,8.8084,8.8084,8.8084,8.8084,8.8084,8.8084,8.8084,8.8084,8.8084,9.1057,9.128,9.1462,9.2189,9.2132,9.1422,8.9746,8.9485,8.9286,8.8465,8.8473,8.8592,8.8803,8.8803,8.886,8.8992,8.8992,8.8992,8.8992,8.8992,8.8992,8.8992,8.8992,8.8936,8.8803,8.7764,8.7548,8.8293,8.5939,8.5038,8.5558,8.4109,8.3329,8.318,8.318,8.3217,8.3292,8.3292,8.3329,8.3403,8.3403,8.4332,8.5706,8.5706,8.6549,8.773,8.7563,8.7402,8.7237,8.7064,8.6995,8.6995,8.6995,8.6995,8.6995,8.6995,8.6995,8.6995,8.6995,8.6995,8.6995,8.6995,8.6995,8.6995,8.6995,8.6995,8.6995,8.6995,8.6995,8.6995,8.6995,8.6995,8.6995,8.6995,8.6995,8.6995,8.6995,8.6995,8.7031,8.6995,8.7237,8.7335,8.7497,8.773,8.7895,8.8084,8.8084,8.8084,8.8084,8.8084,8.8084,8.8084,8.8084,8.8084,8.8084,8.8084,8.8084,8.8084,8.8084,8.8084,8.8084,8.8084,8.8084,8.8084,8.8084,8.8084,8.8084,8.8084,8.8084,8.8084,8.8084,8.8084,8.8084,8.8084,8.8084,8.8084,9.0134,9.0788,9.1216,9.1199,9.1759,9.1547,8.9746,8.9645,8.9467,8.8762,8.8745,8.8766,8.8936,8.8936,8.8936,8.8992,8.8992,8.8992,8.8992,8.8992,8.8992,8.8992,8.8992,8.8992,8.8936,8.8463,8.8227,8.8293,8.7589,8.6709,8.5595,8.5223,8.4406,8.318,8.318,8.3552,8.4146,8.4146,8.448,8.5075,8.5075,8.5669,8.6524,8.6524,8.6968,8.7563,8.7497,8.7298,8.7064,8.6995,8.6995,8.6995,8.6995,8.6995,8.6995,8.6995,8.6995,8.6995,8.6995,8.6995,8.6995,8.6995,8.6995,8.6995,8.6995,8.6995,8.6995,8.6995,8.6995,8.6995,8.6995,8.6995,8.6995,8.6995,8.6995,8.6995,8.6995,8.6995,8.7064,8.7237,8.7402,8.7497,8.773,8.7958,8.8021,8.8084,8.8084,8.8084,8.8084,8.8084,8.8084,8.8084,8.8084,8.8084,8.8084,8.8084,8.8084,8.8084,8.8084,8.8084,8.8084,8.8084,8.8084,8.8084,8.8084,8.8084,8.8084,8.8084,8.8084,8.8084,8.8084,8.8084,8.8084,8.8084,8.8084,8.8084,9.0392,9.076,9.0937,9.0851,9.1187,9.11,8.9709,8.9705,8.9585,8.8915,8.886,8.8936,8.8992,8.8992,8.8992,8.8992,8.8992,8.8992,8.8992,8.8992,8.8992,8.8992,8.8992,8.8992,8.8992,8.8708,8.8473,8.8414,8.7799,8.7044,8.6152,8.5781,8.4926,8.3775,8.3775,8.3775,8.3849,8.422,8.4629,8.5038,8.5446,8.6078,8.6784,8.6784,8.7116,8.7497,8.7497,8.7298,8.6995,8.6995,8.6995,8.6995,8.6995,8.6995,8.6995,8.6995,8.6995,8.6995,8.6995,8.7064,8.7132,8.7132,8.72,8.72,8.6995,8.6995,8.6995,8.6995,8.6995,8.6995,8.6995,8.6995,8.6995,8.6995,8.6995,8.6995,8.6995,8.6995,8.7064,8.7305,8.7402,8.7628,8.7958,8.8021,8.8084,8.8084,8.8084,8.8084,8.8084,8.8084,8.8084,8.8084,8.8084,8.8084,8.8084,8.8084,8.8084,8.8084,8.8084,8.8084,8.8084,8.8084,8.8084,8.8084,8.8084,8.8084,8.8084,8.8084,8.8084,8.8084,8.8084,8.8084,8.8084,8.8084,8.8084,8.8084,9.1036,9.0988,9.0789,9.0789,9.0851,9.0516,8.9509,8.9713,8.976,8.8973,8.8936,8.8992,8.8992,8.8992,8.8992,8.8992,8.8992,8.8992,8.8992,8.8992,8.8992,8.8992,8.8992,8.8992,8.8992,8.8708,8.8495,8.8495,8.7525,8.6932,8.6784,8.6115,8.5372,8.4592,8.4592,8.4295,8.3849,8.4518,8.4889,8.5075,8.5743,8.6412,8.7007,8.6945,8.7164,8.7497,8.7497,8.7268,8.6995,8.6995,8.6995,8.6995,8.6995,8.6995,8.6995,8.6995,8.6995,8.7031,8.6995,8.7169,8.7305,8.7372,8.7402,8.7431,8.7132,8.7064,8.7064,8.7064,8.7064,8.7064,8.7064,8.7064,8.7064,8.7064,8.6995,8.6995,8.6995,8.6995,8.7064,8.7268,8.7534,8.773,8.8084,8.8084,8.8084,8.8084,8.8084,8.8084,8.8084,8.8084,8.8084,8.8084,8.8084,8.8084,8.8084,8.8084,8.8084,8.8084,8.8084,8.8084,8.8084,8.8084,8.8084,8.8084,8.8084,8.8084,8.8084,8.8084,8.8084,8.8084,8.8084,8.8084,8.8084,8.8084,8.8084,8.8084,9.1709,9.1273,9.0789,9.0789,9.0913,9.0475,8.912,8.961,8.9874,8.9104,8.8992,8.8992,8.8992,8.8992,8.8992,8.8992,8.8992,8.8992,8.8992,8.8992,8.8992,8.8992,8.8992,8.8992,8.8992,8.8708,8.8495,8.8495,8.812,8.7527,8.6784,8.6672,8.6189,8.5446,8.5446,8.5743,8.6301,8.6412,8.6895,8.7601,8.7712,8.7824,8.7935,8.7709,8.7618,8.7497,8.7335,8.72,8.6995,8.6995,8.6995,8.6995,8.6995,8.6995,8.6995,8.6995,8.6995,8.7031,8.7237,8.7305,8.7372,8.7431,8.7497,8.7497,8.7431,8.7431,8.7431,8.7431,8.7431,8.7431,8.7431,8.7335,8.7237,8.7237,8.7064,8.6995,8.6995,8.6995,8.7132,8.7431,8.7794,8.8021,8.8084,8.8084,8.8084,8.8084,8.8084,8.8084,8.8084,8.8084,8.8084,8.8084,8.8084,8.8084,8.8084,8.8084,8.8084,8.8084,8.8084,8.8084,8.8084,8.8084,8.8084,8.8084,8.8084,8.8084,8.8084,8.8084,8.8084,8.8084,8.8084,8.8084,8.8084,8.8084,8.8084,8.8084,9.111,9.1259,9.1184,9.0864,9.1249,9.132,9.0339,9.0567,9.0456,8.9179,8.8992,8.8992,8.8992,8.8992,8.8992,8.8992,8.8992,8.8992,8.8992,8.8992,8.8992,8.8992,8.8992,8.8992,8.8992,8.8708,8.8495,8.8495,8.8269,8.7898,8.7527,8.7527,8.7081,8.6264,8.6264,8.6226,8.6152,8.6598,8.7007,8.7415,8.7898,8.8084,8.8084,8.8021,8.7794,8.7497,8.72,8.71,8.6995,8.7169,8.7169,8.7132,8.7268,8.7231,8.7231,8.7231,8.7231,8.7298,8.7402,8.7468,8.76,8.7665,8.773,8.7858,8.7858,8.7858,8.7794,8.7563,8.7497,8.7497,8.7497,8.7431,8.7402,8.7402,8.7335,8.7231,8.7231,8.7231,8.7402,8.7665,8.7921,8.8084,8.8084,8.8084,8.8084,8.8084,8.8084,8.8084,8.8084,8.8084,8.8084,8.8084,8.8084,8.8084,8.8084,8.8084,8.8084,8.8084,8.8084,8.8084,8.8084,8.8084,8.8084,8.8084,8.8084,8.8084,8.8084,8.8084,8.8084,8.8084,8.8084,8.8084,8.8084,8.8084,8.8084,8.8084]},{"header":{"parameterUnit":"m.s-1","parameterCategory":1,"la1":30.6,"la2":28.766,"lo1":-90.7593,"lo2":-88.6598,"dy":0.0162,"dx":0.0183,"nx":116,"ny":114,"refTime":"2023-10-13T12:00:00:Z","depth":0,"parameterNumber":3,"parameterNumberName":"V-component_of_WINDS"},"data":[0.0,0.0,0.0,0.0,0.0,0.0,0.0,0.0,0.0,0.0,0.0,0.0,0.0,0.0,0.0,0.0,0.0,0.0,0.0,0.0,0.0,0.0,0.0,0.0,0.0,0.0,0.0,0.0,0.0,0.0,0.0,0.0,0.0,0.0,0.0,0.0,0.0,0.0,0.0,0.0,0.0,0.0,0.0,0.0,0.0,0.0,0.0,0.0,0.0,0.0,0.0,0.0,0.0,0.0,0.0,0.0,0.0,0.0,0.0,0.0,0.0,0.0,0.0,0.0,0.0,0.0,0.0,0.0,0.0,0.0,0.0,0.0,0.0,0.0,0.0,0.0,0.0,0.0,0.0,0.0,0.0,0.0,0.0,0.0,0.0,0.0,0.0,0.0,0.0,0.0,0.0,0.0,0.0,0.0,0.0,0.0,0.0,0.0,0.0,0.0,0.0,0.0,0.0,0.0,0.0,0.0,0.0,0.0,0.0,0.0,0.0,0.0,0.0,0.0,0.0,0.0,0.0,0.0,0.0,0.0,0.0,0.0,0.0,0.0,0.0,0.0,0.0,0.0,0.0,0.0,0.0,0.0,0.0,0.0,0.0,0.0,0.0,0.0,0.0,0.0,0.0,0.0,0.0,0.0,0.0,0.0,0.0,0.0,0.0,0.0,0.0,0.0,0.0,0.0,0.0,0.0,0.0,0.0,0.0,0.0,0.0,0.0,0.0,0.0,0.0,0.0,0.0,0.0,0.0,0.0,0.0,0.0,0.0,0.0,0.0,0.0,0.0,0.0,0.0,0.0,0.0,0.0,0.0,0.0,0.0,0.0,0.0,0.0,0.0,0.0,0.0,0.0,0.0,0.0,0.0,0.0,0.0,0.0,0.0,0.0,0.0,0.0,0.0,0.0,0.0,0.0,0.0,0.0,0.0,0.0,0.0,0.0,0.0,0.0,0.0,0.0,0.0,0.0,0.0,0.0,0.0,0.0,0.0,0.0,0.0,0.0,0.0,0.0,0.0,0.0,0.0,0.0,0.0,0.0,0.0,0.0,0.0,0.0,0.0,0.0,0.0,0.0,0.0,0.0,0.0,0.0,0.0,0.0,0.0,0.0,0.0,0.0,0.0,0.0,0.0,0.0,0.0,0.0,0.0,0.0,0.0,0.0,0.0,0.0,0.0,0.0,0.0,0.0,0.0,0.0,0.0,0.0,0.0,0.0,0.0,0.0,0.0,0.0,0.0,0.0,0.0,0.0,0.0,0.0,0.0,0.0,0.0,0.0,0.0,0.0,0.0,0.0,0.0,0.0,0.0,0.0,0.0,0.0,0.0,0.0,0.0,0.0,0.0,0.0,0.0,0.0,0.0,0.0,0.0,0.0,0.0,0.0,0.0,0.0,0.0,0.0,0.0,0.0,0.0,0.0,0.0,0.0,0.0,0.0,0.0,0.0,0.0,0.0,0.0,0.0,0.0,0.0,0.0,0.0,0.0,0.0,0.0,0.0,0.0,0.0,0.0,0.0,0.0,0.0,0.0,0.0,0.0,0.0,0.0,0.0,0.0,0.0,0.0,0.0,0.0,0.0,0.0,0.0,0.0,0.0,0.0,0.0,0.0,0.0,0.0,0.0,0.0,0.0,0.0,0.0,0.0,0.0,0.0,0.0,0.0,0.0,0.0,0.0,0.0,0.0,0.0,0.0,0.0,0.0,0.0,0.0,0.0,0.0,0.0,0.0,0.0,0.0,0.0,0.0,0.0,0.0,0.0,0.0,0.0,0.0,0.0,0.0,0.0,0.0,0.0,0.0,0.0,0.0,0.0,0.0,0.0,0.0,0.0,0.0,0.0,0.0,0.0,0.0,0.0,0.0,0.0,0.0,0.0,0.0,0.0,0.0,0.0,0.0,0.0,0.0,0.0,0.0,0.0,0.0,0.0,0.0,0.0,0.0,0.0,0.0,0.0,0.0,0.0,0.0,0.0,0.0,0.0,0.0,0.0,0.0,0.0,0.0,0.0,0.0,0.0,0.0,0.0,0.0,0.0,0.0,0.0,0.0,0.0,0.0,0.0,0.0,0.0,0.0,0.0,0.0,0.0,0.0,0.0,0.0,0.0,0.0,0.0,0.0,0.0,0.0,0.0,0.0,0.0,0.0,0.0,0.0,0.0,0.0,0.0,0.0,0.0,0.0,0.0,0.0,0.0,0.0,0.0,0.0,0.0,0.0,0.0,0.0,0.0,0.0,0.0,0.0,0.0,0.0,0.0,0.0,0.0,0.0,0.0,0.0,0.0,0.0,0.0,0.0,0.0,0.0,0.0,0.0,0.0,0.0,0.0,0.0,0.0,0.0,0.0,0.0,0.0,0.0,0.0,0.0,0.0,0.0,0.0,0.0,0.0,0.0,0.0,0.0,0.0,0.0,0.0,0.0,0.0,0.0,0.0,0.0,0.0,0.0,0.0,0.0,0.0,0.0,0.0,0.0,0.0,0.0,0.0,0.0,0.0,0.0,0.0,0.0,0.0,0.0,0.0,0.0,0.0,0.0,0.0,0.0,0.0,0.0,0.0,0.0,0.0,0.0,0.0,0.0,0.0,0.0,0.0,0.0,0.0,0.0,0.0,0.0,0.0,0.0,0.0,0.0,0.0,0.0,0.0,0.0,0.0,0.0,0.0,0.0,0.0,0.0,0.0,0.0,0.0,0.0,0.0,0.0,0.0,0.0,0.0,0.0,0.0,0.0,0.0,0.0,0.0,0.0,0.0,0.0,0.0,0.0,0.0,0.0,0.0,0.0,0.0,0.0,0.0,0.0,0.0,0.0,0.0,0.0,0.0,0.0,0.0,0.0,0.0,0.0,0.0,0.0,0.0,0.0,0.0,0.0,0.0,0.0,0.0,0.0,0.0,0.0,0.0,0.0,0.0,0.0,0.0,0.0,0.0,0.0,0.0,0.0,0.0,0.0,0.0,0.0,0.0,0.0,0.0,0.0,0.0,0.0,0.0,0.0,0.0,0.0,0.0,0.0,0.0,0.0,0.0,0.0,0.0,0.0,0.0,0.0,0.0,0.0,0.0,0.0,0.0,0.0,0.0,0.0,0.0,0.0,0.0,0.0,0.0,0.0,0.0,0.0,0.0,0.0,0.0,0.0,0.0,0.0,0.0,0.0,0.0,0.0,0.0,0.0,0.0,0.0,0.0,0.0,0.0,0.0,0.0,0.0,0.0,0.0,0.0,0.0,0.0,0.0,0.0,0.0,0.0,0.0,0.0,0.0,0.0,0.0,0.0,0.0,0.0,0.0,0.0,0.0,0.0,0.0,0.0,0.0,0.0,0.0,0.0,0.0,0.0,0.0,0.0,0.0,0.0,0.0,0.0,0.0,0.0,0.0,0.0,0.0,0.0,0.0,0.0,0.0,0.0,0.0,0.0,0.0,0.0,0.0,0.0,0.0,0.0,0.0,0.0,0.0,0.0,0.0,0.0,0.0,0.0,0.0,0.0,0.0,0.0,0.0,0.0,0.0,0.0,0.0,0.0,0.0,0.0,0.0,0.0,0.0,0.0,0.0,0.0,0.0,0.0,0.0,0.0,0.0,0.0,0.0,0.0,0.0,0.0,0.0,0.0,0.0,0.0,0.0,0.0,0.0,0.0,0.0,0.0,0.0,0.0,0.0,0.0,0.0,0.0,0.0,0.0,0.0,0.0,0.0,0.0,0.0,0.0,0.0,0.0,0.0,0.0,0.0,0.0,0.0,0.0,0.0,0.0,0.0,0.0,0.0,0.0,0.0,0.0,0.0,0.0,0.0,0.0,0.0,0.0,0.0,0.0,0.0,0.0,0.0,0.0,0.0,0.0,0.0,0.0,0.0,0.0,0.0,0.0,0.0,0.0,0.0,0.0,0.0,0.0,0.0,0.0,0.0,0.0,0.0,0.0,0.0,0.0,0.0,0.0,0.0,0.0,0.0,0.0,0.0,0.0,0.0,0.0,0.0,0.0,0.0,0.0,0.0,0.0,0.0,0.0,0.0,0.0,0.0,0.0,0.0,0.0,0.0,0.0,0.0,0.0,0.0,0.0,0.0,0.0,0.0,0.0,0.0,0.0,0.0,0.0,0.0,0.0,0.0,0.0,0.0,0.0,0.0,0.0,0.0,0.0,0.0,0.0,0.0,0.0,0.0,0.0,0.0,0.0,0.0,0.0,0.0,0.0,0.0,0.0,0.0,0.0,0.0,0.0,0.0,0.0,0.0,0.0,0.0,0.0,0.0,0.0,0.0,0.0,0.0,0.0,0.0,0.0,0.0,0.0,0.0,0.0,0.0,0.0,0.0,0.0,0.0,0.0,0.0,0.0,0.0,0.0,0.0,0.0,0.0,0.0,0.0,0.0,0.0,0.0,0.0,0.0,0.0,0.0,0.0,0.0,0.0,0.0,0.0,0.0,0.0,0.0,0.0,0.0,0.0,0.0,0.0,0.0,0.0,0.0,0.0,0.0,0.0,0.0,0.0,0.0,0.0,0.0,0.0,0.0,0.0,0.0,0.0,0.0,0.0,0.0,0.0,0.0,0.0,0.0,0.0,0.0,0.0,0.0,0.0,0.0,0.0,0.0,0.0,0.0,0.0,0.0,0.0,0.0,0.0,0.0,0.0,0.0,0.0,0.0,0.0,0.0,0.0,0.0,0.0,0.0,0.0,0.0,0.0,0.0,0.0,0.0,0.0,0.0,0.0,0.0,0.0,0.0,0.0,0.0,0.0,0.0,0.0,0.0,0.0,0.0,0.0,0.0,0.0,0.0,0.0,0.0,0.0,0.0,0.0,0.0,0.0,0.0,0.0,0.0,0.0,0.0,0.0,0.0,0.0,0.0,0.0,0.0,0.0,0.0,0.0,0.0,0.0,0.0,0.0,0.0,0.0,0.0,0.0,0.0,0.0,0.0,0.0,0.0,0.0,0.0,0.0,0.0,0.0,0.0,0.0,0.0,0.0,0.0,0.0,0.0,0.0,0.0,0.0,0.0,0.0,0.0,0.0,0.0,0.0,0.0,0.0,0.0,0.0,0.0,0.0,0.0,0.0,0.0,0.0,0.0,0.0,0.0,0.0,0.0,0.0,0.0,0.0,0.0,0.0,0.0,0.0,0.0,0.0,0.0,0.0,0.0,0.0,0.0,0.0,0.0,0.0,0.0,0.0,0.0,0.0,0.0,0.0,0.0,0.0,0.0,0.0,0.0,0.0,0.0,0.0,0.0,0.0,0.0,0.0,0.0,0.0,0.0,0.0,0.0,0.0,0.0,0.0,0.0,0.0,0.0,0.0,0.0,0.0,0.0,0.0,0.0,0.0,0.0,0.0,0.0,0.0,0.0,0.0,0.0,0.0,0.0,0.0,0.0,0.0,0.0,0.0,0.0,0.0,0.0,0.0,0.0,0.0,0.0,0.0,0.0,0.0,0.0,0.0,0.0,0.0,0.0,0.0,0.0,0.0,0.0,0.0,0.0,0.0,0.0,0.0,0.0,0.0,0.0,0.0,0.0,0.0,0.0,0.0,0.0,0.0,0.0,0.0,0.0,0.0,0.0,0.0,0.0,0.0,0.0,0.0,0.0,0.0,0.0,0.0,0.0,0.0,0.0,0.0,0.0,0.0,0.0,0.0,0.0,0.0,0.0,0.0,0.0,0.0,0.0,0.0,0.0,0.0,0.0,0.0,0.0,0.0,0.0,0.0,0.0,0.0,0.0,0.0,0.0,0.0,0.0,0.0,0.0,0.0,0.0,0.0,0.0,0.0,0.0,0.0,0.0,0.0,0.0,0.0,0.0,0.0,0.0,0.0,0.0,0.0,0.0,0.0,0.0,0.0,0.0,0.0,0.0,0.0,0.0,0.0,0.0,0.0,0.0,0.0,0.0,0.0,0.0,0.0,0.0,0.0,0.0,0.0,0.0,0.0,0.0,0.0,0.0,0.0,0.0,0.0,0.0,0.0,0.0,0.0,0.0,0.0,0.0,0.0,0.0,0.0,0.0,0.0,0.0,0.0,0.0,0.0,0.0,0.0,0.0,0.0,0.0,0.0,0.0,0.0,0.0,0.0,0.0,0.0,0.0,0.0,0.0,0.0,0.0,0.0,0.0,0.0,-2.1667,0.0,0.0,0.0,0.0,0.0,0.0,0.0,0.0,0.0,0.0,0.0,0.0,0.0,0.0,0.0,0.0,0.0,0.0,0.0,0.0,0.0,0.0,0.0,0.0,0.0,0.0,0.0,0.0,0.0,0.0,0.0,0.0,0.0,0.0,0.0,0.0,0.0,0.0,0.0,0.0,0.0,0.0,0.0,0.0,0.0,0.0,0.0,0.0,0.0,0.0,0.0,0.0,0.0,0.0,0.0,0.0,0.0,0.0,0.0,0.0,0.0,0.0,0.0,0.0,0.0,0.0,0.0,0.0,0.0,0.0,0.0,0.0,0.0,0.0,0.0,0.0,0.0,0.0,0.0,0.0,0.0,0.0,0.0,0.0,0.0,0.0,0.0,0.0,0.0,0.0,0.0,0.0,0.0,0.0,0.0,0.0,0.0,0.0,0.0,0.0,0.0,0.0,0.0,0.0,0.0,0.0,0.0,0.0,0.0,0.0,0.0,0.0,0.0,0.0,0.0,0.0,-2.2355,0.0,0.0,0.0,0.0,0.0,0.0,0.0,0.0,0.0,0.0,0.0,0.0,0.0,0.0,0.0,0.0,0.0,0.0,0.0,0.0,0.0,0.0,0.0,0.0,0.0,0.0,0.0,0.0,0.0,0.0,0.0,0.0,0.0,0.0,0.0,0.0,0.0,0.0,0.0,0.0,0.0,0.0,0.0,0.0,0.0,0.0,0.0,0.0,0.0,0.0,0.0,0.0,0.0,0.0,0.0,0.0,0.0,0.0,0.0,0.0,0.0,0.0,0.0,0.0,0.0,0.0,0.0,0.0,0.0,0.0,0.0,0.0,0.0,0.0,0.0,0.0,0.0,0.0,0.0,0.0,0.0,0.0,0.0,0.0,0.0,0.0,0.0,0.0,0.0,0.0,0.0,0.0,0.0,0.0,0.0,0.0,0.0,0.0,0.0,0.0,0.0,0.0,0.0,0.0,0.0,0.0,0.0,0.0,0.0,0.0,-2.5344,-2.5081,-2.461,-2.4067,-2.4054,-2.3354,-2.2266,0.0,0.0,0.0,0.0,0.0,0.0,0.0,0.0,0.0,0.0,0.0,0.0,0.0,0.0,0.0,0.0,0.0,0.0,0.0,0.0,0.0,0.0,0.0,0.0,0.0,0.0,0.0,0.0,0.0,0.0,0.0,0.0,0.0,0.0,0.0,0.0,0.0,0.0,0.0,-2.0362,-2.0643,-2.1027,-2.1251,-1.9547,0.0,0.0,0.0,0.0,0.0,0.0,0.0,0.0,0.0,0.0,0.0,0.0,0.0,0.0,0.0,0.0,0.0,0.0,0.0,0.0,0.0,0.0,0.0,0.0,0.0,0.0,0.0,0.0,0.0,0.0,0.0,0.0,0.0,0.0,0.0,0.0,0.0,0.0,0.0,0.0,0.0,0.0,0.0,-2.169,-2.1931,0.0,0.0,0.0,0.0,0.0,0.0,0.0,0.0,0.0,0.0,0.0,0.0,0.0,0.0,-2.496,-2.4723,-2.4872,-2.5271,-2.474,-2.4539,-2.4688,-2.4647,-2.4931,-2.5321,-2.5756,0.0,-2.2552,-2.093,0.0,0.0,0.0,0.0,0.0,0.0,0.0,0.0,0.0,0.0,0.0,0.0,0.0,0.0,0.0,0.0,0.0,0.0,0.0,0.0,0.0,0.0,0.0,0.0,0.0,0.0,0.0,0.0,0.0,0.0,0.0,0.0,0.0,0.0,0.0,0.0,-2.0152,-2.1254,-2.2395,-2.2841,-2.3366,-2.3878,-2.2828,-2.1841,-2.0876,-1.9572,0.0,0.0,0.0,0.0,0.0,0.0,0.0,0.0,0.0,0.0,0.0,0.0,0.0,0.0,0.0,0.0,0.0,0.0,0.0,0.0,0.0,0.0,0.0,0.0,0.0,0.0,0.0,0.0,0.0,0.0,0.0,0.0,0.0,0.0,0.0,0.0,0.0,0.0,0.0,-2.2302,-2.315,-2.2575,-2.348,-2.3799,0.0,0.0,0.0,0.0,0.0,0.0,0.0,0.0,0.0,-2.4022,-2.483,-2.5337,-2.5394,-2.5361,-2.5554,-2.6033,-2.6047,-2.6293,-2.6613,-2.6613,-2.6841,-2.7268,-2.7522,-2.6786,-2.5458,-2.3327,-2.1884,-2.0821,0.0,0.0,0.0,0.0,0.0,-2.2916,0.0,0.0,0.0,0.0,0.0,0.0,0.0,0.0,0.0,0.0,0.0,0.0,0.0,0.0,0.0,-1.7982,0.0,0.0,0.0,0.0,0.0,0.0,0.0,0.0,0.0,0.0,0.0,0.0,-2.1687,-2.3174,-2.4569,-2.5144,-2.5692,-2.6172,-2.5879,-2.4341,-2.2017,-2.0812,-1.9941,0.0,0.0,0.0,0.0,0.0,0.0,0.0,0.0,0.0,0.0,0.0,0.0,0.0,0.0,0.0,0.0,0.0,0.0,0.0,0.0,0.0,0.0,0.0,0.0,0.0,0.0,0.0,0.0,0.0,0.0,0.0,0.0,0.0,0.0,0.0,0.0,0.0,0.0,-2.3662,-2.472,-2.3331,-2.5272,-2.597,0.0,0.0,0.0,0.0,0.0,0.0,-2.4688,-2.5221,-2.5574,-2.5682,-2.6196,-2.6523,-2.6544,-2.6689,-2.7014,-2.7522,-2.7883,-2.8323,-2.8818,-2.8818,-2.8951,-2.9165,-2.9165,-2.8871,-2.8203,-2.5999,-2.3997,-2.2347,-2.1634,-2.1603,-2.1915,-2.1516,-2.2631,-2.4228,0.0,0.0,0.0,0.0,0.0,0.0,0.0,0.0,0.0,0.0,0.0,0.0,0.0,0.0,-2.2503,-2.2855,-2.1451,-2.0472,0.0,0.0,0.0,0.0,0.0,0.0,0.0,0.0,0.0,-2.233,-2.3785,-2.5251,-2.668,-2.7268,-2.7709,-2.8003,-2.7696,-2.7041,-2.5972,-2.3153,-2.2102,-2.2349,0.0,0.0,0.0,0.0,0.0,0.0,0.0,0.0,0.0,0.0,0.0,0.0,0.0,0.0,0.0,0.0,0.0,0.0,0.0,0.0,0.0,0.0,0.0,0.0,0.0,0.0,0.0,0.0,0.0,0.0,0.0,0.0,0.0,0.0,0.0,0.0,0.0,0.0,0.0,-2.441,-2.7264,0.0,0.0,0.0,0.0,-2.5152,-2.5242,-2.4862,-2.4111,-2.6683,-2.7682,-2.6746,-2.9047,-3.0111,-2.9619,-2.9953,-3.0274,-3.0568,-3.0327,-3.0368,-3.0662,-3.0662,-3.0675,-3.0688,-3.0688,-3.0515,-3.002,-2.7388,-2.5598,-2.4449,-2.3861,-2.346,-2.3233,-2.3245,-2.3506,-2.3829,0.0,0.0,0.0,0.0,0.0,0.0,0.0,0.0,0.0,0.0,0.0,0.0,0.0,-2.4082,-2.4849,-2.3728,-2.372,-2.3049,-2.1484,0.0,0.0,0.0,0.0,0.0,0.0,0.0,-2.1684,-2.3838,-2.5684,-2.7268,-2.8551,-2.9138,-2.9566,-2.9847,-2.974,-2.9312,-2.8457,-2.5272,-2.3522,-2.2584,-2.0477,-1.9094,0.0,0.0,0.0,0.0,0.0,0.0,0.0,0.0,0.0,0.0,0.0,0.0,0.0,0.0,0.0,0.0,0.0,0.0,0.0,0.0,0.0,0.0,0.0,0.0,0.0,0.0,0.0,0.0,0.0,0.0,0.0,0.0,0.0,0.0,0.0,0.0,0.0,-2.8864,-3.0565,0.0,0.0,-2.772,-2.7288,-2.7199,-2.6574,-2.6725,-2.7933,-2.8781,-2.9391,-2.9352,-3.0491,-3.1076,-3.1036,-3.1142,-3.1156,-3.1076,-3.0969,-3.0875,-3.0795,-3.0982,-3.0969,-3.0808,-3.0996,-3.0902,-3.0568,-2.9619,-2.8297,-2.6814,-2.6039,-2.5558,-2.5304,-2.5259,-2.5418,-2.5732,0.0,0.0,0.0,0.0,0.0,0.0,0.0,0.0,0.0,0.0,0.0,-2.3722,-2.4299,-2.6764,-2.7838,-2.6697,-2.6603,-2.5608,-2.289,0.0,0.0,0.0,0.0,0.0,0.0,-2.1706,-2.3563,-2.5634,-2.7357,-2.8804,-2.9793,-3.0274,-3.0662,-3.0942,-3.0942,-3.0715,-3.0207,-2.7856,-2.567,-2.3773,-2.208,-2.0837,-1.9941,0.0,0.0,0.0,0.0,0.0,0.0,0.0,0.0,0.0,0.0,0.0,0.0,0.0,0.0,0.0,0.0,0.0,0.0,0.0,0.0,0.0,0.0,0.0,0.0,0.0,0.0,0.0,0.0,0.0,0.0,0.0,0.0,0.0,0.0,0.0,-3.0652,-3.2449,-3.3655,-3.3547,-3.1409,-3.0001,-2.9168,-2.9308,-2.8632,-2.8798,-3.0344,-3.0655,-3.0875,-3.137,-3.1664,-3.1917,-3.2104,-3.2104,-3.2011,-3.1824,-3.1717,-3.157,-3.1396,-3.1583,-3.1623,-3.153,-3.1517,-3.1463,-3.1356,-3.1062,-3.0247,-2.9098,-2.8217,-2.7696,-2.7415,-2.7321,-2.7348,-2.7388,0.0,0.0,0.0,0.0,0.0,0.0,0.0,0.0,0.0,0.0,-2.2761,-2.5398,-2.7182,-2.9756,-3.1461,-3.1827,-2.9666,-2.7354,-2.5116,-2.1407,0.0,0.0,0.0,0.0,-2.17,-2.3655,-2.566,-2.7749,-2.8938,-2.982,-3.0394,-3.0688,-3.0982,-3.1249,-3.1263,-3.1263,-3.1236,-3.0648,-2.8738,-2.5945,-2.3826,-2.2806,-2.2558,0.0,0.0,0.0,0.0,0.0,0.0,0.0,0.0,0.0,0.0,0.0,0.0,0.0,0.0,0.0,0.0,0.0,0.0,0.0,0.0,0.0,0.0,0.0,0.0,0.0,0.0,0.0,0.0,0.0,0.0,0.0,0.0,0.0,-2.8184,-3.2218,-3.501,-3.4703,-3.6126,-3.6307,-3.4015,-3.2281,-3.1368,-3.1195,-3.1111,-3.1009,-3.1289,-3.1864,-3.2318,-3.2612,-3.2893,-3.304,-3.304,-3.3026,-3.3013,-3.3,-3.2706,-3.2572,-3.2559,-3.2559,-3.2706,-3.2933,-3.2372,-3.2291,-3.2478,-3.161,-3.1249,-3.1169,-3.0274,-2.9753,-2.9472,-2.9165,-2.8871,-2.8537,0.0,0.0,0.0,0.0,0.0,0.0,0.0,0.0,0.0,0.0,-2.3542,-2.6632,-2.8206,-2.9359,-3.0385,-3.1211,-2.7792,-2.5146,-2.4206,0.0,0.0,0.0,0.0,0.0,-2.4376,-2.5515,-2.7051,-2.8991,-2.9953,-3.0621,-3.0996,-3.1503,-3.1784,-3.1877,-3.2091,-3.2185,-3.2144,-3.1557,-3.0595,-2.9219,-2.6373,-2.4407,-2.3184,0.0,0.0,0.0,0.0,0.0,0.0,0.0,0.0,0.0,0.0,0.0,0.0,0.0,0.0,0.0,0.0,0.0,0.0,0.0,0.0,0.0,0.0,0.0,0.0,0.0,0.0,0.0,0.0,0.0,0.0,0.0,0.0,-2.8269,-2.8111,-3.0807,-3.3385,-3.533,-3.5747,-3.565,-3.5333,-3.4794,-3.3955,-3.264,-3.2794,-3.3066,-3.3146,-3.3708,-3.4068,-3.4148,-3.4229,-3.4269,-3.4269,-3.4055,-3.3841,-3.3627,-3.332,-3.3066,-3.2866,-3.2866,-3.2786,-3.2666,-3.2719,-3.2666,-3.2505,-3.2051,-3.1864,-3.1757,-3.0662,-3.0194,-3.006,-2.9553,-2.9179,-2.8898,0.0,0.0,0.0,0.0,0.0,0.0,0.0,0.0,0.0,0.0,-2.4227,-2.7419,-2.9295,-3.0479,-3.1021,-3.1029,-2.7614,-2.4733,-2.2923,0.0,0.0,0.0,0.0,-2.3784,-2.5964,-2.7211,-2.8511,-2.9659,-3.0541,-3.1129,-3.1423,-3.2011,-3.2425,-3.2679,-3.2973,-3.3106,-3.308,-3.2746,-3.2185,-3.133,-2.9072,-2.7211,-2.5687,-2.3589,-2.2636,-2.2225,-2.0797,-2.0438,-2.0362,-1.9094,0.0,0.0,0.0,0.0,0.0,0.0,0.0,0.0,0.0,0.0,0.0,0.0,0.0,0.0,0.0,0.0,0.0,0.0,0.0,0.0,0.0,0.0,0.0,0.0,-2.9702,-3.022,-2.9583,-3.2124,-3.501,-3.7273,-3.6817,-3.6269,-3.6458,-3.5692,-3.4779,-3.3708,-3.4055,-3.4255,-3.4255,-3.4696,-3.4897,-3.4763,-3.4763,-3.4763,-3.4763,-3.4469,-3.4242,-3.4068,-3.3881,-3.3708,-3.3534,-3.3534,-3.3521,0.0,-3.3253,-3.3066,-3.2866,-3.2318,-3.2024,0.0,0.0,0.0,0.0,0.0,-2.9379,-2.9205,0.0,0.0,0.0,0.0,0.0,0.0,0.0,0.0,0.0,0.0,0.0,-2.7876,-3.0067,-3.1757,-3.2274,-3.0926,-2.8006,-2.4876,0.0,0.0,0.0,-2.233,-2.4258,-2.5872,-2.7108,-2.8764,-2.9793,-3.0114,-3.0955,-3.153,-3.1824,-3.2425,-3.2986,-3.3507,-3.3801,-3.3935,-3.3935,-3.3895,-3.344,-3.2666,-3.1784,-3.0528,-2.8911,-2.6017,-2.536,-2.5767,-2.3546,-2.2434,-2.1919,-2.0899,0.0,0.0,0.0,0.0,0.0,0.0,0.0,0.0,0.0,0.0,0.0,0.0,0.0,0.0,0.0,0.0,0.0,0.0,0.0,0.0,0.0,0.0,0.0,0.0,-3.1422,-3.2911,-3.2463,-3.4988,-3.7423,-3.9132,-3.8022,-3.7258,-3.7316,-3.5514,-3.4629,-3.4883,-3.491,-3.491,-3.491,0.0,0.0,0.0,0.0,-3.4923,-3.4963,-3.4629,-3.4469,-3.4469,-3.4429,-3.4402,-3.4362,-3.4309,-3.4416,-3.4616,-3.3774,-3.3387,-3.3293,-3.2492,-3.1957,-3.1637,-3.1303,-3.0996,-3.0648,-2.9873,-2.9566,0.0,0.0,0.0,0.0,0.0,0.0,0.0,0.0,0.0,0.0,-2.1456,-2.4597,-2.7258,-2.9148,-2.9547,-2.9841,-3.0379,-2.6272,-2.2994,0.0,0.0,-2.2141,-2.4253,-2.5964,-2.7482,-2.8938,-2.9993,-3.0795,-3.133,-3.1971,-3.2438,-3.2732,-3.3347,-3.3694,-3.3814,-3.4108,-3.4242,-3.4229,-3.3988,-3.3921,-3.3895,-3.3,-3.1623,-2.9887,-2.7936,-2.7148,-2.6921,-2.5418,-2.5166,-2.5298,-2.3745,-2.3419,-2.3184,-2.1632,0.0,0.0,0.0,0.0,0.0,0.0,0.0,0.0,0.0,0.0,0.0,0.0,0.0,0.0,0.0,0.0,0.0,0.0,0.0,0.0,-3.1462,-3.2074,-3.2896,-3.592,-3.5613,-3.5266,-3.5761,-3.5664,-3.5823,-3.6312,-3.5939,-3.5752,-3.5819,-3.5819,-3.5819,-3.5819,-3.6099,0.0,-3.6166,-3.5939,-3.5939,-3.6166,-3.5645,-3.5378,-3.5378,0.0,0.0,-3.4656,-3.4189,-3.4002,-3.4028,-3.3601,-3.328,-3.3026,-3.2625,-3.2144,-3.1623,-3.1089,-3.0702,-3.0421,-3.0261,-3.0034,-2.982,0.0,0.0,0.0,0.0,0.0,0.0,0.0,0.0,0.0,0.0,-2.2843,-2.5034,-2.6906,-2.6488,-2.6433,-2.6988,-2.344,0.0,0.0,-2.2421,-2.3935,-2.6426,-2.7928,-2.9123,-3.0327,-3.1223,-3.181,-3.2104,-3.2692,-3.3133,-3.344,-3.3895,-3.4189,-3.4336,-3.4629,-3.4923,-3.5177,-3.4883,-3.4923,-3.5137,-3.4389,-3.3561,-3.2559,-3.0474,-2.9499,-2.9112,-2.8083,-2.7522,-2.7134,-2.6095,-2.5344,-2.475,-2.3443,-2.2303,-2.1241,0.0,0.0,0.0,0.0,0.0,0.0,0.0,0.0,0.0,0.0,0.0,0.0,0.0,0.0,-2.5398,0.0,0.0,-2.9495,-3.3056,-3.3173,-3.3614,-3.6024,-3.585,-3.5364,-3.5204,-3.5324,-3.5578,-3.6032,-3.6206,-3.6286,-3.6286,-3.6433,-3.6433,-3.6299,-3.658,-3.6647,-3.65,-3.6366,-3.6353,-3.65,-3.6072,-3.5778,-3.5631,-3.5485,-3.5257,-3.4963,-3.4683,-3.4469,-3.4309,-3.4002,-3.3534,-3.2933,-3.2345,-3.1931,-3.161,-3.1022,-3.0702,-3.0555,-3.0421,-3.0167,-2.9913,0.0,0.0,0.0,0.0,0.0,0.0,0.0,0.0,0.0,0.0,-2.1047,-2.265,-2.4418,-2.3825,-2.3083,0.0,0.0,0.0,0.0,-2.3694,-2.5845,-2.847,-2.9713,-3.0728,-3.1543,-3.2318,-3.2746,-3.2812,-3.3334,-3.3774,-3.4148,-3.4496,-3.4817,-3.511,-3.5404,-3.5765,-3.6139,-3.5899,-3.5939,-3.6112,-3.5645,-3.5485,-3.5311,-3.3293,-3.2158,-3.153,-3.0595,-2.9419,-2.8257,-2.7843,-2.6881,-2.5745,-2.5157,-2.4409,-2.3333,-2.1369,-2.1019,0.0,0.0,0.0,0.0,0.0,0.0,0.0,0.0,0.0,-2.3779,-2.5513,-2.6388,-2.7725,-3.0012,-3.0447,-3.1491,-3.4004,-3.4259,-3.4518,-3.5792,-3.6046,-3.6112,-3.5979,-3.5912,-3.6006,-3.6299,-3.654,-3.6687,-3.6687,-3.6834,-3.6834,-3.6607,-3.6794,-3.6834,-3.6607,-3.654,-3.654,-3.658,-3.6299,-3.6032,-3.5792,-3.5738,-3.5565,-3.5271,-3.5164,-3.4977,-3.4736,-3.4322,-3.3694,-3.2919,-3.2091,-3.1717,-3.1623,-3.1142,-3.0889,-3.0755,-3.0408,-3.0127,-2.9913,0.0,0.0,0.0,0.0,0.0,0.0,0.0,0.0,0.0,0.0,0.0,0.0,0.0,0.0,0.0,0.0,0.0,0.0,-2.304,-2.5231,-2.7574,-3.002,-3.1236,-3.2144,-3.2772,-3.3133,-3.3454,-3.3734,-3.4055,-3.4509,-3.5057,-3.5618,-3.6032,-3.6326,-3.6607,-3.6647,-3.6473,-3.6433,-3.6433,-3.6473,-3.638,-3.65,-3.6647,-3.5872,-3.4576,-3.3013,-3.1877,-3.0381,-2.8965,-2.9165,-2.827,-2.7148,-2.7575,-2.6587,-2.4873,-2.3379,0.0,-2.0099,-1.901,-1.8803,-1.912,-2.0253,-2.0835,-2.1797,0.0,0.0,-2.5496,-2.668,-2.8043,-2.9339,-2.988,-3.1423,-3.3,-3.4501,-3.5084,-3.5832,-3.6687,-3.6607,-3.6647,-3.7128,-3.6941,-3.6901,-3.7195,-3.7275,-3.7275,-3.7275,-3.7088,-3.6941,-3.6901,-3.6941,-3.6941,-3.6901,-3.6647,-3.662,-3.6901,-3.6607,-3.6433,-3.6393,-3.6153,-3.5872,-3.5565,-3.5044,-3.479,-3.471,-3.3881,-3.3307,-3.2933,-3.2305,-3.1904,-3.1664,-3.1597,-3.1249,-3.0728,-3.0167,-2.994,-2.9913,0.0,0.0,0.0,0.0,0.0,0.0,0.0,0.0,0.0,0.0,0.0,0.0,0.0,0.0,0.0,0.0,0.0,0.0,-2.3088,-2.6131,-2.8868,-3.1289,-3.2345,-3.308,-3.3494,-3.4122,-3.4509,-3.4656,-3.511,-3.5471,-3.5712,-3.5965,-3.6139,-3.6259,-3.638,-3.654,-3.6754,-3.6754,-3.6874,-3.7021,-3.7021,-3.6981,-3.6861,-3.6286,-3.4977,-3.3253,-3.1713,-2.9911,0.0,0.0,-2.7588,-2.7171,-2.7749,-2.6865,-2.541,-2.376,-2.2467,0.0,-2.0472,-2.032,0.0,0.0,-2.2834,-2.4311,-2.6016,-2.7078,-2.803,-2.9495,-3.0757,-3.1971,-3.2612,-3.3652,-3.457,0.0,-3.6042,-3.6339,-3.7155,-3.7088,-3.6914,-3.666,-3.6794,-3.7114,-3.7595,-3.7635,-3.7569,-3.7382,-3.7275,-3.7128,-3.6941,-3.6941,-3.6941,-3.6941,-3.6834,-3.6834,-3.6941,-3.6834,-3.658,-3.6259,-3.6126,-3.5832,-3.5364,-3.5124,-3.483,-3.4469,-3.3734,-3.3146,-3.2692,-3.2278,-3.1931,-3.165,-3.1476,-3.1263,-3.0996,-3.0581,-3.0207,-2.9913,0.0,0.0,0.0,0.0,0.0,0.0,0.0,0.0,0.0,0.0,0.0,0.0,0.0,0.0,0.0,0.0,0.0,0.0,0.0,-2.6339,-2.9422,-3.2011,-3.312,-3.3895,-3.4362,-3.507,-3.5431,-3.5431,-3.5859,-3.6153,-3.6313,-3.6393,-3.6513,-3.6687,-3.6834,-3.7128,-3.7448,-3.7515,-3.7595,-3.7635,-3.7635,-3.7342,-3.6861,-3.6019,-3.4469,-3.2363,-3.0927,-2.9034,0.0,0.0,-2.6082,-2.578,-2.6547,-2.6201,-2.5198,-2.3615,-2.2344,-2.1531,-2.1213,0.0,0.0,-2.3523,-2.5489,-2.7251,-2.8377,-2.9579,-3.0902,-3.2345,-3.344,-3.4349,-3.5004,-3.5283,-3.5877,-3.6674,-3.6669,-3.6973,-3.7595,-3.7342,-3.6874,-3.6153,-3.6233,-3.6567,-3.7155,-3.7489,-3.7595,-3.7382,-3.7382,-3.7235,-3.6941,-3.6941,-3.6941,-3.6941,-3.6941,-3.6941,-3.6941,-3.6941,-3.6727,-3.6313,-3.6153,-3.5845,-3.5431,-3.5271,-3.4923,-3.4416,-3.3895,-3.3334,-3.2759,-3.2372,-3.2051,-3.1757,-3.1463,-3.1249,-3.1076,-3.0862,-3.0474,-3.002,0.0,0.0,0.0,0.0,0.0,0.0,0.0,0.0,0.0,0.0,0.0,0.0,0.0,0.0,0.0,0.0,0.0,0.0,0.0,-2.5727,-2.8987,-3.1984,-3.3507,-3.4696,-3.5551,-3.5885,-3.6046,-3.6046,-3.6059,-3.6366,-3.6901,-3.7195,-3.7635,-3.8223,-3.8798,-3.8905,-3.8691,-3.8972,-3.8758,-3.8223,-3.8223,-3.7702,-3.6794,-3.5351,-3.2974,-3.0241,-2.9611,0.0,0.0,0.0,-2.3417,-2.3143,-2.3996,-2.4209,0.0,-2.3077,-2.136,-1.9824,0.0,0.0,-2.3277,-2.6,-2.8181,-3.0162,-3.169,-3.3093,-3.4336,-3.4963,-3.5565,-3.6006,-3.6032,-3.6286,-3.6687,-3.7275,-3.7382,-3.7595,-3.8143,-3.7235,-3.6433,-3.6112,-3.5338,-3.5044,0.0,-3.6727,-3.7382,-3.7382,-3.7382,-3.7235,-3.6941,-3.6941,-3.6941,-3.6941,-3.6941,-3.6941,-3.6941,-3.6941,-3.6941,-3.6901,-3.634,-3.6059,-3.6019,-3.5458,-3.503,-3.4736,-3.4429,-3.3948,-3.3334,-3.2772,-3.2358,-3.2064,-3.177,-3.1303,-3.0808,-3.0795,-3.0608,-3.0301,0.0,0.0,0.0,0.0,0.0,0.0,0.0,0.0,0.0,0.0,0.0,0.0,0.0,0.0,0.0,0.0,0.0,0.0,0.0,-2.4727,-2.7709,-2.9898,-3.2695,-3.4456,-3.475,-3.5805,-3.6366,-3.6366,-3.654,-3.6834,-3.7235,-3.7342,-3.7489,-3.7716,-3.829,-3.8397,-3.8143,-3.8437,-3.8437,-3.8183,-3.7208,-3.662,-3.6112,-3.3855,-3.1155,-2.8286,0.0,0.0,0.0,0.0,0.0,0.0,-2.2409,-2.2432,-2.1778,-2.0479,-2.058,-2.1255,-2.2089,0.0,-2.6488,-2.885,-3.0637,-3.227,-3.3841,-3.4843,-3.5538,-3.5738,-3.5405,-3.4993,-3.5231,-3.5059,-3.5046,-3.5872,-3.658,-3.7235,-3.7635,-3.7342,-3.662,-3.5351,-3.511,0.0,0.0,0.0,0.0,-3.7021,-3.7088,-3.7128,-3.7235,-3.7235,-3.7235,-3.7235,-3.7048,-3.6941,-3.6941,-3.6941,-3.6754,-3.6353,-3.5778,-3.5498,-3.5485,-3.5284,-3.4937,-3.4469,-3.4362,-3.3868,-3.3093,-3.2706,-3.2372,-3.2078,-3.1784,-3.1543,-3.133,-3.0942,-3.0728,-3.0581,0.0,0.0,0.0,0.0,0.0,0.0,0.0,0.0,0.0,0.0,0.0,0.0,0.0,0.0,0.0,0.0,0.0,0.0,0.0,0.0,-2.5384,-2.7448,-3.0043,-3.1455,-3.1878,-3.2988,-3.3678,-3.409,-3.4696,-3.5324,-3.6139,-3.6353,-3.662,-3.6941,-3.7635,-3.7849,-3.7676,-3.7742,-3.7489,-3.6874,-3.5073,-3.3944,-3.2948,-3.0426,-2.78,0.0,-2.3156,0.0,0.0,0.0,0.0,-2.0106,-2.0592,-2.0539,-2.0178,-1.9811,-2.0856,-2.2599,-2.4316,-2.6708,-2.9086,-3.1416,-3.3014,-3.4362,-3.5418,-3.6032,-3.6259,-3.5845,-3.4993,-3.4148,-3.4055,-3.3211,-3.3198,-3.4429,-3.4887,-3.563,-3.6794,-3.6473,-3.5752,-3.4723,-3.4389,-3.3988,0.0,0.0,0.0,-3.654,-3.6901,-3.7128,-3.7235,-3.7422,-3.7448,-3.7235,-3.7048,-3.6941,-3.6941,-3.6941,-3.6647,-3.6072,-3.5685,-3.5404,-3.5191,-3.5084,-3.4843,-3.4469,-3.4255,-3.3841,-3.3267,-3.2866,-3.2585,-3.2372,-3.1984,-3.1757,-3.161,-3.1129,-3.0889,-3.0715,0.0,0.0,0.0,0.0,0.0,0.0,0.0,0.0,0.0,0.0,0.0,0.0,0.0,0.0,0.0,0.0,0.0,0.0,0.0,0.0,0.0,-2.4688,-2.5435,-2.6311,-2.7405,-2.7852,-2.8601,-2.9703,-3.0637,-3.1984,-3.3668,-3.4242,-3.4963,-3.5792,-3.6687,-3.7048,-3.7021,-3.6714,-3.5792,-3.4169,-3.2181,-2.9965,-2.7814,-2.5736,-2.3529,-2.1334,-2.0515,0.0,0.0,0.0,0.0,0.0,-1.8529,-1.8872,-1.9586,-2.124,-2.2269,-2.3719,-2.7291,-2.9322,-3.1191,-3.3841,-3.5257,-3.6166,-3.6433,-3.6647,-3.65,-3.5311,-3.4295,-3.3347,0.0,0.0,-3.07,-3.3,-3.2788,-3.3422,-3.5872,-3.4963,-3.4175,0.0,0.0,0.0,0.0,0.0,0.0,-3.5965,0.0,-3.7235,-3.7008,-3.7489,-3.7555,-3.7008,-3.6941,-3.6941,-3.6941,-3.6901,-3.662,-3.6072,-3.6046,-3.5738,-3.5191,-3.4897,-3.475,-3.471,-3.4135,-3.3881,-3.3814,-3.3227,-3.2973,-3.2893,-3.2318,-3.1931,-3.1637,-3.1316,-3.1036,-3.0715,0.0,0.0,0.0,0.0,0.0,0.0,0.0,0.0,0.0,0.0,0.0,0.0,0.0,0.0,0.0,0.0,0.0,0.0,0.0,0.0,0.0,0.0,0.0,0.0,0.0,0.0,0.0,-2.816,-2.8876,-2.9388,-2.986,-3.0424,-3.0901,-3.1152,-3.2217,-3.2483,-3.2062,-3.1772,-3.1238,-3.0538,-2.8432,-2.7292,-2.6553,-2.4482,-2.2589,-2.0813,0.0,0.0,0.0,0.0,0.0,0.0,0.0,-2.0966,-2.1798,-2.3349,-2.5335,-2.7565,-2.9781,-3.2062,-3.4116,-3.5364,-3.6006,-3.6353,-3.6219,-3.5738,-3.4923,-3.3105,-3.0721,-2.8782,0.0,0.0,0.0,-3.0874,-3.3227,0.0,-3.7155,-3.7048,0.0,0.0,0.0,-3.503,-3.467,-3.4509,0.0,0.0,-3.6393,-3.6767,-3.7555,-3.7529,-3.7529,-3.7595,-3.7155,-3.6941,-3.6941,-3.65,-3.6219,-3.6072,-3.5631,-3.5338,-3.5191,-3.4897,-3.4643,-3.4416,-3.4042,-3.3748,-3.3507,-3.3133,-3.2853,-3.2625,-3.2251,-3.1931,-3.161,-3.1089,-3.0862,-3.0715,0.0,0.0,0.0,0.0,0.0,0.0,0.0,0.0,0.0,0.0,0.0,0.0,0.0,0.0,0.0,0.0,0.0,0.0,0.0,0.0,0.0,0.0,0.0,0.0,0.0,0.0,0.0,0.0,0.0,0.0,-2.6182,-2.6631,-2.7083,-2.7343,-2.8247,-2.8483,-2.8139,-2.7722,-2.7162,0.0,0.0,-2.3451,-2.2879,-2.1521,-2.0291,0.0,0.0,0.0,0.0,0.0,0.0,-2.104,-2.2199,-2.3196,-2.4328,-2.6431,0.0,-3.0241,-3.2324,-3.4077,-3.5685,-3.6153,-3.6286,-3.6072,-3.4913,-3.4023,-3.2564,-2.9951,-2.7702,0.0,0.0,0.0,0.0,0.0,0.0,0.0,-3.6941,-3.7128,-3.7088,0.0,-3.6727,0.0,-3.5458,-3.5471,-3.5805,0.0,-3.658,-3.6981,-3.7782,-3.7929,-3.7849,-3.7635,-3.7301,-3.7088,-3.6941,-3.662,-3.6326,-3.6072,-3.5738,-3.5444,-3.5191,-3.4897,-3.467,-3.4496,0.0,-3.3788,-3.3601,-3.3293,-3.3066,-3.2879,-3.2465,-3.2198,-3.1984,-3.1396,-3.1169,-3.1089,0.0,0.0,0.0,0.0,0.0,0.0,0.0,0.0,0.0,0.0,0.0,0.0,0.0,0.0,0.0,0.0,0.0,0.0,0.0,0.0,0.0,0.0,0.0,0.0,0.0,0.0,0.0,0.0,0.0,0.0,0.0,-2.287,-2.3413,-2.3941,-2.4431,-2.4649,-2.4611,-2.4083,-2.3413,-2.2448,-2.0781,-1.9586,-1.8592,0.0,0.0,0.0,0.0,0.0,0.0,0.0,-2.2821,-2.2962,-2.4796,-2.5935,-2.7383,-3.0146,-3.1407,-3.23,-3.4643,-3.5752,-3.6393,-3.654,-3.6286,-3.5525,-3.3211,-3.1996,-3.0188,-2.6581,0.0,-2.4022,-2.2716,-2.3715,-2.5487,-2.7827,0.0,-3.2934,-3.6366,-3.654,-3.6687,-3.7569,-3.7382,-3.6861,-3.6059,-3.6433,-3.6727,-3.6727,-3.7195,-3.7595,-3.7849,-3.833,-3.8223,-3.7422,-3.7342,-3.7195,-3.6941,-3.6901,-3.662,-3.6126,-3.6046,-3.5752,-3.5244,-3.491,-3.4736,-3.467,0.0,0.0,-3.3801,-3.3521,-3.3387,-3.3293,-3.2759,-3.2519,-3.2412,-3.1824,-3.161,-3.153,0.0,0.0,0.0,0.0,0.0,0.0,0.0,0.0,0.0,0.0,-1.8614,-1.8305,0.0,0.0,0.0,0.0,0.0,0.0,0.0,0.0,0.0,0.0,0.0,0.0,0.0,0.0,0.0,0.0,0.0,0.0,0.0,-1.9125,-1.9575,-1.9889,-2.0234,-2.0272,-2.0002,-1.9676,-1.9075,-1.8447,-1.7876,-1.7584,-1.7389,0.0,0.0,0.0,0.0,0.0,0.0,0.0,-2.4894,-2.6465,-2.834,-3.0039,-3.1739,-3.3801,-3.4817,-3.5605,-3.6941,-3.7569,-3.7716,-3.7048,-3.6286,-3.5044,-3.2545,-3.0162,0.0,0.0,-2.2683,-2.1433,-2.0622,-2.2599,-2.51,-2.8023,0.0,0.0,0.0,0.0,-3.8223,0.0,0.0,0.0,0.0,0.0,0.0,0.0,0.0,0.0,-3.8183,-3.8036,-3.7782,-3.7382,-3.7155,-3.6981,-3.6941,-3.6687,-3.654,-3.6433,-3.5939,-3.5658,-3.5538,-3.5004,-3.4629,-3.4376,0.0,0.0,-3.3494,-3.3427,-3.3267,-3.3013,-3.2679,-3.2398,-3.2104,-3.1517,-3.1303,-3.1249,0.0,0.0,0.0,0.0,0.0,0.0,0.0,-1.7671,-1.8545,-2.0634,-2.0429,-1.9932,-1.9521,-1.911,0.0,0.0,0.0,0.0,0.0,0.0,0.0,0.0,0.0,0.0,0.0,0.0,0.0,0.0,0.0,0.0,0.0,0.0,0.0,0.0,0.0,0.0,-1.7261,-1.7126,-1.6976,0.0,0.0,0.0,0.0,0.0,0.0,0.0,0.0,0.0,0.0,0.0,-2.557,-2.8843,-3.0863,-3.2625,-3.4215,-3.5672,-3.6299,-3.6754,-3.7782,-3.8143,-3.8076,-3.7342,-3.6046,-3.393,-3.0637,0.0,0.0,0.0,-2.0612,-1.9573,-1.9193,-2.1296,0.0,0.0,0.0,0.0,0.0,0.0,0.0,0.0,0.0,0.0,0.0,0.0,0.0,0.0,0.0,0.0,-3.8504,-3.8076,-3.7742,-3.7595,-3.7155,-3.6941,-3.6941,-3.6794,-3.6647,-3.65,-3.6072,-3.5778,-3.5618,-3.5191,-3.475,-3.4309,-3.4175,0.0,-3.3641,-3.348,-3.3427,-3.34,-3.2946,-3.2585,-3.2278,-3.1837,-3.1583,-3.141,0.0,0.0,0.0,0.0,0.0,0.0,0.0,-1.8651,-1.9624,-2.2141,-2.2261,-2.1627,-2.036,-1.9538,-1.9264,0.0,0.0,0.0,0.0,0.0,0.0,0.0,0.0,0.0,0.0,0.0,0.0,0.0,0.0,0.0,0.0,0.0,0.0,0.0,0.0,0.0,0.0,0.0,-1.6018,0.0,0.0,0.0,0.0,0.0,0.0,0.0,0.0,0.0,0.0,0.0,-2.5088,-2.8929,-3.1235,-3.3614,-3.5631,-3.6433,-3.7048,-3.7635,-3.829,-3.8584,-3.8517,-3.7595,-3.5792,-3.3081,-2.8947,-2.5937,0.0,-2.0038,-1.9006,-1.8469,-1.8435,-2.0327,-2.2393,0.0,-2.6483,0.0,0.0,0.0,0.0,0.0,0.0,0.0,0.0,0.0,0.0,0.0,0.0,0.0,-3.8731,-3.8143,-3.7809,-3.7809,-3.7235,-3.6941,-3.6941,-3.6941,-3.6834,-3.658,-3.6246,-3.5952,-3.5712,-3.5364,-3.487,-3.4322,-3.4322,0.0,0.0,-3.3547,-3.3601,-3.3828,-3.3213,-3.2799,-3.2519,-3.2278,-3.1971,-3.1637,0.0,0.0,0.0,0.0,0.0,0.0,0.0,-1.8887,-2.0309,-2.3597,-2.3134,-2.2312,-2.1833,-2.1114,-2.0412,0.0,0.0,0.0,0.0,0.0,0.0,0.0,0.0,0.0,0.0,0.0,0.0,0.0,0.0,0.0,0.0,0.0,0.0,0.0,0.0,0.0,0.0,0.0,0.0,0.0,0.0,0.0,0.0,0.0,0.0,0.0,0.0,0.0,0.0,0.0,0.0,-2.5458,-2.7838,-3.2191,-3.6299,-3.5872,0.0,0.0,-3.9118,-3.9666,-3.9813,-3.7863,-3.5645,-3.2919,-2.8561,0.0,-2.2192,-1.9786,-1.857,-1.8131,-1.8606,-1.9546,-2.1255,0.0,-2.6134,-2.9013,0.0,0.0,0.0,0.0,0.0,0.0,0.0,0.0,0.0,0.0,0.0,0.0,0.0,-3.8143,-3.7809,-3.7809,-3.7235,-3.6941,-3.6941,-3.6941,-3.6941,-3.6901,-3.634,-3.6059,-3.6019,-3.5458,-3.487,-3.4322,0.0,0.0,0.0,-3.3547,-3.3601,-3.3828,-3.3213,-3.2799,-3.2545,-3.2519,-3.2144,-3.1704,0.0,0.0,0.0,0.0,0.0,0.0,-1.9104,-1.9669,-2.1062,-2.447,-2.4521,-2.411,-2.3734,-2.2809,-2.1456,0.0,0.0,0.0,0.0,0.0,0.0,0.0,0.0,0.0,0.0,0.0,0.0,0.0,0.0,0.0,0.0,0.0,0.0,0.0,0.0,0.0,0.0,0.0,0.0,0.0,0.0,0.0,0.0,0.0,0.0,0.0,0.0,0.0,0.0,0.0,0.0,0.0,-2.3831,-2.7512,0.0,0.0,-3.5832,-3.7489,-3.8798,-3.9559,-3.9573,-3.8036,-3.5338,-3.2018,-2.8204,0.0,-2.1645,-1.9382,-1.8374,-1.8082,-1.8362,-1.8802,-1.969,-2.2065,-2.2917,-2.4959,-2.9422,-3.0676,-3.2563,0.0,0.0,0.0,0.0,0.0,0.0,0.0,0.0,0.0,0.0,-3.7782,-3.7555,-3.7555,-3.7155,-3.6941,-3.6941,-3.6941,-3.6861,-3.6687,-3.6273,-3.5979,-3.5778,-3.5204,-3.471,-3.4309,0.0,0.0,0.0,-3.3614,-3.3708,-3.4082,-3.348,-3.3066,-3.2799,-3.2799,-3.2438,-3.1944,0.0,0.0,0.0,0.0,0.0,-1.7107,-1.9597,-2.0184,-2.1473,-2.4778,-2.5104,-2.4898,-2.4538,-2.3477,-2.1987,-2.0001,0.0,0.0,0.0,0.0,0.0,0.0,0.0,0.0,0.0,0.0,0.0,0.0,0.0,0.0,0.0,0.0,0.0,0.0,0.0,0.0,0.0,0.0,0.0,0.0,0.0,0.0,0.0,0.0,0.0,0.0,0.0,0.0,0.0,0.0,0.0,0.0,0.0,0.0,0.0,0.0,-3.3828,-3.6006,-3.7769,-3.8972,-3.9386,-3.7916,-3.5097,-3.1482,0.0,-2.4342,-2.1233,-1.92,-1.8372,-1.8058,-1.8263,-1.836,-1.886,-2.0278,-2.0921,-2.2569,-2.6574,-2.7932,-2.9937,0.0,0.0,0.0,0.0,0.0,0.0,0.0,0.0,0.0,0.0,-3.7448,-3.7301,-3.7382,-3.7088,-3.6941,-3.6941,-3.6941,-3.6834,-3.662,-3.6259,-3.5965,-3.5738,-3.507,-3.4603,-3.4309,0.0,0.0,0.0,-3.3627,-3.3721,-3.4135,-3.3614,-3.324,-3.2973,-3.2973,-3.2612,-3.2104,0.0,0.0,0.0,0.0,0.0,0.0,-1.9546,-2.0184,-2.1388,-2.4419,-2.4487,-2.411,-2.3751,-2.2689,-2.1833,-2.1422,0.0,0.0,0.0,0.0,0.0,0.0,0.0,0.0,0.0,0.0,0.0,-1.5499,0.0,0.0,0.0,0.0,0.0,0.0,0.0,0.0,0.0,0.0,0.0,0.0,0.0,0.0,-1.6368,0.0,0.0,0.0,0.0,0.0,0.0,0.0,0.0,0.0,0.0,-2.0573,-2.2421,0.0,-3.135,-3.5698,-3.6019,-3.8036,-3.9519,-3.7448,-3.4544,-3.15,-2.7496,-2.4048,-2.1232,-1.948,-1.865,-1.8287,-1.83,-1.8505,-1.8896,-1.9546,-2.1129,-2.3452,-2.6803,-2.8804,0.0,0.0,0.0,0.0,0.0,0.0,0.0,0.0,0.0,0.0,0.0,-3.7261,-3.7088,-3.7382,-3.7088,-3.6941,-3.6941,-3.6941,-3.6941,-3.6941,-3.6353,-3.6072,-3.6046,-3.5164,-3.4603,0.0,0.0,0.0,0.0,-3.3547,-3.3601,-3.3855,-3.3534,-3.324,-3.2973,-3.2973,-3.2612,-3.2104,0.0,0.0,0.0,0.0,0.0,0.0,0.0,-1.8785,-1.9847,-2.1867,-2.2227,-2.2466,-2.286,-2.2124,-2.1542,-2.1422,0.0,0.0,0.0,0.0,0.0,0.0,0.0,0.0,0.0,0.0,0.0,-1.603,-1.5946,-1.6235,0.0,0.0,0.0,0.0,0.0,0.0,0.0,0.0,0.0,0.0,0.0,-1.6646,-1.661,0.0,0.0,0.0,0.0,0.0,0.0,0.0,0.0,0.0,0.0,0.0,0.0,-2.2708,-2.6825,-3.102,-3.2313,-3.3699,-3.4438,-3.2585,-3.0603,-2.8387,-2.546,-2.3227,-2.1233,-1.9212,-1.8674,-1.8505,-1.8324,-1.836,-1.8921,-2.0513,-2.1208,-2.2548,-2.5022,0.0,0.0,0.0,0.0,0.0,0.0,0.0,0.0,0.0,0.0,0.0,0.0,0.0,-3.6981,-3.7088,-3.6981,-3.6941,-3.6941,-3.6941,-3.6727,-3.634,-3.6166,-3.5859,-3.5458,-3.4776,0.0,0.0,0.0,0.0,0.0,-3.3547,-3.3601,-3.3855,-3.3534,-3.336,-3.3253,-3.3053,-3.2732,-3.2372,0.0,0.0,0.0,0.0,0.0,0.0,0.0,-1.798,-1.887,-2.0275,-2.0634,-2.1182,-2.2227,-2.1405,-2.1062,-2.1782,0.0,0.0,0.0,0.0,0.0,0.0,0.0,0.0,0.0,-1.7715,-1.7542,-1.6979,-1.7079,-1.7276,-1.7624,-1.7334,-1.702,0.0,0.0,0.0,0.0,0.0,0.0,0.0,-1.6429,-1.6537,-1.6573,0.0,0.0,0.0,0.0,0.0,0.0,0.0,0.0,0.0,0.0,0.0,0.0,0.0,-2.3019,-2.6112,-2.8942,-3.0769,-3.1508,-2.9896,-2.8302,-2.6375,-2.4045,-2.2388,-2.0722,-1.9042,-1.8726,-1.8605,-1.8324,-1.841,-1.8924,-2.0402,-2.0822,-2.1912,-2.4227,0.0,0.0,0.0,0.0,0.0,0.0,0.0,0.0,0.0,0.0,0.0,0.0,0.0,-3.6941,-3.6941,-3.6941,-3.6941,-3.6941,-3.6941,-3.6687,-3.6233,-3.6126,-3.5819,-3.5338,-3.4643,0.0,0.0,0.0,0.0,0.0,-3.3494,-3.3534,-3.3694,-3.3494,-3.3347,-3.3213,-3.2919,-3.2625,-3.2332,0.0,0.0,0.0,0.0,0.0,0.0,0.0,0.0,-1.8305,-1.9401,-1.9573,-2.0121,-2.1559,-2.0514,-2.0412,-2.2158,0.0,0.0,0.0,0.0,0.0,0.0,0.0,0.0,0.0,-1.8552,-1.8348,-1.8295,-1.8472,-1.8468,-1.7998,-1.8469,-1.7998,-1.6754,-1.6718,0.0,0.0,0.0,0.0,0.0,-1.6187,-1.6296,0.0,0.0,0.0,0.0,0.0,0.0,0.0,0.0,0.0,0.0,0.0,0.0,0.0,0.0,0.0,0.0,0.0,-2.8353,-2.988,-2.8693,-2.6955,-2.5219,-2.3304,-2.134,0.0,-1.8819,-1.8704,-1.8655,-1.8435,-1.8545,-1.8964,-1.9724,-2.0307,-2.1662,-2.4214,-2.7118,0.0,0.0,0.0,0.0,0.0,0.0,0.0,0.0,0.0,0.0,0.0,0.0,-3.6941,-3.6941,-3.6941,-3.6941,-3.6941,-3.6901,-3.6794,-3.654,-3.6193,-3.5912,-3.5631,-3.4736,0.0,0.0,0.0,0.0,0.0,-3.3414,-3.3414,-3.3414,-3.3387,-3.3213,-3.2946,-3.2625,-3.2345,-3.2064,0.0,0.0,0.0,0.0,0.0,0.0,0.0,0.0,0.0,0.0,-1.7826,-1.8254,-1.8905,-1.9179,-1.9487,0.0,0.0,0.0,0.0,0.0,0.0,0.0,0.0,0.0,0.0,-1.9775,-1.9638,-1.899,-1.8959,-1.9018,-1.9084,-1.8807,-1.8191,-1.7286,-1.6875,0.0,0.0,0.0,0.0,0.0,-1.626,-1.6404,0.0,0.0,0.0,0.0,-1.6767,-1.6923,0.0,0.0,0.0,0.0,0.0,0.0,0.0,0.0,-1.9086,-1.9774,-2.0755,0.0,-2.3606,-2.2757,-2.2568,-2.2057,0.0,-2.0232,0.0,0.0,0.0,0.0,0.0,-1.9271,-1.9712,-2.1404,-2.1565,-2.2473,-2.5298,0.0,0.0,0.0,0.0,0.0,0.0,0.0,0.0,0.0,0.0,0.0,0.0,0.0,-3.6941,-3.6941,-3.6941,-3.6941,-3.6941,-3.6727,-3.6687,-3.6834,-3.6086,-3.5819,-3.5939,-3.4817,0.0,0.0,0.0,0.0,-3.3414,-3.3414,-3.3414,-3.3387,-3.316,-3.304,-3.2919,-3.2398,-3.2158,-3.2064,0.0,0.0,0.0,0.0,0.0,0.0,0.0,0.0,0.0,0.0,0.0,0.0,0.0,0.0,0.0,0.0,0.0,0.0,0.0,0.0,0.0,0.0,0.0,0.0,-2.0603,-2.0468,-2.0498,-2.0586,-1.9794,-1.9775,-2.0358,-1.969,-1.886,-1.7817,-1.6923,0.0,0.0,0.0,0.0,-1.6103,-1.6103,0.0,0.0,0.0,0.0,0.0,-1.6477,-1.6694,0.0,-1.7056,-1.7443,-1.7829,0.0,0.0,0.0,0.0,-1.8264,-1.8654,-1.8778,-2.0165,-2.1432,-2.1021,-2.0896,-2.0818,-1.9961,0.0,0.0,0.0,0.0,0.0,0.0,0.0,0.0,-2.143,-2.1846,-2.3533,0.0,0.0,0.0,0.0,0.0,0.0,0.0,0.0,0.0,0.0,0.0,0.0,0.0,0.0,-3.6941,-3.6941,-3.6794,-3.6794,-3.6941,-3.6647,-3.6513,-3.654,-3.5792,-3.5444,-3.5444,-3.4536,0.0,0.0,0.0,0.0,-3.3414,-3.2325,-3.2423,-3.3213,-3.3187,-3.2933,-3.2559,-3.2372,-3.2131,-3.1877,0.0,0.0,0.0,0.0,0.0,0.0,0.0,0.0,0.0,0.0,0.0,0.0,0.0,0.0,0.0,0.0,0.0,0.0,0.0,0.0,0.0,0.0,0.0,-2.2004,-2.2004,-2.0982,-2.098,-2.1992,-2.0713,-2.0441,-2.1072,-2.0813,-1.9813,-1.8362,-1.6984,-1.6235,0.0,0.0,0.0,-1.5885,-1.5885,0.0,0.0,0.0,0.0,0.0,0.0,0.0,0.0,-1.6887,-1.7322,-1.7696,-1.7394,0.0,0.0,0.0,0.0,0.0,-1.8394,-1.9966,-2.1343,-2.0861,-2.0577,-2.0424,-1.9898,0.0,0.0,0.0,0.0,0.0,0.0,0.0,0.0,0.0,0.0,0.0,0.0,0.0,0.0,0.0,0.0,0.0,0.0,0.0,0.0,0.0,0.0,0.0,0.0,0.0,0.0,-3.6941,-3.6647,-3.662,-3.6861,-3.654,-3.6313,-3.6193,-3.5471,-3.5044,-3.487,-3.4202,-3.3881,0.0,0.0,0.0,-3.3227,-3.1617,-3.1617,-3.3,-3.32,-3.2799,-3.2131,-3.2332,-3.2091,-3.1664,0.0,0.0,0.0,0.0,0.0,0.0,0.0,0.0,0.0,0.0,0.0,0.0,0.0,0.0,0.0,0.0,0.0,0.0,0.0,0.0,0.0,0.0,-2.2158,-2.2004,-2.2004,-2.1593,-2.1434,-2.1556,-2.1392,-2.0997,-2.0485,-2.1508,-2.0889,-1.8741,-1.7487,-1.6573,-1.5885,0.0,0.0,-1.5885,-1.5885,0.0,0.0,0.0,0.0,0.0,0.0,0.0,0.0,-1.6392,-1.6767,-1.7129,-1.6622,0.0,0.0,0.0,0.0,0.0,-1.879,-2.0282,-2.1142,-1.9801,-1.9839,-1.9865,0.0,0.0,0.0,0.0,0.0,0.0,0.0,0.0,0.0,0.0,0.0,0.0,0.0,0.0,0.0,0.0,0.0,0.0,0.0,0.0,0.0,0.0,0.0,0.0,0.0,0.0,0.0,-3.6941,-3.6647,-3.654,-3.658,-3.6032,-3.6112,-3.6794,-3.5458,-3.5057,-3.5458,-3.4376,-3.3881,0.0,0.0,-3.3039,-3.3414,-3.3052,-3.2868,-3.2959,-3.2759,-3.2438,-3.2078,-3.1877,-3.1744,-3.1664,0.0,0.0,0.0,0.0,0.0,0.0,0.0,0.0,0.0,0.0,0.0,0.0,0.0,0.0,0.0,0.0,0.0,0.0,0.0,0.0,0.0,-2.2653,-2.2586,-2.2603,-2.2603,-2.2275,-2.2493,-2.3114,-2.2821,-2.2711,-2.2651,-2.1744,-2.0223,-1.8276,-1.7353,-1.6513,-1.5885,-1.5885,-1.5885,-1.5885,0.0,0.0,0.0,0.0,0.0,0.0,0.0,0.0,0.0,0.0,-1.6758,-1.7044,-1.7016,0.0,0.0,0.0,0.0,0.0,-1.8121,-1.936,-2.0234,-1.9859,-2.049,-2.0933,0.0,0.0,0.0,0.0,0.0,0.0,0.0,0.0,0.0,0.0,0.0,0.0,0.0,0.0,0.0,0.0,0.0,0.0,0.0,0.0,0.0,0.0,0.0,0.0,0.0,0.0,0.0,0.0,-3.65,-3.6353,-3.65,-3.5765,-3.5672,-3.6219,-3.507,-3.467,-3.4897,-3.4028,-3.3627,-3.3627,0.0,-3.2183,-3.32,-3.1816,-3.1784,-3.2732,-3.2599,-3.2265,-3.1851,-3.1717,-3.1664,-3.1664,0.0,0.0,0.0,0.0,0.0,0.0,0.0,0.0,0.0,0.0,0.0,0.0,0.0,0.0,0.0,0.0,0.0,0.0,0.0,0.0,-2.2449,-2.2636,-2.2997,-2.334,-2.3511,-2.3194,-2.3584,-2.4668,-2.442,-2.4341,-2.4453,-2.1808,-1.9727,-1.8143,-1.7237,-1.6513,-1.5885,-1.5885,-1.5885,-1.5885,0.0,0.0,0.0,0.0,0.0,0.0,0.0,0.0,0.0,0.0,0.0,0.0,0.0,0.0,0.0,-1.7025,-1.7141,-1.7378,-1.8093,-1.9013,-1.976,-2.0485,0.0,0.0,0.0,0.0,0.0,0.0,0.0,0.0,0.0,0.0,0.0,0.0,0.0,0.0,0.0,0.0,0.0,0.0,0.0,0.0,0.0,0.0,0.0,0.0,0.0,0.0,0.0,0.0,0.0,0.0,-3.634,-3.6153,-3.6299,-3.5565,-3.5338,-3.5618,-3.4736,-3.4322,-3.4295,-3.3694,-3.3374,-3.3307,-3.1478,-3.1641,-3.2988,-3.115,-3.1094,-3.2438,-3.2438,-3.2131,-3.1664,-3.1664,-3.1664,-3.1664,0.0,0.0,0.0,0.0,0.0,0.0,0.0,0.0,0.0,0.0,0.0,0.0,0.0,0.0,0.0,0.0,0.0,0.0,0.0,0.0,-2.2192,-2.2535,-2.3271,-2.399,-2.4675,-2.4633,-2.4795,-2.5001,-2.5621,-2.5512,-2.4494,-2.1932,-2.016,-1.9088,-1.8019,-1.6851,-1.5885,-1.5885,-1.5885,-1.5885,-1.5885,0.0,0.0,0.0,0.0,0.0,0.0,0.0,0.0,0.0,0.0,0.0,0.0,0.0,-1.6795,-1.6795,-1.6956,-1.7704,-1.9892,-2.0566,-2.0812,-2.2018,0.0,0.0,0.0,0.0,0.0,0.0,0.0,0.0,0.0,0.0,0.0,0.0,0.0,0.0,0.0,0.0,0.0,0.0,0.0,0.0,0.0,0.0,0.0,0.0,0.0,0.0,0.0,0.0,0.0,0.0,0.0,-3.5952,-3.5698,-3.5364,-3.5338,-3.5618,-3.4736,-3.4322,-3.4295,-3.3694,-3.3267,-3.3013,-3.2815,-3.2656,-3.2599,-3.239,-3.2204,-3.2131,-3.2131,-3.1944,-3.1664,-3.1664,-3.1664,-3.1664,0.0,0.0,0.0,0.0,0.0,0.0,0.0,0.0,0.0,0.0,0.0,0.0,0.0,0.0,0.0,0.0,0.0,0.0,0.0,0.0,-2.2004,-2.286,-2.3408,-2.3939,-2.4436,-2.608,-2.6766,-2.639,-2.5866,-2.5188,-2.4175,-2.171,-2.0067,-1.8889,-1.7547,-1.6779,-1.6368,-1.603,-1.5982,-1.6115,-1.5958,-1.5885,0.0,0.0,0.0,0.0,0.0,0.0,0.0,0.0,-1.6004,-1.6053,-1.672,-1.6892,-1.6917,-1.7365,-1.7527,-1.7654,-1.858,-1.9509,0.0,0.0,0.0,0.0,0.0,0.0,0.0,0.0,0.0,0.0,0.0,0.0,0.0,0.0,0.0,0.0,0.0,0.0,0.0,0.0,0.0,0.0,0.0,0.0,0.0,0.0,0.0,0.0,0.0,0.0,0.0,0.0,0.0,-3.5738,-3.5631,-3.5164,-3.4977,-3.5084,-3.4563,-3.4122,-3.3748,-3.3334,-3.2986,-3.2706,-3.2519,-3.2478,-3.2519,-3.2158,-3.2038,-3.2078,-3.1904,-3.177,-3.1664,-3.1664,-3.1664,-3.1664,0.0,0.0,0.0,0.0,0.0,0.0,0.0,0.0,0.0,0.0,0.0,0.0,0.0,0.0,0.0,0.0,0.0,0.0,0.0,-2.0977,-2.1696,-2.2723,-2.3357,-2.3922,-2.4401,-2.6902,-2.7802,-2.6869,-2.5773,-2.4709,-2.3745,-2.1407,-1.977,-1.8852,-1.7414,-1.6875,-1.6911,-1.6284,-1.6115,-1.626,-1.5994,-1.6004,0.0,0.0,0.0,0.0,0.0,0.0,0.0,0.0,-1.6172,-1.6282,-1.6904,-1.7152,-1.7376,-1.7792,-1.7804,-1.7804,-1.8045,-1.8778,-1.9649,0.0,0.0,0.0,0.0,0.0,0.0,0.0,0.0,0.0,0.0,0.0,0.0,0.0,0.0,0.0,0.0,0.0,0.0,0.0,0.0,0.0,0.0,0.0,0.0,0.0,0.0,0.0,0.0,0.0,0.0,0.0,0.0,0.0,-3.5364,-3.4963,-3.467,-3.4482,-3.4282,-3.3908,-3.34,-3.3106,-3.2772,-3.2398,-3.2185,-3.2171,-3.2238,-3.1837,-3.1784,-3.1944,-3.1744,-3.1664,-3.1664,-3.1664,-3.1664,-3.1664,0.0,0.0,0.0,0.0,0.0,0.0,0.0,0.0,0.0,0.0,0.0,0.0,0.0,0.0,0.0,0.0,0.0,0.0,0.0,-2.0446,-2.1199,-2.1953,-2.3049,-2.4008,-2.4778,-2.7004,-2.7409,-2.6055,-2.5201,-2.4292,-2.3132,-2.1015,-1.9683,-1.8988,-1.7681,-1.7237,-1.743,-1.6622,-1.6284,-1.626,-1.5994,-1.6111,-1.6324,0.0,0.0,0.0,0.0,0.0,0.0,0.0,-1.6294,-1.6683,-1.6089,-1.7114,-1.8411,-1.7802,-1.7804,-1.825,-1.9024,-1.8618,0.0,0.0,0.0,0.0,0.0,0.0,0.0,0.0,0.0,0.0,0.0,0.0,0.0,0.0,0.0,0.0,0.0,0.0,0.0,0.0,0.0,0.0,0.0,0.0,0.0,0.0,0.0,0.0,0.0,0.0,0.0,0.0,0.0,0.0,-3.4763,-3.475,-3.4469,-3.3881,-3.3881,-3.3708,-3.3387,-3.3106,-3.2652,-3.2104,-3.2104,-3.1931,-3.1664,-3.1664,-3.1664,-3.1664,-3.1664,-3.1664,-3.1664,-3.1664,-3.1664,-3.1664,0.0,0.0,0.0,0.0,0.0,0.0,0.0,0.0,0.0,0.0,0.0,0.0,0.0,0.0,0.0,0.0,0.0,0.0,0.0,-1.971,-2.024,-2.1525,-2.2175,-2.2603,-2.2826,-2.4094,-2.5386,-2.6816,-2.4547,-2.2828,-2.1753,-2.008,-1.9137,-1.8665,-1.9103,-1.8519,-1.728,-1.7741,-1.7239,-1.6272,-1.6199,-1.6392,-1.6609,0.0,0.0,0.0,0.0,0.0,0.0,0.0,0.0,0.0,-1.7525,-1.8415,-1.9155,-1.9193,-1.9232,-1.9181,-1.9011,-1.9533,0.0,0.0,0.0,0.0,0.0,0.0,0.0,0.0,0.0,0.0,0.0,0.0,0.0,0.0,0.0,0.0,0.0,0.0,0.0,0.0,0.0,0.0,0.0,0.0,0.0,0.0,0.0,0.0,0.0,0.0,0.0,0.0,0.0,0.0,-3.4456,-3.4242,-3.4055,-3.3881,-3.3454,-3.3093,-3.2799,-3.2706,-3.2358,-3.1797,-3.1797,-3.1744,-3.1664,-3.1664,-3.1664,-3.1664,-3.1664,-3.1664,-3.1664,-3.1664,-3.1664,-3.1664,0.0,0.0,0.0,0.0,0.0,0.0,0.0,0.0,0.0,0.0,0.0,0.0,0.0,0.0,0.0,0.0,0.0,0.0,0.0,0.0,-1.9778,-2.1131,-2.1559,-2.2107,-2.298,-2.3525,-2.4515,-2.5992,-2.4247,-2.2744,-2.1493,-2.0783,-2.027,-1.9813,-2.0204,-1.9517,-1.7803,-1.816,-1.7677,-1.6585,-1.6368,-1.6576,-1.6992,0.0,0.0,0.0,0.0,0.0,0.0,0.0,0.0,0.0,-1.7785,-1.8503,-1.9259,-1.9365,-1.947,-1.9417,-1.9231,0.0,0.0,0.0,0.0,0.0,0.0,0.0,0.0,0.0,0.0,0.0,0.0,0.0,0.0,0.0,0.0,0.0,0.0,0.0,0.0,0.0,0.0,0.0,0.0,0.0,0.0,0.0,0.0,0.0,0.0,0.0,0.0,0.0,0.0,0.0,-3.4148,-3.3855,-3.3641,-3.3521,-3.304,-3.2652,-3.2372,-3.2372,-3.2118,-3.1664,-3.1664,-3.1664,-3.1664,-3.1664,-3.1664,-3.1664,-3.1664,-3.1664,-3.1664,-3.1664,-3.1664,-3.1664,0.0,0.0,0.0,0.0,0.0,0.0,0.0,0.0,0.0,0.0,0.0,0.0,0.0,0.0,0.0,0.0,0.0,0.0,0.0,0.0,-1.9658,-2.0771,-2.1302,-2.2481,-2.4468,-2.4541,-2.435,-2.4038,-2.4166,-2.3399,-2.1964,-2.2324,-2.2244,-2.1658,-2.1253,-2.0104,-1.8577,-1.8215,-1.756,-1.6948,-1.6501,-1.6784,-1.7414,-1.7186,0.0,0.0,0.0,0.0,0.0,0.0,0.0,0.0,-1.7367,-1.8112,-1.903,-1.8931,-1.8906,-1.9129,-1.953,0.0,0.0,0.0,0.0,0.0,0.0,0.0,0.0,0.0,0.0,0.0,0.0,0.0,0.0,0.0,0.0,0.0,0.0,0.0,0.0,0.0,0.0,0.0,0.0,0.0,0.0,0.0,0.0,0.0,0.0,0.0,0.0,0.0,0.0,0.0,-3.3801,-3.3521,-3.3227,0.0,-3.2652,-3.2358,-3.2104,-3.2104,-3.1944,-3.1664,-3.1664,-3.1664,-3.1664,-3.1664,-3.1664,-3.1664,-3.1664,-3.1664,-3.1664,-3.1664,-3.1664,-3.1664,0.0,0.0,0.0,0.0,0.0,0.0,0.0,0.0,0.0,0.0,0.0,0.0,0.0,0.0,0.0,0.0,0.0,0.0,0.0,0.0,-1.9555,-2.0377,-2.1919,-2.3186,-2.4192,-2.3652,-2.3218,-2.3022,-2.2704,-2.2336,-2.1947,-2.1611,-2.1418,-2.1147,-2.1825,-2.0592,-1.8106,-1.8585,-1.7733,-1.6175,-1.6808,-1.6956,-1.6954,-1.7338,-1.7224,0.0,0.0,0.0,0.0,0.0,0.0,0.0,-1.835,-1.9115,-1.9814,-1.9337,-1.9548,-1.9787,0.0,0.0,0.0,0.0,0.0,0.0,0.0,0.0,0.0,0.0,0.0,0.0,0.0,0.0,0.0,0.0,0.0,0.0,0.0,0.0,0.0,0.0,0.0,0.0,0.0,0.0,0.0,0.0,0.0,0.0,0.0,0.0,0.0,0.0,0.0,-3.3721,-3.3173,-3.3106,-3.2919,0.0,-3.2332,-3.2171,-3.2104,-3.2104,-3.1944,-3.1664,-3.1664,-3.1664,-3.1664,-3.1664,-3.1664,-3.1664,-3.1664,-3.1664,-3.1664,-3.1664,-3.1664,-3.1664,0.0,0.0,0.0,0.0,0.0,0.0,0.0,0.0,0.0,0.0,0.0,0.0,0.0,0.0,0.0,0.0,0.0,0.0,0.0,0.0,0.0,-2.0771,-2.2295,-2.3324,-2.3753,-2.344,-2.3335,-2.3437,-2.2995,0.0,0.0,0.0,-2.2686,-2.2349,-2.2143,-2.0485,-1.7961,-1.8416,-1.7815,-1.6477,-1.6857,-1.7018,-1.7105,-1.7325,-1.7219,-1.6952,-1.6787,0.0,0.0,0.0,0.0,0.0,0.0,0.0,-1.9535,-1.9561,-1.9773,-2.0053,0.0,0.0,0.0,0.0,0.0,0.0,0.0,0.0,0.0,0.0,0.0,0.0,0.0,0.0,0.0,0.0,0.0,0.0,0.0,0.0,0.0,0.0,0.0,0.0,0.0,0.0,0.0,0.0,0.0,0.0,0.0,0.0,0.0,0.0,-3.3654,-3.344,-3.2986,-3.2839,-3.2625,-3.2332,-3.2038,-3.1891,-3.1891,-3.1891,-3.181,-3.1664,-3.1664,-3.1664,-3.1664,-3.1664,-3.1664,-3.1664,-3.1664,-3.1664,-3.1664,-3.1664,-3.1664,-3.1664,0.0,0.0,0.0,0.0,0.0,0.0,0.0,0.0,0.0,0.0,0.0,0.0,0.0,0.0,0.0,0.0,0.0,0.0,0.0,0.0,0.0,0.0,-2.2501,-2.3236,-2.3551,-2.3423,-2.371,-2.4262,0.0,0.0,0.0,0.0,0.0,-2.3608,-2.2249,-2.0234,-1.8046,-1.8003,-1.7658,-1.6936,-1.683,-1.6979,-1.7227,-1.7114,-1.7098,-1.6961,-1.6842,-1.6736,-1.6681,-1.7226,0.0,0.0,0.0,0.0,-1.903,-1.9389,-1.9707,-2.0,0.0,0.0,0.0,0.0,0.0,0.0,0.0,0.0,0.0,0.0,0.0,0.0,0.0,0.0,0.0,0.0,0.0,0.0,0.0,0.0,0.0,0.0,0.0,0.0,0.0,0.0,0.0,0.0,0.0,0.0,0.0,0.0,-3.3414,-3.3414,-3.336,-3.32,-3.2906,-3.2612,-3.2318,-3.2024,-3.1784,-3.1664,-3.1664,-3.1664,-3.1664,-3.1664,-3.1664,-3.1664,-3.1664,-3.1664,-3.1664,-3.1664,-3.1664,-3.1664,-3.1664,-3.1664,-3.1664,-3.1664,0.0,0.0,0.0,0.0,0.0,0.0,0.0,0.0,0.0,0.0,0.0,0.0,0.0,0.0,0.0,0.0,0.0,0.0,0.0,0.0,0.0,-2.2312,-2.2837,-2.3405,-2.4331,-2.3542,-2.3568,-2.4702,0.0,0.0,0.0,0.0,0.0,-2.311,0.0,0.0,-1.8629,-1.7415,-1.6683,-1.6392,-1.6685,-1.6698,-1.649,-1.6963,-1.6763,-1.6217,-1.6855,-1.6749,-1.6505,-1.7566,-1.7747,0.0,0.0,0.0,-1.8958,-1.8959,-1.9391,-1.9734,0.0,0.0,0.0,0.0,0.0,0.0,0.0,0.0,0.0,0.0,0.0,0.0,0.0,0.0,0.0,0.0,0.0,0.0,0.0,0.0,0.0,0.0,0.0,0.0,0.0,0.0,0.0,0.0,0.0,0.0,0.0,-3.3414,-3.3414,-3.3414,-3.316,-3.2893,-3.2612,-3.2305,-3.2011,-3.173,-3.169,-3.1664,-3.1664,-3.1664,-3.1664,-3.1664,-3.1664,-3.1664,-3.1664,-3.1664,-3.1664,-3.1664,-3.1664,-3.1664,-3.1664,-3.1664,-3.1664,-3.1664,0.0,0.0,0.0,0.0,0.0,0.0,0.0,0.0,0.0,0.0,0.0,0.0,0.0,0.0,0.0,0.0,0.0,0.0,0.0,0.0,0.0,-2.2175,-2.2542,-2.3085,-2.3852,-2.3414,-2.3538,0.0,0.0,0.0,0.0,-2.475,-2.4548,0.0,0.0,0.0,0.0,-1.8307,-1.7592,-1.7067,-1.6967,-1.6855,-1.6818,-1.6844,-1.6646,-1.6414,-1.68,-1.6736,-1.6612,-1.7508,-1.77,-1.769,-1.8352,0.0,0.0,0.0,0.0,0.0,0.0,0.0,0.0,0.0,0.0,0.0,0.0,0.0,0.0,0.0,0.0,0.0,0.0,0.0,0.0,0.0,0.0,0.0,0.0,0.0,0.0,0.0,0.0,0.0,0.0,0.0,0.0,0.0,0.0,0.0,-3.3414,-3.3414,-3.3334,-3.3173,-3.304,-3.2759,-3.2305,-3.2171,-3.1957,-3.1664,-3.1664,-3.1664,-3.1664,-3.1664,-3.1664,-3.1664,-3.1664,-3.1664,-3.1664,-3.1664,-3.1664,-3.1664,-3.1664,-3.1664,-3.1664,-3.1664,-3.1664,-3.1664,0.0,0.0,0.0,0.0,0.0,0.0,0.0,0.0,0.0,0.0,0.0,0.0,0.0,0.0,0.0,0.0,0.0,0.0,0.0,0.0,0.0,-2.1799,-2.223,-2.267,-2.3338,-2.3456,0.0,0.0,0.0,0.0,-2.4034,-2.5021,-2.526,0.0,-2.2746,0.0,0.0,0.0,0.0,-1.7869,-1.7616,-1.7301,-1.7261,-1.7018,-1.6892,-1.6804,-1.6807,0.0,0.0,0.0,0.0,0.0,0.0,0.0,0.0,0.0,0.0,0.0,0.0,0.0,0.0,0.0,0.0,0.0,0.0,0.0,0.0,0.0,0.0,0.0,0.0,0.0,0.0,0.0,0.0,0.0,0.0,0.0,0.0,0.0,0.0,0.0,0.0,0.0,0.0,0.0,0.0,0.0,-3.3307,-3.3307,-3.3173,-3.2879,-3.2799,-3.2545,-3.2104,-3.2024,-3.1877,-3.1664,-3.1664,-3.1664,-3.1664,-3.1664,-3.1664,-3.1664,-3.1664,-3.1664,-3.1664,-3.1664,-3.1664,-3.1664,-3.1664,-3.1664,-3.1664,-3.1664,-3.1664,-3.1664,0.0,0.0,0.0,0.0,0.0,0.0,0.0,0.0,0.0,0.0,0.0,0.0,0.0,0.0,0.0,-1.9621,0.0,0.0,0.0,0.0,0.0,-2.1405,-2.2091,0.0,-2.3338,-2.3456,0.0,0.0,0.0,0.0,-2.463,-2.4948,-2.5311,-2.5398,-2.3656,-2.2281,-2.1018,0.0,0.0,0.0,0.0,-1.8053,-1.7628,-1.7565,0.0,0.0,0.0,0.0,0.0,0.0,0.0,0.0,0.0,0.0,0.0,0.0,0.0,0.0,0.0,0.0,0.0,0.0,0.0,0.0,0.0,0.0,0.0,0.0,0.0,0.0,0.0,0.0,0.0,0.0,0.0,0.0,0.0,0.0,0.0,0.0,0.0,0.0,0.0,0.0,0.0,0.0,0.0,-3.3293,-3.3013,-3.3,-3.2866,-3.2572,-3.2291,-3.2131,-3.2104,-3.1824,-3.1677,-3.1664,-3.1664,-3.1664,-3.1664,-3.1664,-3.1664,-3.1664,-3.1664,-3.1664,-3.1664,-3.1664,-3.1664,-3.1664,-3.1664,-3.1664,-3.1664,-3.1664,-3.1664,-3.1664,0.0,0.0,0.0,0.0,0.0,0.0,0.0,0.0,0.0,0.0,0.0,0.0,0.0,-2.0798,-2.0525,-2.0138,-1.9966,0.0,0.0,0.0,0.0,-2.1674,-2.2461,-2.3064,-2.3438,0.0,0.0,0.0,0.0,-2.4402,-2.3201,-2.4952,-2.5348,-2.4405,-2.3761,-2.2761,-2.1611,-2.1152,0.0,0.0,0.0,0.0,0.0,0.0,0.0,0.0,0.0,0.0,0.0,0.0,0.0,0.0,0.0,0.0,0.0,0.0,0.0,0.0,0.0,0.0,0.0,0.0,0.0,0.0,0.0,0.0,0.0,0.0,0.0,0.0,0.0,0.0,0.0,0.0,0.0,0.0,0.0,0.0,0.0,0.0,0.0,0.0,0.0,0.0,0.0,0.0,0.0,0.0,-3.2986,-3.1591,-3.1163,-3.2265,-3.2158,-3.2011,-3.1824,-3.1717,-3.1664,-3.1664,-3.1664,-3.1664,-3.1664,-3.1664,-3.1664,-3.1664,-3.1664,-3.1664,-3.1664,-3.1664,-3.1664,-3.1664,-3.1664,-3.1664,-3.1664,-3.1664,-3.1664,-3.1664,0.0,0.0,0.0,0.0,0.0,0.0,0.0,0.0,0.0,0.0,0.0,0.0,0.0,0.0,-2.1449,-2.0812,-2.0853,-2.0945,-2.1037,-2.1497,-2.1925,-2.2171,-2.285,-2.3386,-2.3538,0.0,0.0,0.0,0.0,0.0,0.0,-2.4331,-2.4563,-2.3473,-2.3071,-2.2925,0.0,0.0,0.0,-2.0099,0.0,0.0,-1.8937,0.0,0.0,0.0,0.0,0.0,0.0,0.0,0.0,0.0,0.0,0.0,0.0,0.0,0.0,0.0,0.0,0.0,0.0,0.0,0.0,0.0,0.0,0.0,0.0,0.0,0.0,0.0,0.0,0.0,0.0,0.0,0.0,0.0,0.0,0.0,0.0,0.0,0.0,0.0,0.0,0.0,0.0,0.0,0.0,0.0,-3.2839,-3.115,-3.0869,-3.1971,-3.1957,-3.1864,-3.1677,-3.1664,-3.1664,-3.1664,-3.1664,-3.1664,-3.1664,-3.1664,-3.1664,-3.1664,-3.1664,-3.1664,-3.1664,-3.1664,-3.1664,-3.1664,-3.1664,-3.1664,-3.1664,-3.1664,-3.1664,-3.1664,0.0,0.0,0.0,0.0,0.0,0.0,0.0,0.0,0.0,0.0,0.0,0.0,0.0,0.0,0.0,-2.1839,-2.209,-2.209,-2.177,-2.2461,-2.277,-2.277,0.0,0.0,0.0,0.0,0.0,0.0,0.0,0.0,0.0,0.0,-2.3032,-2.2836,-2.1933,-2.259,-2.4531,0.0,-2.3262,-2.2425,0.0,-2.1038,-2.0658,0.0,0.0,0.0,-2.0174,-1.991,0.0,0.0,0.0,0.0,0.0,0.0,0.0,0.0,0.0,0.0,0.0,0.0,0.0,0.0,0.0,0.0,0.0,0.0,0.0,0.0,0.0,0.0,0.0,0.0,0.0,0.0,0.0,0.0,0.0,0.0,0.0,0.0,0.0,0.0,0.0,0.0,0.0,0.0,0.0,-3.2826,-3.2545,-3.2251,-3.1957,-3.1677,-3.1664,-3.1664,-3.1664,-3.1664,-3.1664,-3.1664,-3.1664,-3.1664,-3.1664,-3.1664,-3.1664,-3.1664,-3.1664,-3.1664,-3.1664,-3.1664,-3.1664,-3.1664,-3.1664,-3.1664,-3.1664,-3.1664,-3.1664,-3.1664,0.0,0.0,0.0,0.0,0.0,0.0,0.0,0.0,0.0,0.0,0.0,0.0,0.0,0.0,-2.2638,-2.2532,-2.2611,-2.2458,-2.1981,-2.2685,-2.2955,-2.2554,-2.3492,-2.4099,0.0,0.0,0.0,0.0,0.0,0.0,0.0,0.0,0.0,0.0,-2.1583,-2.2184,-2.3103,-2.2627,0.0,0.0,-2.2122,-2.1784,0.0,0.0,0.0,0.0,0.0,-2.1026,0.0,0.0,-1.9296,-1.8695,0.0,0.0,0.0,0.0,0.0,0.0,-1.7353,0.0,0.0,0.0,0.0,0.0,-2.3459,-2.4052,0.0,0.0,0.0,0.0,0.0,0.0,0.0,0.0,0.0,0.0,0.0,0.0,0.0,0.0,0.0,0.0,0.0,0.0,0.0,0.0,-3.1074,-3.0725,-3.2225,-3.1944,-3.1757,-3.1677,-3.1664,-3.1664,-3.1664,-3.1664,-3.1664,-3.1664,-3.1664,-3.1664,-3.1664,-3.1664,-3.1664,-3.1664,-3.1664,-3.1664,-3.1664,-3.1664,-3.1664,-3.1664,-3.1664,-3.1664,-3.1664,-3.1664,-3.1664,-3.1664,0.0,0.0,0.0,0.0,0.0,0.0,-2.0816,0.0,0.0,0.0,0.0,0.0,0.0,0.0,0.0,-2.3502,-2.3565,-2.3394,-2.2763,-2.3257,-2.3499,-2.3262,-2.398,-2.4537,-2.4572,0.0,0.0,0.0,0.0,0.0,0.0,0.0,0.0,0.0,0.0,0.0,0.0,0.0,0.0,0.0,-2.2154,0.0,0.0,-2.2616,-2.2615,0.0,0.0,0.0,-2.1992,-2.1399,-2.067,0.0,0.0,0.0,0.0,0.0,0.0,0.0,0.0,0.0,0.0,0.0,0.0,0.0,-2.2419,-2.3287,-2.4209,0.0,0.0,0.0,0.0,0.0,0.0,0.0,0.0,0.0,0.0,0.0,0.0,0.0,0.0,0.0,0.0,0.0,0.0,-3.2358,-3.1011,-3.087,-3.1931,-3.1757,-3.1664,-3.1664,-3.1664,-3.1664,-3.1664,-3.1664,-3.1664,-3.1664,-3.1664,-3.1664,-3.1664,-3.1664,-3.1664,-3.1664,-3.1664,-3.1664,-3.1664,-3.1664,-3.1664,-3.1664,-3.1664,-3.1664,-3.1664,-3.1664,-3.1664,-3.1664,0.0,0.0,0.0,-1.9078,-2.0013,-2.0656,-2.0405,0.0,0.0,0.0,0.0,0.0,0.0,0.0,0.0,0.0,-2.4579,-2.4445,-2.3673,-2.3737,-2.3818,-2.398,-2.4317,-2.4674,-2.4776,-2.5216,0.0,0.0,0.0,0.0,0.0,0.0,0.0,0.0,0.0,0.0,0.0,0.0,0.0,-2.2291,-2.1888,-2.2478,0.0,0.0,-2.3369,0.0,-2.3384,-2.3078,-2.2763,-2.2972,-2.2328,0.0,0.0,0.0,0.0,0.0,-1.8888,0.0,0.0,0.0,0.0,0.0,0.0,0.0,-2.2362,-2.3182,-2.3879,0.0,0.0,0.0,0.0,0.0,0.0,0.0,0.0,0.0,0.0,0.0,0.0,0.0,0.0,0.0,0.0,-3.1904,-3.2051,-3.2051,-3.2051,-3.1944,-3.1677,-3.1664,-3.1664,-3.1664,-3.1664,-3.1664,-3.1664,-3.1664,-3.1664,-3.1664,-3.1664,-3.1664,-3.1664,-3.1664,-3.1664,-3.1664,-3.1664,-3.1664,-3.1664,-3.1664,-3.1664,-3.1664,-3.1664,-3.1664,-3.1664,-3.1664,-3.1664,-3.1664,-1.7582,0.0,-1.7966,-1.8224,-1.9213,-2.0089,-2.0441,0.0,0.0,0.0,0.0,0.0,0.0,0.0,0.0,0.0,-2.419,-2.3548,-2.2771,-2.2013,-2.1762,-2.2368,-2.3028,-2.3821,-2.4776,-2.5472,-2.5017,0.0,0.0,0.0,0.0,0.0,0.0,0.0,0.0,0.0,0.0,0.0,0.0,-2.1102,-2.2094,0.0,-2.3925,-2.4161,-2.4128,-2.3912,-2.4179,-2.4104,-2.3708,0.0,-2.299,-2.2531,0.0,0.0,0.0,0.0,0.0,0.0,0.0,0.0,0.0,0.0,0.0,0.0,-2.1101,-2.1833,-2.2704,0.0,0.0,0.0,0.0,0.0,0.0,0.0,0.0,0.0,0.0,0.0,0.0,0.0,0.0,0.0,0.0,-3.1717,-3.1757,-3.1757,-3.1757,-3.173,-3.1677,-3.1664,-3.1664,-3.1664,-3.1664,-3.1664,-3.1664,-3.1664,-3.1664,-3.1664,-3.1664,-3.1664,-3.1664,-3.1664,-3.1664,-3.1664,-3.1664,-3.1664,-3.1664,-3.1664,-3.1664,-3.1664,-3.1664,-3.1664,-3.1664,-3.1664,-3.1664,-3.1664,-1.7582,0.0,0.0,-1.7996,-1.8468,-1.9094,-1.971,-1.9542,0.0,0.0,0.0,0.0,0.0,0.0,0.0,0.0,0.0,0.0,0.0,0.0,-2.1194,-2.1428,-2.194,-2.2632,-2.3357,-2.384,-2.3606,-2.2782,0.0,0.0,0.0,0.0,0.0,0.0,0.0,0.0,0.0,0.0,-1.9652,-2.0639,-2.1891,0.0,-2.4306,-2.4937,-2.4887,-2.4538,-2.4728,-2.4665,-2.4361,-2.4431,-2.4017,0.0,0.0,-2.2364,-2.1293,0.0,-2.0142,-1.9486,0.0,0.0,0.0,-2.0544,0.0,0.0,0.0,-2.1519,-2.1876,-2.2251,0.0,0.0,0.0,0.0,0.0,0.0,0.0,0.0,0.0,0.0,0.0,0.0,0.0,0.0,0.0,-3.1664,-3.1664,-3.1664,-3.1664,-3.1664,-3.1664,-3.1664,-3.1664,-3.1664,-3.1664,-3.1664,-3.1664,-3.1664,-3.1664,-3.1664,-3.1664,-3.1664,-3.1664,-3.1664,-3.1664,-3.1664,-3.1664,-3.1664,-3.1664,-3.1664,-3.1664,-3.1664,-3.1664,-3.1664,-3.1664,-3.1664,-3.1664,-3.1664,-1.7582,0.0,0.0,-1.7875,-1.7981,-1.822,-1.8918,-1.8958,0.0,0.0,0.0,0.0,0.0,0.0,0.0,0.0,0.0,0.0,0.0,0.0,0.0,-2.0773,-2.1164,-2.1522,-2.1814,-2.2129,-2.2164,-2.19,0.0,0.0,0.0,0.0,0.0,0.0,0.0,0.0,0.0,0.0,0.0,-2.0794,0.0,-2.3137,-2.431,-2.5203,-2.5169,-2.4789,-2.491,-2.4949,-2.4771,-2.5242,0.0,-2.4482,-2.5172,-2.3895,0.0,0.0,0.0,0.0,0.0,0.0,0.0,0.0,0.0,-2.1271,0.0,0.0,0.0,-2.0831,0.0,0.0,0.0,0.0,0.0,0.0,0.0,0.0,0.0,0.0,0.0,0.0,0.0,0.0,0.0,-3.0739,-3.1288,-3.165,-3.1664,-3.1664,-3.1664,-3.1664,-3.1664,-3.1664,-3.1664,-3.1664,-3.1664,-3.1664,-3.1664,-3.1664,-3.1664,-3.1664,-3.1664,-3.1664,-3.1664,-3.1664,-3.1664,-3.1664,-3.1664,-3.1664,-3.1664,-3.1664,-3.1664,-3.1664,-3.1664,-3.1664,-3.1664,-3.1664,-1.7371,-1.716,0.0,0.0,-1.7799,-1.8052,-1.9225,-1.9092,0.0,0.0,0.0,0.0,0.0,0.0,0.0,0.0,0.0,0.0,-2.2593,0.0,0.0,-2.017,-2.09,-2.1284,-2.1375,-2.237,-2.1978,-2.0027,-2.0338,0.0,0.0,0.0,0.0,0.0,-1.9359,0.0,0.0,0.0,-2.0925,0.0,-2.274,-2.3024,0.0,-2.4515,-2.4634,-2.3863,-2.4437,-2.504,-2.5157,0.0,-2.4368,-2.5441,0.0,-2.3132,0.0,0.0,0.0,0.0,0.0,0.0,0.0,0.0,-2.2727,0.0,0.0,0.0,-2.0374,-1.9331,0.0,0.0,0.0,0.0,0.0,0.0,0.0,0.0,0.0,0.0,0.0,0.0,0.0,0.0,0.0,0.0,-2.9512,-3.161,-3.1664,-3.1664,-3.1664,-3.1664,-3.1664,-3.1664,-3.1664,-3.1664,-3.1664,-3.1664,-3.1664,-3.1664,-3.1664,-3.1664,-3.1664,-3.1664,-3.1664,-3.1664,-3.1664,-3.1664,-3.1664,-3.1664,-3.1664,-3.1664,-3.1664,-3.1664,-3.1664,-3.1664,-3.1664,-3.1664,-1.6524,-1.6863,0.0,0.0,-1.8072,-1.8651,-1.9305,-1.9987,0.0,0.0,0.0,0.0,0.0,0.0,0.0,0.0,0.0,0.0,0.0,0.0,0.0,0.0,0.0,0.0,-1.9857,-2.0168,-2.0158,-1.957,-1.9529,-1.933,0.0,0.0,0.0,0.0,-1.9292,0.0,-1.9965,0.0,0.0,0.0,0.0,0.0,0.0,-2.4759,-2.505,-2.4698,-2.5111,-2.52,-2.4975,0.0,-2.4621,0.0,0.0,0.0,0.0,0.0,0.0,0.0,0.0,0.0,0.0,0.0,0.0,0.0,0.0,0.0,-1.9026,0.0,0.0,0.0,0.0,0.0,0.0,0.0,0.0,0.0,0.0,0.0,0.0,0.0,0.0,0.0,0.0,0.0,0.0,0.0,0.0,-2.9286,-2.9077,-3.0822,-3.1664,-3.1664,-3.1664,-3.1664,-3.1664,-3.1664,-3.1664,-3.1664,-3.1664,-3.1664,-3.1664,-3.1664,-3.1664,-3.1664,-3.1664,-3.1664,-3.1664,-3.1664,-3.1664,-3.1664,-3.1664,-3.1664,-3.1664,-3.1664,-3.1664,-3.1664,-1.5658,0.0,0.0,0.0,0.0,-1.8262,-1.9179,-2.0077,0.0,0.0,0.0,0.0,-2.2873,-2.2638,0.0,0.0,0.0,-2.1606,0.0,0.0,-1.9733,0.0,0.0,0.0,0.0,0.0,-1.8905,-1.9239,-1.9025,-1.9078,0.0,0.0,0.0,0.0,0.0,-1.9929,-2.0342,0.0,0.0,-2.2624,-2.378,-2.4123,-2.3961,-2.5041,-2.5455,-2.5476,-2.5597,-2.531,-2.4781,-2.4176,-2.4749,0.0,-2.4418,0.0,0.0,0.0,0.0,0.0,-2.3888,0.0,0.0,0.0,0.0,0.0,0.0,0.0,0.0,0.0,0.0,0.0,0.0,0.0,0.0,0.0,0.0,0.0,0.0,0.0,0.0,0.0,0.0,0.0,0.0,0.0,0.0,-2.6151,-2.7209,-2.7586,-2.7293,-3.0108,-3.1664,-3.1664,-3.1664,-3.1664,-3.1664,-3.1664,-3.1664,-3.1664,-3.1664,-3.1664,-3.1664,-3.1664,-3.1664,-3.1664,-3.1664,-3.1664,-3.1664,-3.1664,-3.1664,-3.1664,-3.1664,-3.1664,-3.1664,-3.1664,-3.1664,-3.1664,-1.4928,-1.5043,0.0,0.0,0.0,0.0,0.0,0.0,0.0,0.0,0.0,0.0,0.0,0.0,0.0,0.0,0.0,-2.2506,-2.3326,0.0,-2.0548,0.0,0.0,0.0,0.0,0.0,0.0,-1.8945,-1.8931,0.0,0.0,0.0,0.0,0.0,0.0,-2.0644,-2.1573,-2.2257,-2.3304,-2.4424,-2.4887,-2.5403,-2.5775,0.0,-2.514,-2.5426,-2.5455,0.0,0.0,-2.3806,-2.4389,0.0,0.0,0.0,0.0,0.0,0.0,0.0,0.0,0.0,0.0,-2.4369,0.0,0.0,0.0,0.0,-1.6859,0.0,0.0,0.0,0.0,0.0,0.0,0.0,0.0,0.0,0.0,0.0,0.0,0.0,0.0,0.0,0.0,0.0,0.0,-2.4033,-2.6142,-2.7561,-2.7839,-3.0306,-3.1664,-3.1664,-3.1664,-3.1664,-3.1664,-3.1664,-3.1664,-3.1664,-3.1664,-3.1664,-3.1664,-3.1664,-3.1664,-3.1664,-3.1664,-3.1664,-3.1664,-3.1664,-3.1664,-3.1664,-3.1664,-3.1664,-3.1664,-3.1664,-3.1664,-3.1664,0.0,0.0,0.0,0.0,0.0,0.0,0.0,-1.9509,0.0,0.0,0.0,0.0,0.0,0.0,-2.6209,0.0,0.0,-2.5332,-2.4801,-2.3652,0.0,0.0,0.0,-2.0681,0.0,0.0,0.0,0.0,0.0,0.0,0.0,0.0,0.0,0.0,0.0,-2.0281,0.0,0.0,0.0,0.0,0.0,-2.6272,-2.6747,0.0,0.0,-2.5327,-2.5327,-2.5229,0.0,-2.3629,-2.447,-2.5798,-2.4937,-2.448,-2.4667,-2.6719,-2.541,0.0,0.0,0.0,-2.6182,-2.66,0.0,0.0,0.0,0.0,0.0,0.0,0.0,0.0,0.0,0.0,0.0,-1.537,-1.4902,0.0,0.0,0.0,0.0,0.0,0.0,0.0,0.0,0.0,0.0,-2.0407,-2.1401,-2.2053,0.0,-2.6598,-2.9105,-2.9105,-3.0782,-3.1664,-3.1664,-3.1664,-3.1664,-3.1664,-3.1664,-3.1664,-3.1664,-3.1664,-3.1664,-3.1664,-3.1664,-3.1664,-3.1664,-3.1664,-3.1664,-3.1664,-3.1664,-3.1664,-3.1664,-3.1664,-3.1664,-3.1664,-1.5624,0.0,0.0,0.0,0.0,0.0,0.0,0.0,0.0,0.0,-2.3959,0.0,-2.7826,0.0,-2.7727,0.0,-2.7875,-2.6732,-2.5293,-2.4534,0.0,-2.2955,-2.2102,0.0,0.0,0.0,0.0,0.0,0.0,-1.9891,0.0,0.0,0.0,0.0,0.0,0.0,-2.0958,0.0,-2.3201,0.0,0.0,-2.6858,0.0,0.0,-2.6271,-2.566,0.0,-2.5404,-2.5152,-2.4364,-2.5062,-2.6069,-2.5413,-2.5312,-2.5577,-2.7051,-2.6027,-2.4765,-2.706,-2.7158,0.0,-2.7516,-2.5801,0.0,-2.2967,0.0,0.0,0.0,0.0,0.0,0.0,0.0,0.0,-1.4337,-1.3882,-1.357,0.0,-1.3107,0.0,0.0,0.0,0.0,0.0,0.0,-1.6756,-1.7207,-1.8317,-1.9084,0.0,0.0,-2.7751,-2.7852,-3.0333,-3.1664,-3.1664,-3.1664,-3.1664,-3.1664,-3.1664,-3.1664,-3.1664,-3.1664,-3.1664,-3.1664,-3.1664,-3.1664,-3.1664,-3.1664,-3.1664,-3.1664,-3.1664,-3.1664,-3.1664,-3.1664,-3.1664,-3.1664,0.0,0.0,0.0,0.0,-1.6331,0.0,0.0,0.0,-2.1202,0.0,-2.4839,-2.6252,-2.8892,-2.8576,-2.8548,-2.9615,-2.862,0.0,-2.5251,-2.513,0.0,0.0,-2.2568,-2.2705,-2.2756,0.0,0.0,0.0,0.0,0.0,0.0,0.0,0.0,0.0,-2.0267,0.0,-2.1276,-2.314,-2.4148,-2.4596,-2.6267,-2.7237,-2.7842,-2.7856,0.0,-2.629,-2.6276,-2.5869,-2.5585,-2.5879,-2.6172,-2.6466,-2.6774,-2.7054,-2.7348,-2.7655,-2.7736,-2.7802,-2.811,-2.8404,-2.8364,-2.7228,0.0,0.0,0.0,0.0,-2.319,0.0,0.0,0.0,0.0,0.0,0.0,-1.4974,-1.4005,-1.3476,0.0,0.0,0.0,0.0,0.0,0.0,0.0,-1.7005,-1.7402,-1.4509,-1.6912,-1.8778,0.0,0.0,-2.7247,-2.7864,-3.0069,-3.1394,-3.1664,-3.1637,-3.1637,-3.1664,-3.1664,-3.1664,-3.1664,-3.1664,-3.1664,-3.1664,-3.1664,-3.1664,-3.1664,-3.1664,-3.1664,-3.1664,-3.1664,-3.1664,-3.1664,-3.1664,-3.1664,-3.1664,-1.5894,-1.6043,-1.6473,0.0,-1.7213,-1.778,0.0,0.0,0.0,0.0,-2.6114,-2.7735,-2.9581,-3.0035,-3.025,-3.0189,-2.9555,0.0,0.0,0.0,0.0,-2.6173,-2.4874,-2.4326,-2.4531,-2.3339,0.0,-2.3199,0.0,0.0,-2.1162,0.0,0.0,0.0,0.0,0.0,-2.0917,-2.2869,-2.4606,-2.5983,-2.6932,-2.7367,0.0,0.0,-2.7593,-2.6906,-2.6682,-2.635,-2.5892,-2.6186,-2.6466,-2.68,-2.7308,-2.7522,-2.7696,-2.8217,-2.8377,-2.843,-2.8724,-2.8871,-2.8911,-2.8818,-2.7175,-2.5754,0.0,0.0,0.0,0.0,0.0,0.0,0.0,0.0,0.0,0.0,-1.5326,-1.3523,0.0,0.0,0.0,-1.3589,0.0,0.0,-1.3948,-1.4586,-1.4739,-1.3873,-1.4712,0.0,0.0,0.0,0.0,-2.79,-2.7374,-2.8477,-3.165,-3.0272,-3.0272,-3.1664,-3.1664,-3.1664,-3.1664,-3.1664,-3.1664,-3.1664,-3.1664,-3.1664,-3.1664,-3.1664,-3.1664,-3.1664,-3.1664,-3.1664,-3.1664,-3.1664,-3.1664,-3.1664,-1.5861,0.0,0.0,-1.7485,0.0,0.0,-2.0786,0.0,0.0,-2.512,-2.6687,0.0,-2.9391,-3.0658,-3.1191,-3.0805,-3.0177,0.0,0.0,0.0,0.0,-2.6984,-2.6031,-2.5607,-2.5788,-2.4367,0.0,-2.469,0.0,0.0,-2.1923,-2.0145,0.0,0.0,0.0,-2.0429,0.0,-2.3064,-2.5143,-2.6981,-2.7364,0.0,0.0,-2.7919,-2.7692,-2.7353,-2.7031,-2.6547,-2.636,-2.652,-2.6854,-2.7268,-2.7589,-2.7883,-2.8163,-2.8511,-2.8698,-2.8831,-2.8991,-2.9138,-2.9272,-2.9446,-2.8591,-2.7628,-2.7927,-2.7157,-2.6204,0.0,0.0,0.0,0.0,0.0,0.0,0.0,0.0,0.0,0.0,0.0,0.0,0.0,-1.4893,0.0,-1.3756,-1.3721,-1.3712,-1.3438,-1.3958,0.0,0.0,0.0,0.0,-2.4708,-2.6366,-2.7757,-2.9014,-2.8013,-2.857,-3.0324,-3.0324,-3.0844,-3.1664,-3.1664,-3.1664,-3.1664,-3.1664,-3.1664,-3.1664,-3.1664,-3.1664,-3.1664,-3.1664,-3.1664,-3.1664,-3.1664,-3.1664,-3.1664,0.0,0.0,0.0,0.0,0.0,0.0,0.0,-2.2153,0.0,-2.5701,0.0,-2.828,-2.9123,-3.0829,-3.1614,-3.0934,0.0,-2.9349,-2.8368,-2.7928,-2.7387,-2.6594,-2.6594,-2.6641,-2.6803,-2.5325,0.0,0.0,0.0,-2.1897,-2.2608,-2.0427,0.0,0.0,0.0,0.0,0.0,-2.3565,-2.5712,-2.7347,-2.7366,-2.7683,-2.8308,-2.7792,-2.7605,-2.7476,-2.7231,-2.6932,-2.6827,-2.6867,-2.7241,-2.7709,-2.7749,-2.815,-2.8617,-2.8657,-2.8871,-2.9112,-2.9152,-2.9339,-2.9553,-2.9593,-2.9793,-3.0047,-3.0354,-3.0421,-3.0488,-3.0742,-3.0822,-3.0162,0.0,0.0,0.0,0.0,0.0,0.0,0.0,0.0,0.0,0.0,0.0,0.0,0.0,-1.3769,-1.3721,0.0,0.0,0.0,0.0,0.0,0.0,-2.0993,-2.5843,0.0,-2.5815,0.0,-2.7152,-2.9005,-2.8756,-2.9755,-3.1664,-3.1664,-3.1664,-3.1664,-3.1664,-3.1664,-3.1664,-3.1664,-3.1664,-3.1664,-3.1664,-3.1664,-3.1664,-3.1664,-3.1664,-3.1664,0.0,0.0,0.0,0.0,0.0,-2.1974,-2.3773,-2.5275,-2.6544,-2.7038,-2.9343,0.0,-3.0657,-3.1389,-3.1557,-3.1012,-3.0646,0.0,0.0,0.0,0.0,-2.786,-2.7715,-2.7463,-2.7132,-2.5818,-2.5613,0.0,-2.33,-2.2071,-2.2538,-2.0415,-1.9372,-1.9386,0.0,0.0,-2.3106,-2.4337,0.0,-2.6886,-2.7201,-2.753,-2.7817,-2.786,-2.7735,-2.7504,-2.7464,-2.7108,-2.6854,-2.7108,-2.7415,-2.7749,-2.7989,-2.831,-2.8657,-2.8898,-2.9179,-2.9459,-2.97,-2.9806,-2.99,-3.014,-3.0247,-3.0354,-3.0648,-3.0715,-3.0728,-3.0782,-3.0982,-3.1089,-3.069,0.0,0.0,0.0,0.0,0.0,0.0,0.0,0.0,0.0,0.0,0.0,0.0,0.0,0.0,0.0,0.0,0.0,0.0,0.0,0.0,0.0,-2.3123,0.0,0.0,0.0,-2.7706,-3.1125,-2.9505,-2.9755,-3.1664,-3.1664,-3.1664,-3.1664,-3.1664,-3.1664,-3.1664,-3.1664,-3.1664,-3.1664,-3.1664,-3.1664,-3.1664,-3.1664,-3.1664,-3.1664,0.0,0.0,0.0,0.0,0.0,0.0,0.0,-2.7661,0.0,-2.789,-2.9027,-2.9843,-2.9903,-3.1018,-3.1533,-3.1165,-3.0834,-3.048,-3.0034,-2.9533,-2.893,-2.8463,-2.8029,0.0,-2.7553,-2.586,-2.5703,-2.6892,-2.3235,-2.2097,-2.2974,-2.051,-1.9475,-1.9631,0.0,-2.1477,0.0,0.0,0.0,-2.6276,-2.688,-2.7221,-2.7494,-2.7494,-2.7381,-2.7217,-2.72,-2.7082,-2.7094,-2.7388,-2.7682,-2.7976,-2.8283,-2.8591,-2.8885,-2.9179,-2.9472,-2.974,-2.9873,-2.9913,-2.998,-3.0287,-3.0354,-3.0474,-3.0915,-3.1022,-3.1062,-3.1209,-3.1356,-3.0982,-2.9339,-2.7005,0.0,0.0,0.0,0.0,0.0,0.0,0.0,0.0,0.0,0.0,0.0,0.0,0.0,0.0,0.0,0.0,0.0,0.0,0.0,0.0,0.0,0.0,0.0,0.0,0.0,-3.0058,-2.9216,-2.9755,-3.1664,-3.1664,-3.1664,-3.1664,-3.1664,-3.1664,-3.1664,-3.1664,-3.1664,-3.1664,-3.1664,-3.1664,-3.1664,-3.1664,-3.1664,-3.1664,0.0,-1.9878,0.0,0.0,-2.389,0.0,0.0,-2.9207,-3.0177,-2.8958,-2.8898,-2.9127,-2.9562,-3.0926,-3.1698,-3.1409,-3.0963,-3.0665,-3.0346,-2.9641,-2.8942,-2.8741,-2.8186,-2.7828,-2.7657,-2.603,-2.5719,0.0,-2.326,-2.2147,-2.3144,-2.0792,-1.9708,0.0,0.0,0.0,0.0,0.0,-2.485,-2.591,-2.6509,-2.6999,-2.7186,-2.7031,-2.7112,-2.7168,-2.6974,-2.7108,-2.7402,-2.7696,-2.7989,-2.8283,-2.8524,-2.8845,-2.9179,-2.9419,-2.9686,-2.9913,-2.9913,-2.9967,-3.0087,-3.0381,-3.0501,-3.0675,-3.1196,-3.1316,-3.1383,-3.1623,-3.1664,-3.0861,-2.8398,-2.7673,0.0,0.0,0.0,0.0,0.0,0.0,0.0,0.0,0.0,0.0,0.0,0.0,0.0,0.0,0.0,0.0,0.0,0.0,0.0,0.0,0.0,-2.4626,-2.5275,0.0,-2.7092,0.0,-2.8955,-2.9755,-3.1664,-3.1664,-3.1664,-3.1664,-3.1664,-3.1664,-3.1664,-3.1664,-3.1664,-3.1664,-3.1664,-3.1664,-3.1664,-3.1664,-3.1664,-3.1664,0.0,0.0,0.0,0.0,0.0,0.0,0.0,-2.9405,-3.0636,-3.0721,-3.1167,-3.1493,-3.1541,-3.1698,-3.1698,-3.1409,-3.1384,-3.1155,-3.0612,-3.0322,-2.9815,-2.9019,-2.8451,-2.792,-2.7401,-2.6315,-2.5677,0.0,0.0,-2.2689,-2.2258,-2.0886,-2.031,0.0,0.0,0.0,0.0,-2.4286,-2.5133,-2.6074,-2.653,-2.6878,-2.7186,-2.6721,-2.6936,-2.7483,-2.7284,-2.7415,-2.7709,-2.8003,-2.831,-2.8564,-2.8591,-2.8991,-2.9446,-2.9472,-2.9686,-2.9913,-2.9913,-3.0114,-3.0394,-3.0675,-3.0955,-3.1236,-3.1557,-3.1623,-3.1637,-3.1664,-3.1664,-3.1623,-3.1261,-2.9171,-2.6498,0.0,0.0,0.0,0.0,0.0,0.0,0.0,0.0,0.0,0.0,-1.6025,0.0,0.0,0.0,0.0,0.0,0.0,0.0,-2.059,0.0,-2.23,-2.4625,-2.5218,-2.7476,-3.1381,-2.9517,-2.9755,-3.1664,-3.1664,-3.1664,-3.1664,-3.1664,-3.1664,-3.1664,-3.1664,-3.1664,-3.1664,-3.1664,-3.1664,-3.1664,-3.1664,-3.1664,-3.1664,0.0,0.0,0.0,0.0,0.0,0.0,0.0,-3.0262,-3.0938,-3.1191,-3.1421,-3.1674,-3.2012,-3.1904,-3.1759,-3.165,-3.1481,-3.1228,-3.0865,-3.0286,-2.9743,-2.9272,-2.8572,-2.8029,-2.7667,-2.6773,-2.6224,0.0,0.0,0.0,-2.2397,-2.0806,0.0,0.0,0.0,-2.2557,-2.3044,-2.3702,-2.4518,-2.5295,-2.5913,-2.6411,-2.6697,-2.7045,-2.7105,-2.7055,-2.7362,-2.7602,-2.7749,-2.8043,-2.835,-2.8631,-2.8818,-2.9152,-2.9513,-2.9686,-2.982,-2.9953,-3.014,-3.0274,-3.0474,-3.0942,-3.1142,-3.1303,-3.1597,-3.1664,-3.1664,-3.1664,-3.1664,-3.1664,-3.1664,-3.0716,-2.9171,0.0,0.0,0.0,0.0,0.0,0.0,0.0,0.0,0.0,0.0,0.0,-1.6892,0.0,0.0,0.0,0.0,0.0,0.0,-2.2157,0.0,-2.4956,-2.8754,-2.7706,-2.8703,-3.1664,-3.0857,-3.0857,-3.1664,-3.1664,-3.1664,-3.1664,-3.1664,-3.1664,-3.1664,-3.1664,-3.1664,-3.1664,-3.1664,-3.1664,-3.1664,-3.1664,-3.1664,-3.1664,-2.4121,0.0,-2.4663,0.0,-2.7413,-2.7774,-2.9307,-3.0082,-3.0539,-3.0384,-3.0953,-3.1437,-3.2036,-3.1916,-3.1771,-3.1698,-3.1433,-3.1167,-3.0902,-3.0202,-2.9682,-2.9417,-2.8717,0.0,-2.7824,-2.7123,-2.6674,-2.6475,-2.4073,0.0,0.0,0.0,0.0,0.0,-2.2682,-2.3039,-2.3302,-2.3798,-2.4327,-2.4907,-2.57,-2.6308,-2.652,-2.7203,-2.7338,-2.7134,-2.7549,-2.7749,-2.7883,-2.8177,-2.8484,-2.8764,-2.8978,-2.9299,-2.9646,-2.986,-2.9913,-2.998,-3.0274,-3.0421,-3.0608,-3.1102,-3.1289,-3.141,-3.1623,-3.1664,-3.1664,-3.1664,-3.1664,-3.1664,-3.1664,-3.1664,-3.0782,-2.8156,0.0,0.0,0.0,0.0,0.0,0.0,-2.4472,-2.3643,-2.6425,-2.1847,0.0,0.0,0.0,0.0,0.0,0.0,0.0,0.0,0.0,0.0,0.0,-2.8207,-2.8938,-3.1664,-3.1664,-3.1664,-3.1664,-3.1664,-3.1664,-3.1664,-3.1664,-3.1664,-3.1664,-3.1664,-3.1664,-3.1664,-3.1664,-3.1664,-3.1664,-3.1664,-3.1664,-3.1664,-2.524,-2.5537,-2.6085,-2.7867,-2.8164,-2.7884,-2.7176,-2.8401,-2.9035,-2.8249,-2.9706,-3.1142,-3.1807,-3.1807,-3.1698,-3.1421,-3.1155,-3.089,-3.0624,-3.0105,-2.9682,0.0,0.0,-2.8367,-2.7824,-2.7292,-2.6761,-2.6218,0.0,0.0,-2.4442,0.0,-2.372,-2.3442,-2.3973,-2.4347,-2.4576,-2.4825,-2.5037,-2.545,-2.6272,-2.6613,-2.6613,-2.7105,-2.7442,-2.7682,-2.7696,-2.7883,-2.819,-2.8497,-2.8791,-2.9032,-2.9045,-2.9446,-2.9913,-2.9913,-2.9913,-2.998,-3.0274,-3.0568,-3.0862,-3.1156,-3.145,-3.1664,-3.1664,-3.1664,-3.1664,-3.1664,-3.1664,-3.1664,-3.1664,-3.1664,-3.0716,-2.7889,0.0,0.0,0.0,0.0,0.0,0.0,-2.1436,-2.0669,-2.3086,0.0,0.0,0.0,0.0,0.0,0.0,0.0,0.0,-2.0457,-1.8578,0.0,-2.4182,-2.5208,-2.7634,-3.1664,-3.1664,-3.1664,-3.1664,-3.1664,-3.1664,-3.1664,-3.1664,-3.1664,-3.1664,-3.1664,-3.1664,-3.1664,-3.1664,-3.1664,-3.1664,-3.1664,-3.1664,-3.1664,-2.2955,-2.4556,-2.6005,-2.6562,-2.7481,-2.8212,-2.8246,-2.8696,-2.9096,-2.91,-2.9686,-3.0233,-3.0882,-3.1485,-3.1698,0.0,-3.0025,-2.9386,0.0,-2.8664,-2.8061,-2.9417,-2.7502,-2.6297,-2.5973,-2.5649,-2.5247,-2.4574,0.0,0.0,0.0,-2.3872,-2.4124,-2.4806,-2.4794,-2.483,-2.489,-2.479,-2.4882,-2.5298,-2.5627,-2.5956,-2.6146,-2.6835,-2.7131,-2.7236,-2.7769,-2.8056,-2.819,-2.8497,-2.8804,-2.9072,-2.9285,-2.9606,-2.9913,-2.9913,-3.006,-3.0287,-3.0581,-3.0862,-3.1156,-3.145,-3.1597,-3.1664,-3.1664,-3.1664,-3.1664,-3.1664,-3.1664,-3.1664,-3.1664,-3.1664,-3.0769,-2.8144,-2.9495,0.0,0.0,0.0,0.0,0.0,-2.4435,-2.3478,0.0,-2.3698,0.0,0.0,0.0,0.0,0.0,0.0,0.0,0.0,-2.5204,0.0,-2.9286,-2.8157,-2.8926,-3.1664,-3.1664,-3.1664,-3.1664,-3.1664,-3.1664,-3.1664,-3.1664,-3.1664,-3.1664,-3.1664,-3.1664,-3.1664,-3.1664,-3.1664,-3.1664,-3.1664,-3.1664,-3.1664,-2.2936,-2.4349,-2.556,-2.6062,-2.6743,-2.7481,-2.7524,-2.7972,-2.8302,-2.8131,-2.8756,-2.9557,-2.9978,-3.0763,0.0,-3.1252,-2.9874,-2.948,-3.0624,-2.8866,-2.8261,-2.9417,-2.7708,-2.6489,-2.614,0.0,0.0,-2.5001,-2.5208,-2.5068,-2.4651,-2.4651,-2.5083,-2.5723,-2.5566,-2.5433,-2.5325,-2.5156,-2.5191,-2.5273,-2.5595,-2.5762,-2.612,-2.6633,-2.7032,-2.7239,-2.7746,-2.8047,-2.8364,-2.8671,-2.8965,-2.9259,-2.9553,-2.9766,-2.994,-3.0047,-3.0221,-3.0448,-3.0849,-3.1089,-3.1289,-3.1597,-3.1664,-3.1664,-3.1664,-3.1664,-3.1664,-3.1664,-3.1664,-3.1664,-3.1664,-3.1664,-3.1181,-2.952,-3.0835,-3.1567,-3.0298,0.0,0.0,0.0,0.0,0.0,0.0,-2.6178,0.0,0.0,0.0,0.0,0.0,0.0,0.0,-2.6056,-2.6802,0.0,-3.0238,-2.9174,-2.9589,-3.1664,-3.1664,-3.1664,-3.1664,-3.1664,-3.1664,-3.1664,-3.1664,-3.1664,-3.1664,-3.1664,-3.1664,-3.1664,-3.1664,-3.1664,-3.1664,-3.1664,-3.1664,-3.1664,-2.4398,-2.4683,0.0,0.0,-2.605,0.0,-2.5121,-2.6348,-2.6808,-2.5535,-2.7113,-2.8678,-2.9294,-2.9724,-3.0349,-3.095,0.0,0.0,0.0,-2.9855,-2.9447,-2.9393,-2.868,-2.8164,-2.7661,-2.7373,-2.7109,-2.7027,-2.6785,-2.6532,-2.6278,-2.6278,-2.6278,-2.6278,-2.6254,-2.6109,-2.588,-2.5868,-2.5711,-2.5494,-2.597,-2.6128,-2.6128,-2.6626,-2.6965,-2.7487,-2.75,-2.8023,-2.8657,-2.8965,-2.9259,-2.9539,-2.982,-2.9927,-3.0007,-3.0274,-3.0381,-3.0515,-3.1076,-3.1236,-3.1316,-3.1597,-3.1664,-3.1664,-3.1664,-3.1664,-3.1664,-3.1664,-3.1664,-3.1664,-3.1664,-3.1664,-3.1664,-3.1664,-3.1704,-3.1864,-3.2278,0.0,0.0,0.0,0.0,0.0,0.0,-2.794,-2.8131,0.0,0.0,0.0,0.0,0.0,-2.1209,-2.4329,-2.4861,-2.6109,-2.8357,-2.8703,-2.9794,-3.1664,-3.1664,-3.1664,-3.1664,-3.1664,-3.1664,-3.1664,-3.1664,-3.1664,-3.1664,-3.1664,-3.1664,-3.1664,-3.1664,-3.1664,-3.1664,-3.1664,-3.1664,-3.1664,0.0,0.0,-2.4992,-2.4508,-2.5534,-2.6168,-2.6155,-2.6734,-2.6926,-2.6797,-2.7611,-2.8409,-2.9032,-2.9446,-2.9995,-3.0419,-2.9055,-2.8552,-2.9807,-2.8049,-2.7566,-2.9115,-2.7021,-2.5927,-2.5805,-2.5197,-2.5615,-2.7027,-2.6966,-2.6906,-2.6834,-2.6834,-2.6834,-2.6834,-2.6629,-2.6508,-2.6435,-2.6218,-2.6097,-2.6013,-2.5981,-2.5896,-2.5884,-2.6178,-2.6273,-2.6468,-2.7551,-2.7852,-2.8155,-2.903,-2.9419,-2.9539,-2.982,-3.0074,-3.0274,-3.0341,-3.0515,-3.0768,-3.1129,-3.1396,-3.1583,-3.165,-3.1664,-3.1664,-3.1664,-3.1664,-3.1664,-3.1664,-3.1664,-3.1664,-3.1664,-3.1664,-3.1664,-3.1664,-3.2051,-3.1646,-2.9273,-2.845,0.0,0.0,-2.5834,-2.6845,-2.7485,-2.9624,-3.0069,0.0,0.0,0.0,0.0,-2.6363,-2.6959,-2.9834,-3.0016,-3.0212,-3.0861,-3.1006,-3.1152,-3.1664,-3.1664,-3.1664,-3.1664,-3.1664,-3.1664,-3.1664,-3.1664,-3.1664,-3.1664,-3.1664,-3.1664,-3.1664,-3.1664,-3.1664,-3.1664,-3.1664,-3.1664,-3.1664,-2.2831,-2.4146,-2.5206,-2.4916,-2.564,-2.6315,-2.6552,-2.6788,-2.6993,-2.7122,-2.7546,-2.8152,-2.878,-2.9179,-2.9746,-3.0226,-2.9186,-2.8866,-2.9815,-2.8229,-2.7963,-2.9019,-2.7326,-2.6409,-2.6296,-2.5933,-2.6167,-2.7027,-2.7027,-2.7027,-2.7027,-2.7027,-2.7027,-2.7027,-2.6882,-2.6749,-2.6629,-2.6472,-2.6339,-2.6206,-2.6061,-2.6013,-2.5989,-2.6191,-2.6302,-2.65,-2.7516,-2.8004,-2.8347,-2.9189,-2.9566,-2.9713,-2.986,-3.0114,-3.0381,-3.0515,-3.0768,-3.1049,-3.1343,-3.1543,-3.1664,-3.1664,-3.1664,-3.1664,-3.1664,-3.1664,-3.1664,-3.1664,-3.1664,-3.1664,-3.1664,-3.1664,-3.1717,-3.1851,-3.0954,-2.9702,-2.8335,-2.671,0.0,-2.5628,-2.6598,-2.7951,-2.9222,-3.0861,-3.1248,-2.9573,0.0,0.0,-2.93,-2.8538,-2.9128,-3.1637,-3.1664,-3.1664,-3.1664,-3.1664,-3.1677,-3.1297,-3.1297,-3.1284,-3.0903,-3.0903,-3.0903,-3.0903,-3.0903,-3.0903,-3.0903,-3.0903,-3.0903,-3.0903,-3.0903,-3.0903,-3.0903,-3.0903,-3.0903,-3.0903,-2.4365,-2.4822,-2.5356,-2.5744,-2.6013,-2.6261,-2.6498,-2.6735,-2.6907,-2.6939,-2.7553,-2.8167,-2.8586,-2.9186,-2.9796,-3.0214,-2.996,-2.9779,-2.9743,-2.9284,-2.8994,-2.8958,-2.8439,-2.8041,-2.7811,-2.751,-2.7256,-2.7027,-2.7027,-2.7027,-2.7027,-2.7027,-2.7027,-2.7027,-2.7027,-2.6906,-2.6701,-2.6701,-2.6556,-2.6339,-2.6303,-2.6278,-2.6278,-2.623,-2.6394,-2.6934,-2.7498,-2.8191,-2.8765,-2.9349,-2.9713,-2.9927,-2.9967,-3.0181,-3.0488,-3.0768,-3.1062,-3.1343,-3.1597,-3.1664,-3.1664,-3.1664,-3.1664,-3.1664,-3.1664,-3.1664,-3.1664,-3.1664,-3.1664,-3.1664,-3.1664,-3.1664,-3.1677,-3.1513,-2.9313,-2.7574,-2.7636,0.0,-2.4717,-2.7548,-2.7951,-2.8847,-3.1503,-3.1664,-3.1664,-3.1664,-3.0026,-2.9749,0.0,-2.9827,-2.9762,-3.165,-3.1664,-3.1664,-3.1664,-3.1474,-3.1284,-3.0713,-3.0713,-3.0522,-3.0128,-3.0128,-3.0128,-3.0128,-3.0128,-3.0128,-3.0128,-3.0128,-3.0128,-3.0128,-3.0128,-3.0128,-3.0128,-3.0128,-3.0128,-3.0128,-2.4396,-2.4949,-2.5486,-2.5561,-2.5766,-2.6002,-2.625,-2.6487,-2.6916,-2.7531,-2.8178,-2.8586,-2.9186,-2.9808,-3.0011,-3.0214,-2.996,-2.9707,-2.9477,-2.9188,-2.8922,-2.8693,-2.8162,-2.786,-2.7811,-2.7341,-2.7075,-2.7027,-2.7027,-2.7027,-2.7027,-2.7027,-2.7027,-2.7027,-2.7027,-2.7003,-2.6966,-2.6966,-2.6942,-2.6882,-2.6665,-2.658,-2.6544,-2.6315,-2.6218,-2.6431,-2.7548,-2.8029,-2.8462,-2.9409,-2.9887,-2.9967,-3.0207,-3.0488,-3.0782,-3.1076,-3.137,-3.161,-3.1664,-3.1664,-3.1664,-3.1664,-3.1664,-3.1664,-3.1664,-3.1664,-3.1664,-3.1664,-3.1664,-3.1664,-3.1664,-3.1664,-3.0901,-2.8796,-2.8156,-2.6959,-2.4651,0.0,-2.7184,-2.7473,-2.9599,-3.1128,-3.1637,-3.1664,-3.1664,-3.1664,-3.1354,-3.1328,-3.1664,-3.1341,-3.1341,-3.1664,-3.1664,-3.1474,-3.1107,-3.0522,-3.0319,-3.0128,-3.0128,-3.0128,-3.0128,-3.0128,-3.0128,-3.0128,-3.0128,-3.0128,-3.0128,-3.0128,-3.0128,-3.0128,-3.0128,-3.0128,-3.0128,-3.0128,-3.0128,-3.0128,-2.4197,-2.4861,-2.5518,-2.5518,-2.5712,-2.5949,-2.6196,-2.6634,-2.7278,-2.7725,-2.8575,-2.9186,-2.9389,-2.9808,-3.0214,-3.0214,-2.996,-2.9682,-2.9417,-2.9163,-2.8898,-2.8632,-2.8379,-2.8113,-2.7824,-2.7437,-2.7172,-2.7027,-2.7027,-2.7027,-2.7027,-2.7027,-2.7027,-2.7027,-2.7027,-2.7027,-2.7027,-2.7027,-2.7027,-2.7015,-2.6894,-2.6846,-2.6834,-2.6701,-2.6653,-2.6856,-2.7875,-2.8284,-2.8488,-2.9515,-3.002,-3.0181,-3.0314,-3.0662,-3.1049,-3.1183,-3.1436,-3.1664,-3.1664,-3.1664,-3.1664,-3.1664,-3.1664,-3.1664,-3.1664,-3.1664,-3.1664,-3.1664,-3.1664,-3.1664,-3.1664,-3.1664,-3.1301,-3.0225,-2.8668,0.0,0.0,-2.6872,-2.7574,-2.7447,-3.0031,-3.1664,-3.1664,-3.1664,-3.1664,-3.1664,-3.1664,-3.1664,-3.1664,-3.1474,-3.1297,-3.1297,-3.1297,-3.1093,-3.0522,-3.0128,-2.9937,-2.9758,-2.9758,-2.9567,-2.9375,-2.9375,-2.9375,-2.9375,-2.9375,-2.9375,-2.9375,-2.9375,-2.9375,-2.9375,-2.9375,-2.9375,-2.9375,-2.9375,-2.9375,-2.9375,-2.3961,-2.474,-2.5518,-2.5518,-2.5669,-2.5873,-2.6309,-2.6959,-2.7392,-2.8054,-2.8947,-2.9389,-2.9593,-2.9951,-3.0117,-3.0117,-2.9864,-2.9586,-2.9135,-2.8932,-2.8704,-2.8632,-2.856,-2.8306,-2.7824,-2.7558,-2.7329,-2.7123,-2.7063,-2.7027,-2.7027,-2.7027,-2.7027,-2.7027,-2.7027,-2.7027,-2.7027,-2.7027,-2.7027,-2.7027,-2.7027,-2.7027,-2.7027,-2.7027,-2.7027,-2.7208,-2.8113,-2.8525,-2.8757,-2.966,-3.0221,-3.0474,-3.0541,-3.0862,-3.1236,-3.1303,-3.149,-3.1664,-3.1664,-3.1664,-3.1664,-3.1664,-3.1664,-3.1664,-3.1664,-3.1664,-3.1664,-3.1664,-3.1664,-3.1664,-3.1664,-3.1664,-3.1623,-3.1125,0.0,0.0,0.0,-2.7599,-2.775,-2.8322,-3.0465,-3.1664,-3.1664,-3.1664,-3.1664,-3.1487,-3.1474,-3.1474,-3.1284,-3.0903,-3.0713,-3.0522,-3.0535,-3.0331,-2.9937,-2.9746,-2.9567,-2.9196,-2.9196,-2.9004,-2.862,-2.862,-2.862,-2.862,-2.862,-2.862,-2.862,-2.862,-2.862,-2.862,-2.862,-2.862,-2.862,-2.862,-2.862,-2.862,-2.3961,-2.474,-2.5518,-2.5518,-2.5529,-2.5821,-2.6452,-2.6893,-2.7536,-2.8801,-2.9237,-2.9593,-3.0011,-2.9984,-2.9827,-2.9827,-2.9586,-2.9123,-2.8262,-2.8226,-2.8303,-2.8632,-2.8379,-2.8101,-2.7824,-2.7558,-2.7413,-2.7389,-2.7148,-2.7027,-2.7027,-2.7027,-2.7027,-2.7027,-2.7027,-2.7027,-2.7027,-2.7027,-2.7027,-2.7027,-2.7027,-2.7027,-2.7027,-2.7027,-2.7027,-2.7208,-2.8113,-2.864,-2.9039,-2.9964,-3.0528,-3.0808,-3.1076,-3.1196,-3.1276,-3.1557,-3.165,-3.1664,-3.1664,-3.1664,-3.1664,-3.1664,-3.1664,-3.1664,-3.1664,-3.1664,-3.1664,-3.1664,-3.1664,-3.1664,-3.1664,-3.1664,-3.0848,-2.8436,0.0,0.0,-2.7814,-2.7612,-2.8552,-3.1089,-3.1583,-3.1664,-3.1664,-3.1664,-3.1487,-3.0916,-3.0916,-3.0713,-3.0319,-3.0128,-2.9937,-2.9567,-2.9567,-2.9567,-2.9375,-2.9004,-2.862,-2.862,-2.862,-2.862,-2.862,-2.862,-2.862,-2.862,-2.862,-2.862,-2.862,-2.862,-2.862,-2.862,-2.862,-2.862,-2.862,-2.862,-2.862,-2.862,-2.4341,-2.5051,-2.569,-2.555,-2.5831,-2.6408,-2.6848,-2.7554,-2.831,-2.8978,-2.9285,-2.9687,-2.9731,-2.961,-2.9423,-2.9391,-2.9153,-2.8567,-2.8079,-2.7928,-2.7731,-2.7658,-2.7937,-2.7688,-2.7262,-2.7685,-2.7667,-2.7184,-2.7244,-2.7184,-2.7027,-2.7027,-2.7027,-2.7027,-2.7027,-2.7027,-2.7027,-2.7027,-2.7027,-2.7027,-2.7027,-2.7027,-2.7027,-2.7027,-2.7135,-2.7451,-2.8364,-2.8907,-2.9333,-3.0254,-3.0822,-3.1076,-3.1196,-3.1356,-3.1517,-3.1637,-3.1664,-3.1664,-3.1664,-3.1664,-3.1664,-3.1664,-3.1664,-3.1664,-3.1664,-3.1664,-3.1664,-3.1664,-3.1664,-3.1664,-3.1664,-3.1664,-3.1288,-3.0359,0.0,-3.0136,-3.0254,-3.0175,-3.0531,-3.1583,-3.1664,-3.1487,-3.1297,-3.1297,-3.0903,-3.0522,-3.0319,-3.0319,-3.0128,-2.9746,-2.9375,-2.9004,-2.8812,-2.8812,-2.8812,-2.862,-2.862,-2.862,-2.862,-2.862,-2.862,-2.862,-2.862,-2.862,-2.862,-2.862,-2.862,-2.862,-2.862,-2.862,-2.862,-2.862,-2.862,-2.862,-2.862,-2.862,-2.4639,-2.5363,-2.5841,-2.5755,-2.6267,-2.6804,-2.7091,-2.7973,-2.8661,-2.8954,-2.9423,-2.961,-2.9231,-2.9135,-2.8962,-2.8556,-2.8323,-2.7963,-2.7384,-2.7041,-2.6861,-2.7067,-2.7646,-2.7674,-2.7322,-2.77,-2.786,-2.7401,-2.7329,-2.7244,-2.7148,-2.7075,-2.7027,-2.7027,-2.7027,-2.7027,-2.7027,-2.7027,-2.7027,-2.7027,-2.7027,-2.7075,-2.716,-2.716,-2.7317,-2.7731,-2.8653,-2.9199,-2.9615,-3.0558,-3.1129,-3.137,-3.137,-3.1503,-3.1664,-3.1664,-3.1664,-3.1664,-3.1664,-3.1664,-3.1664,-3.1664,-3.1664,-3.1664,-3.1664,-3.1664,-3.1664,-3.1664,-3.1664,-3.1664,-3.1664,-3.1664,-3.1664,-3.1664,-3.1664,-3.1664,-3.1664,-3.1664,-3.1664,-3.1664,-3.1664,-3.1487,-3.0916,-3.0916,-3.0522,-2.9937,-2.9937,-2.9746,-2.9567,-2.9375,-2.9004,-2.862,-2.862,-2.862,-2.862,-2.862,-2.862,-2.862,-2.862,-2.862,-2.862,-2.862,-2.862,-2.862,-2.862,-2.862,-2.862,-2.862,-2.862,-2.862,-2.862,-2.862,-2.862,-2.862,-2.862,-2.862,-2.5043,-2.5479,-2.5949,-2.6185,-2.6627,-2.7135,-2.7293,-2.8067,-2.8729,-2.9043,-2.9236,-2.9207,-2.8614,-2.8379,-2.8031,-2.7455,-2.7216,-2.6874,-2.6305,-2.5712,-2.5906,-2.7056,-2.7453,-2.7839,-2.7839,-2.7712,-2.7944,-2.8198,-2.7425,-2.7172,-2.7413,-2.716,-2.7039,-2.7027,-2.7027,-2.7027,-2.7027,-2.7027,-2.7027,-2.7027,-2.7027,-2.7184,-2.7425,-2.7425,-2.7582,-2.7998,-2.8929,-2.9479,-2.9909,-3.0848,-3.1423,-3.1664,-3.1664,-3.1664,-3.1664,-3.1664,-3.1664,-3.1664,-3.1664,-3.1664,-3.1664,-3.1664,-3.1664,-3.1664,-3.1664,-3.1664,-3.1664,-3.1664,-3.1664,-3.1664,-3.1664,-3.1664,-3.1664,-3.1664,-3.1664,-3.1664,-3.1664,-3.1664,-3.1664,-3.1664,-3.1664,-3.1474,-3.0916,-3.0916,-3.0522,-2.9375,-2.9375,-2.9196,-2.862,-2.862,-2.862,-2.862,-2.862,-2.862,-2.862,-2.862,-2.862,-2.862,-2.862,-2.862,-2.862,-2.862,-2.862,-2.862,-2.862,-2.862,-2.862,-2.862,-2.862,-2.862,-2.862,-2.862,-2.862,-2.862,-2.862,-2.862,-2.5225,-2.5698,-2.6287,-2.6595,-2.7113,-2.7798,-2.8125,-2.8611,-2.8712,-2.8433,-2.8481,-2.8262,-2.7696,-2.741,-2.725,-2.7041,-2.6632,-2.6294,-2.5712,-2.5518,-2.5712,-2.5906,-2.6487,-2.6795,-2.6996,-2.7592,-2.7843,-2.7932,-2.7872,-2.7703,-2.7413,-2.7341,-2.7208,-2.7027,-2.7027,-2.7027,-2.7027,-2.7027,-2.7027,-2.7027,-2.7027,-2.7184,-2.7425,-2.7425,-2.7889,-2.8667,-2.9406,-2.996,-3.0583,-3.1341,-3.1597,-3.1664,-3.1664,-3.1664,-3.1664,-3.1664,-3.1664,-3.1664,-3.1664,-3.1664,-3.1664,-3.1664,-3.1664,-3.1664,-3.1664,-3.1664,-3.1664,-3.1664,-3.1664,-3.1664,-3.1664,-3.1664,-3.1664,-3.1664,-3.1664,-3.1664,-3.1664,-3.1664,-3.1664,-3.1664,-3.1284,-3.0903,-3.0331,-2.9949,-2.9579,-2.8812,-2.8812,-2.8812,-2.862,-2.862,-2.862,-2.862,-2.862,-2.862,-2.862,-2.862,-2.862,-2.862,-2.862,-2.862,-2.862,-2.862,-2.862,-2.862,-2.862,-2.862,-2.862,-2.862,-2.862,-2.862,-2.862,-2.862,-2.862,-2.862,-2.862,-2.862,-2.5569,-2.6233,-2.6616,-2.6959,-2.7668,-2.8299,-2.8497,-2.8528,-2.8581,-2.8085,-2.7868,-2.7421,-2.6885,-2.6874,-2.6543,-2.6309,-2.5993,-2.5906,-2.5518,-2.5518,-2.5518,-2.5518,-2.5712,-2.6227,-2.6467,-2.7279,-2.7771,-2.7747,-2.7781,-2.7787,-2.757,-2.7365,-2.7184,-2.7027,-2.7027,-2.7027,-2.7027,-2.7027,-2.7027,-2.7027,-2.7027,-2.7244,-2.757,-2.757,-2.8283,-2.914,-2.9697,-3.0368,-3.0916,-3.1487,-3.1664,-3.1664,-3.1664,-3.1664,-3.1664,-3.1664,-3.1664,-3.1664,-3.1664,-3.1664,-3.1664,-3.1664,-3.1664,-3.1664,-3.1664,-3.1664,-3.1664,-3.1664,-3.1664,-3.1664,-3.1664,-3.1664,-3.1664,-3.1664,-3.1664,-3.1664,-3.1664,-3.1664,-3.1664,-3.1664,-3.1297,-3.0713,-3.0128,-2.9758,-2.9196,-2.862,-2.862,-2.862,-2.862,-2.862,-2.862,-2.862,-2.862,-2.862,-2.862,-2.862,-2.862,-2.862,-2.862,-2.862,-2.862,-2.862,-2.862,-2.862,-2.862,-2.862,-2.862,-2.862,-2.862,-2.862,-2.862,-2.862,-2.862,-2.862,-2.862,-2.862,-2.611,-2.6606,-2.7092,-2.7527,-2.8387,-2.8825,-2.8297,-2.8215,-2.7938,-2.7681,-2.726,-2.6874,-2.6305,-2.6305,-2.6111,-2.5518,-2.5518,-2.5518,-2.5518,-2.5518,-2.5518,-2.5518,-2.5518,-2.5712,-2.6305,-2.7042,-2.7604,-2.7839,-2.7509,-2.763,-2.7799,-2.7329,-2.7075,-2.7027,-2.7027,-2.7039,-2.7063,-2.7063,-2.7075,-2.7099,-2.7099,-2.7401,-2.7848,-2.7848,-2.8539,-2.9567,-2.9937,-3.0522,-3.1107,-3.1474,-3.1664,-3.1664,-3.1664,-3.1664,-3.1664,-3.1664,-3.1664,-3.1664,-3.1664,-3.1664,-3.1664,-3.1664,-3.1664,-3.1664,-3.1664,-3.1664,-3.1664,-3.1664,-3.1664,-3.1664,-3.1664,-3.1664,-3.1664,-3.1664,-3.1664,-3.1664,-3.1664,-3.1664,-3.1677,-3.1664,-3.1107,-3.0713,-3.0128,-2.9567,-2.9196,-2.862,-2.862,-2.862,-2.862,-2.862,-2.862,-2.862,-2.862,-2.862,-2.862,-2.862,-2.862,-2.862,-2.862,-2.862,-2.862,-2.862,-2.862,-2.862,-2.862,-2.862,-2.862,-2.862,-2.862,-2.862,-2.862,-2.862,-2.862,-2.862,-2.862,-2.862,-2.6485,-2.6893,-2.7236,-2.81,-2.8272,-2.8426,-2.8297,-2.7835,-2.7353,-2.6714,-2.6498,-2.6294,-2.5712,-2.5712,-2.5712,-2.5518,-2.5518,-2.5518,-2.5518,-2.5518,-2.5518,-2.5518,-2.5518,-2.5518,-2.5712,-2.6624,-2.7395,-2.7839,-2.8248,-2.8174,-2.7811,-2.7691,-2.7425,-2.7027,-2.7027,-2.7148,-2.7341,-2.7341,-2.7449,-2.7642,-2.7642,-2.7836,-2.8113,-2.8113,-2.8888,-2.9937,-3.0128,-3.07,-3.1474,-3.1664,-3.1664,-3.1664,-3.1664,-3.1664,-3.1664,-3.1664,-3.1664,-3.1664,-3.1664,-3.1664,-3.1664,-3.1664,-3.1664,-3.1664,-3.1664,-3.1664,-3.1664,-3.1664,-3.1664,-3.1664,-3.1664,-3.1664,-3.1664,-3.1664,-3.1664,-3.1664,-3.1664,-3.1664,-3.1474,-3.1107,-3.0522,-3.0128,-2.9567,-2.9004,-2.8812,-2.862,-2.862,-2.862,-2.862,-2.862,-2.862,-2.862,-2.862,-2.862,-2.862,-2.862,-2.862,-2.862,-2.862,-2.862,-2.862,-2.862,-2.862,-2.862,-2.862,-2.862,-2.862,-2.862,-2.862,-2.862,-2.862,-2.862,-2.862,-2.862,-2.862,-2.862,-2.699,-2.7532,-2.8019,-2.8428,-2.8533,-2.8287,-2.8285,-2.764,-2.6962,-2.6338,-2.6111,-2.5712,-2.5518,-2.5518,-2.5518,-2.5518,-2.5518,-2.5518,-2.5518,-2.5518,-2.5518,-2.5518,-2.5518,-2.5518,-2.5518,-2.6487,-2.726,-2.7453,-2.8105,-2.8282,-2.7993,-2.7872,-2.7594,-2.722,-2.722,-2.722,-2.7244,-2.7365,-2.7498,-2.763,-2.7763,-2.7968,-2.8198,-2.8198,-2.8938,-3.0128,-3.0128,-3.07,-3.1664,-3.1664,-3.1664,-3.1664,-3.1664,-3.1664,-3.1664,-3.1664,-3.1664,-3.1664,-3.1664,-3.1474,-3.1284,-3.1284,-3.1093,-3.1093,-3.1664,-3.1664,-3.1664,-3.1664,-3.1664,-3.1664,-3.1664,-3.1664,-3.1664,-3.1664,-3.1664,-3.1664,-3.1664,-3.1664,-3.1474,-3.0916,-3.0522,-2.9746,-2.9004,-2.8812,-2.862,-2.862,-2.862,-2.862,-2.862,-2.862,-2.862,-2.862,-2.862,-2.862,-2.862,-2.862,-2.862,-2.862,-2.862,-2.862,-2.862,-2.862,-2.862,-2.862,-2.862,-2.862,-2.862,-2.862,-2.862,-2.862,-2.862,-2.862,-2.862,-2.862,-2.862,-2.862,-2.7832,-2.8252,-2.8626,-2.8626,-2.8428,-2.8323,-2.8008,-2.7214,-2.6375,-2.6144,-2.5712,-2.5518,-2.5518,-2.5518,-2.5518,-2.5518,-2.5518,-2.5518,-2.5518,-2.5518,-2.5518,-2.5518,-2.5518,-2.5518,-2.5518,-2.6487,-2.7056,-2.7056,-2.7807,-2.8246,-2.8198,-2.798,-2.7739,-2.7486,-2.7486,-2.7389,-2.7244,-2.7461,-2.7582,-2.7642,-2.786,-2.8077,-2.827,-2.846,-2.9165,-3.0128,-3.0128,-3.0903,-3.1664,-3.1664,-3.1664,-3.1664,-3.1664,-3.1664,-3.1664,-3.1664,-3.1664,-3.1677,-3.1664,-3.1297,-3.0916,-3.0726,-3.0522,-3.0319,-3.1284,-3.1474,-3.1474,-3.1474,-3.1474,-3.1474,-3.1474,-3.1474,-3.1474,-3.1474,-3.1664,-3.1664,-3.1664,-3.1664,-3.1474,-3.0903,-3.014,-2.9567,-2.862,-2.862,-2.862,-2.862,-2.862,-2.862,-2.862,-2.862,-2.862,-2.862,-2.862,-2.862,-2.862,-2.862,-2.862,-2.862,-2.862,-2.862,-2.862,-2.862,-2.862,-2.862,-2.862,-2.862,-2.862,-2.862,-2.862,-2.862,-2.862,-2.862,-2.862,-2.862,-2.862,-2.862,-2.8696,-2.8778,-2.8626,-2.8626,-2.8229,-2.7661,-2.661,-2.6331,-2.5983,-2.555,-2.5518,-2.5518,-2.5518,-2.5518,-2.5518,-2.5518,-2.5518,-2.5518,-2.5518,-2.5518,-2.5518,-2.5518,-2.5518,-2.5518,-2.5518,-2.6487,-2.7056,-2.7056,-2.7996,-2.8439,-2.8198,-2.8162,-2.8005,-2.7763,-2.7763,-2.786,-2.8041,-2.8077,-2.8234,-2.8463,-2.85,-2.8536,-2.8572,-2.9135,-2.9529,-3.0128,-3.0713,-3.1093,-3.1664,-3.1664,-3.1664,-3.1664,-3.1664,-3.1664,-3.1664,-3.1664,-3.1664,-3.1677,-3.1107,-3.0916,-3.0726,-3.0319,-3.0128,-3.0128,-3.0319,-3.0319,-3.0319,-3.0319,-3.0319,-3.0319,-3.0319,-3.0713,-3.1107,-3.1107,-3.1474,-3.1664,-3.1664,-3.1664,-3.1284,-3.0319,-2.9375,-2.8812,-2.862,-2.862,-2.862,-2.862,-2.862,-2.862,-2.862,-2.862,-2.862,-2.862,-2.862,-2.862,-2.862,-2.862,-2.862,-2.862,-2.862,-2.862,-2.862,-2.862,-2.862,-2.862,-2.862,-2.862,-2.862,-2.862,-2.862,-2.862,-2.862,-2.862,-2.862,-2.862,-2.862,-2.862,-2.9164,-2.9212,-2.9188,-2.8649,-2.8334,-2.7702,-2.676,-2.6398,-2.5938,-2.5572,-2.5518,-2.5518,-2.5518,-2.5518,-2.5518,-2.5518,-2.5518,-2.5518,-2.5518,-2.5518,-2.5518,-2.5518,-2.5518,-2.5518,-2.5518,-2.6487,-2.7056,-2.7056,-2.8043,-2.856,-2.8439,-2.8439,-2.8294,-2.8029,-2.8029,-2.8017,-2.7993,-2.8137,-2.827,-2.8403,-2.856,-2.862,-2.862,-2.8812,-2.9375,-3.0128,-3.1093,-3.1487,-3.1664,-3.1297,-3.1297,-3.1284,-3.0903,-3.089,-3.089,-3.089,-3.089,-3.07,-3.0522,-3.0331,-2.9949,-2.9758,-2.9567,-2.9184,-2.9184,-2.9184,-2.9375,-2.9937,-3.0128,-3.0128,-3.0128,-3.0319,-3.0522,-3.0522,-3.0713,-3.089,-3.089,-3.089,-3.0522,-2.9758,-2.8992,-2.862,-2.862,-2.862,-2.862,-2.862,-2.862,-2.862,-2.862,-2.862,-2.862,-2.862,-2.862,-2.862,-2.862,-2.862,-2.862,-2.862,-2.862,-2.862,-2.862,-2.862,-2.862,-2.862,-2.862,-2.862,-2.862,-2.862,-2.862,-2.862,-2.862,-2.862,-2.862,-2.862,-2.862,-2.862]}]]